[[{"header":{"parameterUnit":"m.s-1","parameterCategory":1,"la1":30.6,"la2":28.766,"lo1":-90.7593,"lo2":-88.6598,"dx":0.0162,"dy":0.0183,"nx":116,"ny":114,"refTime":"2022-12-27T18:00:00:Z","depth":0,"parameterNumber":2,"parameterNumberName":"U-component_of_WINDS"},"data":[0.0,0.0,0.0,0.0,0.0,0.0,0.0,0.0,0.0,0.0,0.0,0.0,0.0,0.0,0.0,0.0,0.0,0.0,0.0,0.0,0.0,0.0,0.0,0.0,0.0,0.0,0.0,0.0,0.0,0.0,0.0,0.0,0.0,0.0,0.0,0.0,0.0,0.0,0.0,0.0,0.0,0.0,0.0,0.0,0.0,0.0,0.0,0.0,0.0,0.0,0.0,0.0,0.0,0.0,0.0,0.0,0.0,0.0,0.0,0.0,0.0,0.0,0.0,0.0,0.0,0.0,0.0,0.0,0.0,0.0,0.0,0.0,0.0,0.0,0.0,0.0,0.0,0.0,0.0,0.0,0.0,0.0,0.0,0.0,0.0,0.0,0.0,0.0,0.0,0.0,0.0,0.0,0.0,0.0,0.0,0.0,0.0,0.0,0.0,0.0,0.0,0.0,0.0,0.0,0.0,0.0,0.0,0.0,0.0,0.0,0.0,0.0,0.0,0.0,0.0,0.0,0.0,0.0,0.0,0.0,0.0,0.0,0.0,0.0,0.0,0.0,0.0,0.0,0.0,0.0,0.0,0.0,0.0,0.0,0.0,0.0,0.0,0.0,0.0,0.0,0.0,0.0,0.0,0.0,0.0,0.0,0.0,0.0,0.0,0.0,0.0,0.0,0.0,0.0,0.0,0.0,0.0,0.0,0.0,0.0,0.0,0.0,0.0,0.0,0.0,0.0,0.0,0.0,0.0,0.0,0.0,0.0,0.0,0.0,0.0,0.0,0.0,0.0,0.0,0.0,0.0,0.0,0.0,0.0,0.0,0.0,0.0,0.0,0.0,0.0,0.0,0.0,0.0,0.0,0.0,0.0,0.0,0.0,0.0,0.0,0.0,0.0,0.0,0.0,0.0,0.0,0.0,0.0,0.0,0.0,0.0,0.0,0.0,0.0,0.0,0.0,0.0,0.0,0.0,0.0,0.0,0.0,0.0,0.0,0.0,0.0,0.0,0.0,0.0,0.0,0.0,0.0,0.0,0.0,0.0,0.0,0.0,0.0,0.0,0.0,0.0,0.0,0.0,0.0,0.0,0.0,0.0,0.0,0.0,0.0,0.0,0.0,0.0,0.0,0.0,0.0,0.0,0.0,0.0,0.0,0.0,0.0,0.0,0.0,0.0,0.0,0.0,0.0,0.0,0.0,0.0,0.0,0.0,0.0,0.0,0.0,0.0,0.0,0.0,0.0,0.0,0.0,0.0,0.0,0.0,0.0,0.0,0.0,0.0,0.0,0.0,0.0,0.0,0.0,0.0,0.0,0.0,0.0,0.0,0.0,0.0,0.0,0.0,0.0,0.0,0.0,0.0,0.0,0.0,0.0,0.0,0.0,0.0,0.0,0.0,0.0,0.0,0.0,0.0,0.0,0.0,0.0,0.0,0.0,0.0,0.0,0.0,0.0,0.0,0.0,0.0,0.0,0.0,0.0,0.0,0.0,0.0,0.0,0.0,0.0,0.0,0.0,0.0,0.0,0.0,0.0,0.0,0.0,0.0,0.0,0.0,0.0,0.0,0.0,0.0,0.0,0.0,0.0,0.0,0.0,0.0,0.0,0.0,0.0,0.0,0.0,0.0,0.0,0.0,0.0,0.0,0.0,0.0,0.0,0.0,0.0,0.0,0.0,0.0,0.0,0.0,0.0,0.0,0.0,0.0,0.0,0.0,0.0,0.0,0.0,0.0,0.0,0.0,0.0,0.0,0.0,0.0,0.0,0.0,0.0,0.0,0.0,0.0,0.0,0.0,0.0,0.0,0.0,0.0,0.0,0.0,0.0,0.0,0.0,0.0,0.0,0.0,0.0,0.0,0.0,0.0,0.0,0.0,0.0,0.0,0.0,0.0,0.0,0.0,0.0,0.0,0.0,0.0,0.0,0.0,0.0,0.0,0.0,0.0,0.0,0.0,0.0,0.0,0.0,0.0,0.0,0.0,0.0,0.0,0.0,0.0,0.0,0.0,0.0,0.0,0.0,0.0,0.0,0.0,0.0,0.0,0.0,0.0,0.0,0.0,0.0,0.0,0.0,0.0,0.0,0.0,0.0,0.0,0.0,0.0,0.0,0.0,0.0,0.0,0.0,0.0,0.0,0.0,0.0,0.0,0.0,0.0,0.0,0.0,0.0,0.0,0.0,0.0,0.0,0.0,0.0,0.0,0.0,0.0,0.0,0.0,0.0,0.0,0.0,0.0,0.0,0.0,0.0,0.0,0.0,0.0,0.0,0.0,0.0,0.0,0.0,0.0,0.0,0.0,0.0,0.0,0.0,0.0,0.0,0.0,0.0,0.0,0.0,0.0,0.0,0.0,0.0,0.0,0.0,0.0,0.0,0.0,0.0,0.0,0.0,0.0,0.0,0.0,0.0,0.0,0.0,0.0,0.0,0.0,0.0,0.0,0.0,0.0,0.0,0.0,0.0,0.0,0.0,0.0,0.0,0.0,0.0,0.0,0.0,0.0,0.0,0.0,0.0,0.0,0.0,0.0,0.0,0.0,0.0,0.0,0.0,0.0,0.0,0.0,0.0,0.0,0.0,0.0,0.0,0.0,0.0,0.0,0.0,0.0,0.0,0.0,0.0,0.0,0.0,0.0,0.0,0.0,0.0,0.0,0.0,0.0,0.0,0.0,0.0,0.0,0.0,0.0,0.0,0.0,0.0,0.0,0.0,0.0,0.0,0.0,0.0,0.0,0.0,0.0,0.0,0.0,0.0,0.0,0.0,0.0,0.0,0.0,0.0,0.0,0.0,0.0,0.0,0.0,0.0,0.0,0.0,0.0,0.0,0.0,0.0,0.0,0.0,0.0,0.0,0.0,0.0,0.0,0.0,0.0,0.0,0.0,0.0,0.0,0.0,0.0,0.0,0.0,0.0,0.0,0.0,0.0,0.0,0.0,0.0,0.0,0.0,0.0,0.0,0.0,0.0,0.0,0.0,0.0,0.0,0.0,0.0,0.0,0.0,0.0,0.0,0.0,0.0,0.0,0.0,0.0,0.0,0.0,0.0,0.0,0.0,0.0,0.0,0.0,0.0,0.0,0.0,0.0,0.0,0.0,0.0,0.0,0.0,0.0,0.0,0.0,0.0,0.0,0.0,0.0,0.0,0.0,0.0,0.0,0.0,0.0,0.0,0.0,0.0,0.0,0.0,0.0,0.0,0.0,0.0,0.0,0.0,0.0,0.0,0.0,0.0,0.0,0.0,0.0,0.0,0.0,0.0,0.0,0.0,0.0,0.0,0.0,0.0,0.0,0.0,0.0,0.0,0.0,0.0,0.0,0.0,0.0,0.0,0.0,0.0,0.0,0.0,0.0,0.0,0.0,0.0,0.0,0.0,0.0,0.0,0.0,0.0,0.0,0.0,0.0,0.0,0.0,0.0,0.0,0.0,0.0,0.0,0.0,0.0,0.0,0.0,0.0,0.0,0.0,0.0,0.0,0.0,0.0,0.0,0.0,0.0,0.0,0.0,0.0,0.0,0.0,0.0,0.0,0.0,0.0,0.0,0.0,0.0,0.0,0.0,0.0,0.0,0.0,0.0,0.0,0.0,0.0,0.0,0.0,0.0,0.0,0.0,0.0,0.0,0.0,0.0,0.0,0.0,0.0,0.0,0.0,0.0,0.0,0.0,0.0,0.0,0.0,0.0,0.0,0.0,0.0,0.0,0.0,0.0,0.0,0.0,0.0,0.0,0.0,0.0,0.0,0.0,0.0,0.0,0.0,0.0,0.0,0.0,0.0,0.0,0.0,0.0,0.0,0.0,0.0,0.0,0.0,0.0,0.0,0.0,0.0,0.0,0.0,0.0,0.0,0.0,0.0,0.0,0.0,0.0,0.0,0.0,0.0,0.0,0.0,0.0,0.0,0.0,0.0,0.0,0.0,0.0,0.0,0.0,0.0,0.0,0.0,0.0,0.0,0.0,0.0,0.0,0.0,0.0,0.0,0.0,0.0,0.0,0.0,0.0,0.0,0.0,0.0,0.0,0.0,0.0,0.0,0.0,0.0,0.0,0.0,0.0,0.0,0.0,0.0,0.0,0.0,0.0,0.0,0.0,0.0,0.0,0.0,0.0,0.0,0.0,0.0,0.0,0.0,0.0,0.0,0.0,0.0,0.0,0.0,0.0,0.0,0.0,0.0,0.0,0.0,0.0,0.0,0.0,0.0,0.0,0.0,0.0,0.0,0.0,0.0,0.0,0.0,0.0,0.0,0.0,0.0,0.0,0.0,0.0,0.0,0.0,0.0,0.0,0.0,0.0,0.0,0.0,0.0,0.0,0.0,0.0,0.0,0.0,0.0,0.0,0.0,0.0,0.0,0.0,0.0,0.0,0.0,0.0,0.0,0.0,0.0,0.0,0.0,0.0,0.0,0.0,0.0,0.0,0.0,0.0,0.0,0.0,0.0,0.0,0.0,0.0,0.0,0.0,0.0,0.0,0.0,0.0,0.0,0.0,0.0,0.0,0.0,0.0,0.0,0.0,0.0,0.0,0.0,0.0,0.0,0.0,0.0,0.0,0.0,0.0,0.0,0.0,0.0,0.0,0.0,0.0,0.0,0.0,0.0,0.0,0.0,0.0,0.0,0.0,0.0,0.0,0.0,0.0,0.0,0.0,0.0,0.0,0.0,0.0,0.0,0.0,0.0,0.0,0.0,0.0,0.0,0.0,0.0,0.0,0.0,0.0,0.0,0.0,0.0,0.0,0.0,0.0,0.0,0.0,0.0,0.0,0.0,0.0,0.0,0.0,0.0,0.0,0.0,0.0,0.0,0.0,0.0,0.0,0.0,0.0,0.0,0.0,0.0,0.0,0.0,0.0,0.0,0.0,0.0,0.0,0.0,0.0,0.0,0.0,0.0,0.0,0.0,0.0,0.0,0.0,0.0,0.0,0.0,0.0,0.0,0.0,0.0,0.0,0.0,0.0,0.0,0.0,0.0,0.0,0.0,0.0,0.0,0.0,0.0,0.0,0.0,0.0,0.0,0.0,0.0,0.0,0.0,0.0,0.0,0.0,0.0,0.0,0.0,0.0,0.0,0.0,0.0,0.0,0.0,0.0,0.0,0.0,0.0,0.0,0.0,0.0,0.0,0.0,0.0,0.0,0.0,0.0,0.0,0.0,0.0,0.0,0.0,0.0,0.0,0.0,0.0,0.0,0.0,0.0,0.0,0.0,0.0,0.0,0.0,0.0,0.0,0.0,0.0,0.0,0.0,0.0,0.0,0.0,0.0,0.0,0.0,0.0,0.0,0.0,0.0,0.0,0.0,0.0,0.0,0.0,0.0,0.0,0.0,0.0,0.0,0.0,0.0,0.0,0.0,0.0,0.0,0.0,0.0,0.0,0.0,0.0,0.0,0.0,0.0,0.0,0.0,0.0,0.0,0.0,0.0,0.0,0.0,0.0,0.0,0.0,0.0,0.0,0.0,0.0,0.0,0.0,0.0,0.0,0.0,0.0,0.0,0.0,0.0,0.0,0.0,0.0,0.0,0.0,0.0,0.0,0.0,0.0,0.0,0.0,0.0,0.0,0.0,0.0,0.0,0.0,0.0,0.0,0.0,0.0,0.0,0.0,0.0,0.0,0.0,0.0,0.0,0.0,0.0,0.0,0.0,0.0,0.0,0.0,0.0,0.0,0.0,0.0,0.0,0.0,0.0,0.0,0.0,0.0,0.0,0.0,0.0,0.0,0.0,0.0,0.0,0.0,0.0,0.0,0.0,0.0,0.0,0.0,0.0,0.0,0.0,0.0,0.0,0.0,0.0,0.0,0.0,0.0,0.0,0.0,0.0,0.0,0.0,0.0,0.0,0.0,0.0,0.0,0.0,0.0,0.0,0.0,0.0,0.0,0.0,0.0,0.0,0.0,0.0,0.0,0.0,0.0,0.0,0.0,0.0,0.0,0.0,0.0,0.0,0.0,0.0,0.0,0.0,0.0,0.0,0.0,0.0,0.0,0.0,0.0,0.0,0.0,0.0,0.0,0.0,0.0,0.0,0.0,0.0,0.0,0.0,0.0,0.0,0.0,0.0,0.0,0.0,0.0,0.0,0.0,0.0,0.0,0.0,0.0,0.0,0.0,-0.7649,0.0,0.0,0.0,0.0,0.0,0.0,0.0,0.0,0.0,0.0,0.0,0.0,0.0,0.0,0.0,0.0,0.0,0.0,0.0,0.0,0.0,0.0,0.0,0.0,-0.787,-0.7841,-0.7797,-0.7768,0.0,0.0,0.0,0.0,0.0,0.0,0.0,0.0,0.0,-0.7709,-0.7471,-0.9294,-1.0203,-1.0197,-0.9766,-0.8609,-0.6895,0.0,0.0,0.0,0.0,0.0,0.0,0.0,0.0,0.0,0.0,0.0,0.0,0.0,0.0,0.0,0.0,0.0,0.0,0.0,0.0,0.0,0.0,0.0,0.0,0.0,0.0,0.0,0.0,0.0,0.0,0.0,0.0,0.0,0.0,0.0,0.0,0.0,0.0,0.0,0.0,0.0,0.0,0.0,0.0,0.0,0.0,0.0,0.0,0.0,0.0,0.0,0.0,0.0,0.0,0.0,0.0,0.0,0.0,0.0,0.0,0.0,0.0,0.0,0.0,0.0,0.0,0.0,0.0,0.0,0.0,0.0,-0.781,0.0,0.0,0.0,0.0,0.0,0.0,0.0,0.0,0.0,0.0,0.0,0.0,0.0,0.0,0.0,0.0,0.0,0.0,0.0,0.0,0.0,-0.7929,-0.8035,-0.799,-0.802,-0.8123,-0.8108,-0.8063,-0.799,-0.7975,0.0,0.0,0.0,0.0,-0.7163,-0.8284,-0.8923,-0.8971,-1.1197,-1.2595,-1.3167,-1.4069,-1.2754,-0.9692,-0.9193,0.0,0.0,0.0,0.0,0.0,0.0,0.0,0.0,0.0,0.0,0.0,0.0,0.0,0.0,0.0,0.0,0.0,0.0,0.0,0.0,0.0,0.0,0.0,0.0,0.0,0.0,0.0,0.0,0.0,0.0,0.0,0.0,0.0,0.0,0.0,0.0,0.0,0.0,0.0,0.0,0.0,0.0,0.0,0.0,0.0,0.0,0.0,0.0,0.0,0.0,0.0,0.0,0.0,0.0,0.0,0.0,0.0,0.0,0.0,0.0,0.0,0.0,0.0,-0.7861,-0.7797,-0.8433,-0.7512,-0.7134,-0.7171,-0.7988,-0.7902,-0.722,0.0,0.0,0.0,0.0,0.0,0.0,0.0,0.0,0.0,0.0,0.0,0.0,0.0,0.0,0.0,0.0,0.0,0.0,0.0,0.0,-0.8005,-0.8546,-0.8641,-0.888,-0.9393,-0.954,-0.9368,-0.8784,-0.8706,0.0,0.0,0.0,-0.8566,-0.854,-0.8992,-1.0044,-1.1683,-1.3684,-1.4894,-1.5367,-1.5175,-1.4908,-1.4524,-1.3376,-1.1711,-0.9779,0.0,0.0,0.0,0.0,0.0,0.0,0.0,0.0,0.0,0.0,0.0,0.0,0.0,0.0,0.0,0.0,0.0,0.0,0.0,0.0,0.0,0.0,0.0,0.0,0.0,0.0,0.0,0.0,0.0,0.0,0.0,0.0,0.0,0.0,0.0,0.0,0.0,0.0,0.0,0.0,0.0,-0.6504,-0.7274,0.0,0.0,0.0,0.0,0.0,0.0,0.0,0.0,0.0,0.0,0.0,0.0,0.0,-0.8662,-0.8275,-0.8245,-0.8112,-0.7947,-0.7662,-0.7537,-0.7539,-0.7494,-0.7257,-0.7019,-0.6993,0.0,-0.7556,-0.7658,0.0,0.0,0.0,0.0,0.0,0.0,0.0,0.0,0.0,0.0,0.0,0.0,0.0,0.0,0.0,0.0,0.0,0.0,0.0,0.0,0.0,-0.9824,-1.0792,-1.1431,-1.2238,-1.2283,-1.1268,-1.1132,0.0,0.0,-0.887,-0.8939,-0.9344,-0.9551,-1.1214,-1.4448,-1.6095,-1.7385,-1.8394,-1.8232,-1.8394,-1.8661,-1.8101,-1.6112,-1.3094,-1.3061,0.0,0.0,0.0,0.0,0.0,0.0,0.0,0.0,0.0,0.0,0.0,0.0,0.0,0.0,0.0,0.0,0.0,0.0,0.0,0.0,0.0,0.0,0.0,0.0,0.0,0.0,0.0,0.0,0.0,0.0,0.0,0.0,0.0,0.0,0.0,0.0,0.0,0.0,0.0,-0.6618,-0.7284,-0.8621,-0.8792,-0.8679,0.0,0.0,0.0,0.0,0.0,0.0,0.0,0.0,0.0,-0.817,-0.8311,-0.8282,-0.8154,-0.84,-0.8529,-0.8476,-0.8151,-0.798,-0.7931,-0.7782,-0.7604,-0.735,-0.7443,-0.7502,-0.758,-0.7654,-0.804,-0.8585,0.0,0.0,0.0,0.0,-0.7395,-0.7588,0.0,0.0,0.0,0.0,0.0,0.0,0.0,0.0,0.0,0.0,0.0,0.0,-1.0029,-1.1923,-1.3452,-1.4132,-1.4974,-1.4924,-1.3609,-1.3152,0.0,-1.0318,-0.9818,-0.9772,-1.0243,-1.1399,-1.3589,-1.6849,-1.8515,-1.974,-2.0657,-2.0707,-2.0915,-2.1221,-2.1221,-1.9367,-1.6233,-1.5783,-1.421,-1.1965,0.0,0.0,0.0,0.0,0.0,0.0,0.0,0.0,0.0,0.0,0.0,0.0,0.0,0.0,0.0,0.0,0.0,0.0,0.0,0.0,0.0,0.0,0.0,0.0,0.0,0.0,0.0,0.0,0.0,0.0,0.0,0.0,0.0,0.0,0.0,0.0,0.0,-0.7623,-0.8081,-0.9718,-0.9475,-0.9321,0.0,0.0,0.0,0.0,0.0,0.0,-0.8795,-0.8393,-0.8274,-0.8385,-0.8224,-0.8205,-0.8353,-0.8755,-0.8979,-0.9005,-0.8683,-0.8467,-0.8405,-0.8193,-0.7911,-0.7622,-0.7963,-0.7908,-0.7704,-0.771,-0.7834,-0.8131,-0.8429,-0.8439,-0.8364,-0.8282,-0.8393,-0.8529,0.0,0.0,0.0,0.0,0.0,0.0,0.0,0.0,0.0,0.0,0.0,-1.2052,-1.3396,-1.5402,-1.6925,-1.7589,-1.7319,-1.6489,-1.5087,-1.3739,-1.2349,-1.0926,-1.1371,-1.1607,-1.1513,-1.551,-1.7974,-1.8696,-2.09,-2.1782,-2.1353,-2.1353,-2.1365,-2.1388,-2.1285,-2.0107,-1.8235,-1.7687,-1.6448,-1.4549,-1.1815,0.0,0.0,0.0,0.0,0.0,0.0,0.0,0.0,0.0,0.0,0.0,0.0,0.0,0.0,0.0,0.0,0.0,0.0,0.0,0.0,0.0,0.0,0.0,0.0,0.0,0.0,0.0,0.0,0.0,0.0,0.0,0.0,0.0,0.0,0.0,0.0,0.0,0.0,-0.9687,-0.9749,0.0,0.0,0.0,0.0,-0.8639,-0.8393,-0.8344,-0.8534,-0.8302,-0.8429,-0.9054,-0.9007,-0.9104,-0.9283,-0.9315,-0.9254,-0.9108,-0.91,-0.8824,-0.8367,-0.8539,-0.8254,-0.7614,-0.8055,-0.8108,-0.7939,-0.7997,-0.8269,-0.8601,-0.8325,-0.8489,-0.8937,-0.8405,-0.8369,-0.8633,0.0,0.0,0.0,-0.7869,-0.7955,-0.7983,-0.7739,-0.8138,-0.8542,-0.8746,-1.1299,-1.35,-1.4464,-1.7152,-1.9406,-2.0605,-2.1329,-2.0967,-1.919,-1.8144,-1.6586,-1.4349,-1.3026,-1.2639,-1.3311,-1.7111,-1.9131,-1.9273,-2.0606,-2.1397,-2.1705,-2.1039,-2.1297,-2.2243,-2.1801,-2.1325,-2.0796,-2.0249,-1.8948,-1.7206,-1.6379,-1.4117,0.0,0.0,0.0,0.0,0.0,0.0,0.0,0.0,0.0,0.0,0.0,0.0,0.0,0.0,0.0,0.0,0.0,0.0,0.0,0.0,0.0,0.0,0.0,0.0,0.0,0.0,0.0,0.0,0.0,0.0,0.0,0.0,0.0,0.0,0.0,0.0,0.0,-1.0504,-1.0121,0.0,-0.9857,-0.9643,-0.9115,-0.8393,-0.8546,-0.8686,-0.8848,-0.8844,-0.891,-0.925,-0.9157,-0.9129,-0.919,-0.9299,-0.9324,-0.9267,-0.9689,-0.9797,-0.9604,-1.0016,-0.9932,-0.9434,-0.9602,-0.9522,-0.9261,-0.9359,-0.9111,-0.8826,-0.8864,-0.9041,-0.9338,-0.9272,-0.9458,-0.9717,0.0,0.0,0.0,-0.7768,-0.7898,-0.8059,-0.8048,-0.8527,-0.9282,-1.035,-1.3064,-1.5458,-1.6908,-1.9649,-2.1843,-2.2862,-2.3314,-2.29,-2.1357,-2.012,-1.8524,-1.6481,-1.4963,-1.485,-1.6405,-1.8818,-2.0109,-2.0228,-2.1054,-2.1579,-2.1861,-2.147,-2.1742,-2.2662,-2.2329,-2.2246,-2.2422,-2.1823,-2.0815,-1.9611,-1.902,-1.6466,-1.3014,0.0,0.0,0.0,0.0,0.0,0.0,0.0,0.0,0.0,0.0,0.0,0.0,0.0,0.0,0.0,0.0,0.0,0.0,0.0,0.0,0.0,0.0,0.0,0.0,0.0,0.0,0.0,0.0,0.0,0.0,0.0,0.0,0.0,0.0,0.0,-0.9746,-1.0816,-1.0001,-0.9533,-0.9873,-0.9418,-0.8848,-0.8446,-0.8701,-0.8966,-0.9092,-0.9096,-0.9177,-0.9348,-0.9242,-0.9337,-0.9456,-0.9575,-0.9661,-0.9826,-1.0167,-1.0387,-1.0391,-1.0897,-1.0841,-1.0373,-1.0408,-1.0189,-0.9675,-0.972,-0.9561,-0.9226,-0.9552,-0.9816,-1.0048,-1.0274,-1.0428,-1.054,0.0,0.0,-0.8174,-0.7768,-0.7869,-0.8167,-0.8656,-0.884,-1.0128,-1.3518,-1.5682,-1.8002,-2.0752,-2.2928,-2.4181,-2.4239,-2.3108,-2.2063,-2.1314,-1.9415,-1.7898,-1.6969,-1.715,-1.8329,-2.0552,-2.0677,-2.1043,-2.1737,-2.25,-2.2568,-2.1962,-2.2634,-2.2798,-2.2673,-2.2685,-2.2821,-2.2933,-2.2246,-2.1962,-2.172,-1.9391,-1.7721,-1.6451,0.0,0.0,0.0,0.0,0.0,0.0,0.0,0.0,0.0,0.0,0.0,0.0,0.0,0.0,0.0,0.0,0.0,0.0,0.0,0.0,0.0,0.0,0.0,0.0,0.0,0.0,0.0,0.0,0.0,0.0,0.0,0.0,0.0,-0.9265,-0.9985,-1.0415,-1.0379,-0.9545,-0.9076,-0.962,-0.9104,-0.8832,-0.8828,-0.8999,-0.9108,-0.9104,-0.9092,-0.9169,-0.9444,-0.9452,-0.9718,-1.0277,-1.0091,-1.0186,-1.0577,-1.0589,-1.0594,-1.0598,-1.1115,-1.0906,-1.012,-1.0309,-0.9985,-0.9301,-0.9217,-0.9488,-0.9856,-1.0543,-1.0774,-1.0774,-1.1121,-1.124,-1.1236,-0.83,-0.839,-0.8393,-0.7982,-0.7997,-0.8297,-0.8973,-0.9379,-1.0382,-1.2484,-1.5652,-1.8399,-2.0242,-2.2613,-2.4307,-2.4925,-2.4533,-2.3804,-2.2738,-2.1606,-2.0012,-1.7925,-1.8631,-1.9471,-2.0345,-2.1329,-2.2043,-2.2623,-2.2743,-2.2811,-2.287,-2.2931,-2.2933,-2.2889,-2.2753,-2.2821,-2.298,-2.2995,-2.2604,-2.1904,-2.1571,-2.0511,-1.8927,0.0,0.0,0.0,0.0,0.0,0.0,0.0,0.0,0.0,0.0,0.0,0.0,0.0,0.0,0.0,0.0,0.0,0.0,0.0,0.0,0.0,0.0,0.0,0.0,0.0,0.0,0.0,0.0,0.0,0.0,0.0,0.0,-0.9865,-1.0401,-0.996,-0.9817,-1.0448,-1.0023,-0.9818,-1.0283,-0.9877,-0.9716,-1.0136,-0.9652,-0.9473,-0.9849,-0.9402,-0.9216,-0.9627,-0.9644,-0.9761,-1.0091,-1.0157,-1.0215,-1.0268,-1.0958,-1.1302,-1.1315,-1.2206,-1.2464,-1.2123,-1.1651,-1.1293,-1.1097,-1.0532,-1.0375,-1.0524,-1.0295,-1.0369,-1.0616,-1.1086,-1.1379,-1.1569,-0.8493,-0.8579,-0.8595,-0.82,-0.8256,-0.8655,-0.9561,-0.9982,-1.1116,-1.3687,-1.6419,-1.8879,-2.0865,-2.2882,-2.4277,-2.4802,-2.4732,-2.4109,-2.2821,-2.1924,-2.0978,-2.0075,-2.0383,-2.0702,-2.1067,-2.2055,-2.2666,-2.2891,-2.3245,-2.3549,-2.3668,-2.38,-2.3837,-2.3861,-2.3665,-2.3479,-2.3282,-2.3444,-2.3167,-2.2593,-2.288,-2.1728,-1.9795,-1.9783,-1.8193,-1.6044,-1.6492,-1.6149,-1.5445,-1.4964,0.0,0.0,0.0,0.0,0.0,0.0,0.0,0.0,0.0,0.0,0.0,0.0,0.0,0.0,0.0,0.0,0.0,0.0,0.0,0.0,0.0,0.0,0.0,0.0,-0.9475,-1.011,-1.099,-1.0424,-1.0093,-1.06,-1.0491,-1.0513,-1.0905,-1.066,-1.0614,-1.1063,-1.0672,-1.0483,-1.0479,-1.0074,-0.9883,-0.985,-0.9912,-1.0012,-1.0337,-1.0302,-1.0457,-1.0932,-1.1476,-1.1846,-1.2046,-1.2822,-1.3011,0.0,-1.2064,-1.1655,-1.1322,-1.0703,-1.0425,0.0,0.0,0.0,0.0,0.0,-1.1647,-1.1732,-0.8691,-0.8778,-0.88,-0.8409,-0.8526,-0.9078,-1.0287,-1.0511,-1.1955,-1.591,-1.7508,-1.9287,-2.1993,-2.3498,-2.4258,-2.4223,-2.4094,-2.3488,-2.2091,-2.1099,-2.1129,-2.2392,-2.1941,-2.1815,-2.2223,-2.2766,-2.2951,-2.2905,-2.3982,-2.4486,-2.4431,-2.4873,-2.5087,-2.5087,-2.4909,-2.4507,-2.3851,-2.384,-2.3688,-2.3442,-2.3442,-2.2111,-2.0162,-2.013,-1.9354,-1.8172,-1.7772,-1.7452,-1.7063,-1.6326,0.0,0.0,0.0,0.0,0.0,0.0,0.0,0.0,0.0,0.0,0.0,0.0,0.0,0.0,0.0,0.0,0.0,0.0,0.0,0.0,0.0,0.0,0.0,0.0,-0.975,-0.981,-1.1136,-1.1242,-1.1046,-1.0871,-1.1023,-1.1288,-1.1468,-1.1461,-1.1558,-1.1793,-1.1825,-1.1638,-1.1097,0.0,0.0,0.0,0.0,-1.0385,-1.0777,-1.0632,-1.0992,-1.1902,-1.2037,-1.2248,-1.2643,-1.3208,-1.3117,-1.251,-1.2068,-1.1488,-1.0858,-1.0133,-0.9822,-0.9822,-1.0547,-1.091,-1.1269,-1.1583,-1.1723,-1.1768,-0.893,-0.8959,-0.8897,-0.8655,-0.8624,-0.9117,-1.0573,-1.0415,-1.1668,-1.6013,-1.7435,-1.9086,-2.1782,-2.3804,-2.4805,-2.4269,-2.3982,-2.3165,-2.1571,-2.0782,-2.0697,-2.1459,-2.1725,-2.2061,-2.2519,-2.2829,-2.3388,-2.4138,-2.4558,-2.4966,-2.5378,-2.5639,-2.5606,-2.5465,-2.5324,-2.5052,-2.4815,-2.4625,-2.4319,-2.3839,-2.37,-2.334,-2.2889,-2.2315,-2.1516,-2.0764,-2.1225,-2.1124,-2.0582,-1.9829,-1.8759,-1.7609,-1.6965,-1.529,0.0,0.0,0.0,0.0,0.0,0.0,0.0,0.0,0.0,0.0,0.0,0.0,0.0,0.0,0.0,0.0,0.0,0.0,0.0,-1.0148,-1.0315,-1.0543,-1.0845,-1.1421,-1.1827,-1.1492,-1.19,-1.2175,-1.2186,-1.2263,-1.2442,-1.283,-1.1949,-1.1462,-1.162,-1.069,-1.0162,-1.0146,-1.0217,-1.0484,-1.1177,-1.1232,-1.153,-1.2095,0.0,0.0,-1.2862,-1.3419,-1.3566,-1.3339,-1.2294,-1.1699,-1.1491,-1.0269,-0.9822,-0.9819,-1.0183,-1.0547,-1.0861,-1.0817,-1.1168,-1.1715,-0.9056,-0.9024,-0.8981,-0.888,-0.8766,-0.9205,-1.0722,-1.0543,-1.1411,-1.4632,-1.5906,-1.7425,-1.9752,-2.1227,-2.2306,-2.292,-2.2765,-2.2731,-2.3034,-2.2166,-2.188,-2.2403,-2.2592,-2.2658,-2.258,-2.3147,-2.3815,-2.4667,-2.5002,-2.542,-2.5758,-2.5828,-2.5758,-2.5606,-2.5606,-2.5394,-2.5123,-2.5052,-2.4826,-2.439,-2.4308,-2.4248,-2.4202,-2.3456,-2.3071,-2.2815,-2.2838,-2.2628,-2.2261,-2.1425,-2.047,-1.9629,-1.9284,-1.8111,-1.6568,0.0,0.0,0.0,0.0,0.0,0.0,0.0,0.0,0.0,0.0,0.0,0.0,0.0,0.0,-1.0322,0.0,0.0,-0.9813,-1.0179,-1.0361,-1.072,-1.1354,-1.1895,-1.2203,-1.2107,-1.2402,-1.273,-1.3063,-1.3096,-1.3231,-1.3647,-1.2805,-1.2238,-1.2134,-1.1199,-1.0634,-1.0339,-1.041,-1.0763,-1.1291,-1.1343,-1.1781,-1.253,-1.275,-1.3085,-1.33,-1.3522,-1.3688,-1.3688,-1.2719,-1.2118,-1.1756,-1.0304,-0.9822,-0.9819,-1.0183,-1.0547,-1.088,-1.1114,-1.1426,-1.174,-0.9088,-0.9035,-0.9002,-0.8968,-0.888,-0.9292,-1.0722,-1.0652,-1.1256,-1.3546,-1.4523,-1.5755,-1.7728,-1.8634,-1.9778,-2.1437,-2.1489,-2.2175,-2.3995,-2.3565,-2.3307,-2.3325,-2.3532,-2.3386,-2.2702,-2.3478,-2.4195,-2.4893,-2.5317,-2.5676,-2.591,-2.591,-2.5828,-2.5688,-2.591,-2.57,-2.5265,-2.5324,-2.5182,-2.4933,-2.4861,-2.4861,-2.4802,-2.4038,-2.3908,-2.3973,-2.3199,-2.2858,-2.2635,-2.1966,-2.1348,-2.0926,-2.1083,-2.0658,-1.9571,-1.7289,-1.7025,0.0,0.0,0.0,0.0,0.0,0.0,0.0,0.0,0.0,-1.1968,-1.2683,-1.1618,-1.0654,-1.0941,-1.0393,-1.0084,-1.0852,-1.0883,-1.1092,-1.1932,-1.2362,-1.2634,-1.2531,-1.2811,-1.3157,-1.3631,-1.3642,-1.376,-1.4094,-1.3619,-1.2989,-1.2436,-1.1896,-1.1333,-1.0636,-1.0812,-1.1042,-1.1624,-1.1711,-1.2153,-1.2972,-1.2972,-1.3291,-1.3569,-1.3688,-1.3712,-1.375,-1.2902,-1.2172,-1.1566,-1.0318,-0.9822,-0.9819,-1.0183,-1.0425,-1.0789,-1.1405,-1.1651,-1.1651,-0.9013,-0.9002,-0.8953,-0.8841,-0.8852,-0.9304,-1.0549,-1.0447,-1.1368,-1.4587,-1.4864,-1.5488,-1.7439,-1.8921,-2.0074,-2.0828,-2.1262,-2.1562,-2.1664,-2.3283,-2.3593,-2.2085,-2.3519,-2.393,-2.2957,-2.3774,-2.4487,-2.5228,-2.5276,-2.5535,-2.591,-2.591,-2.598,-2.6131,-2.6131,-2.605,-2.5828,-2.5618,-2.5535,-2.5465,-2.5194,-2.5052,-2.4992,-2.4248,-2.3628,-2.3056,-2.2163,-2.1839,-2.1843,-2.1898,-2.1463,-2.0933,-2.0948,-2.042,-1.9757,-1.9264,-1.8885,-1.8219,-1.6516,-1.4305,0.0,-1.2173,-1.2503,-1.3055,0.0,0.0,-1.5838,-1.4545,-1.42,-1.4152,-1.4334,-1.2783,-1.1871,-1.301,-1.282,-1.2467,-1.2115,-1.2797,-1.3265,-1.3066,-1.3443,-1.3566,-1.3217,-1.375,-1.4046,-1.3873,-1.3526,-1.2989,-1.2436,-1.1896,-1.152,-1.1317,-1.1363,-1.1759,-1.266,-1.2709,-1.284,-1.3172,-1.3416,-1.3545,-1.3324,-1.3569,-1.3792,-1.3854,-1.2742,-1.1757,-1.1125,-1.0121,-0.9822,-0.9819,-1.0183,-1.0304,-1.0425,-1.0789,-1.1152,-1.1394,-0.9002,-0.8998,-0.8953,-0.8834,-0.8829,-0.9255,-1.0519,-1.043,-1.0952,-1.3061,-1.3103,-1.3595,-1.5261,-1.7059,-1.815,-1.8061,-1.9361,-2.0505,-2.1267,-2.2844,-2.3477,-2.2896,-2.3892,-2.4075,-2.3251,-2.3592,-2.4153,-2.5091,-2.4893,-2.5081,-2.5535,-2.5758,-2.591,-2.584,-2.6188,-2.6188,-2.5898,-2.5828,-2.5606,-2.5382,-2.5241,-2.5123,-2.4862,-2.4248,-2.3593,-2.2849,-2.1647,-2.1351,0.0,-2.0996,-2.0746,-2.0659,-2.1163,-2.0795,-2.0076,-1.9971,-1.916,-1.808,-1.6789,0.0,0.0,0.0,-1.5027,-1.537,-1.5901,-1.6135,-1.6089,-1.5717,-1.5211,-1.4699,-1.4467,-1.3392,-1.278,0.0,-1.274,-1.2553,-1.284,-1.3084,-1.3257,-1.3303,-1.3373,-1.3324,-1.3125,-1.3636,-1.3879,-1.3636,-1.3438,-1.3207,-1.2985,-1.2114,-1.1661,-1.1975,-1.153,-1.1824,-1.2912,-1.2917,-1.3072,-1.3387,-1.3751,-1.3817,-1.3551,-1.3929,-1.4099,-1.4056,-1.2696,-1.1909,-1.1522,-1.0372,-0.9822,-0.9822,-0.9943,-1.0239,-1.0555,-1.0948,-1.1217,-1.1425,-0.9009,-0.8987,-0.8942,-0.8851,-0.8834,-0.9164,-1.0167,-1.032,-1.0702,-1.1688,-1.1839,-1.2342,-1.3554,-1.4845,-1.5725,-1.5996,-1.7768,-1.9594,-2.1259,-2.2628,-2.3555,-2.3932,-2.4455,-2.4474,-2.3941,-2.4077,-2.4493,-2.509,-2.4806,-2.4822,-2.5168,-2.5534,-2.5677,-2.5664,-2.6239,-2.6314,-2.6037,-2.575,-2.5554,-2.5523,-2.5226,-2.4979,-2.472,-2.4105,-2.3273,-2.2374,-2.1237,-2.0925,-2.089,-1.9981,-1.9991,-2.0427,-2.0735,-2.0618,-2.0389,-2.0389,-1.9352,-1.8036,-1.7124,0.0,0.0,-1.6367,-1.6536,-1.6657,-1.7042,-1.6573,-1.6211,-1.6766,-1.5959,-1.5227,-1.5178,-1.434,-1.3661,-1.3496,-1.3044,-1.2817,-1.3396,-1.3368,-1.335,-1.3362,-1.3276,-1.3104,-1.284,-1.3367,-1.3712,-1.368,-1.3565,-1.3428,-1.3315,-1.2602,-1.2294,-1.2613,-1.2384,-1.2467,-1.3231,-1.3347,-1.3402,-1.3514,-1.3943,-1.3918,-1.3806,-1.4243,-1.4402,-1.4262,-1.2807,-1.2229,-1.2085,-1.0512,-0.9846,-1.0005,-1.0005,-1.0348,-1.0849,-1.1218,-1.1499,-1.1608,-0.8993,-0.8947,-0.8891,-0.8891,-0.8891,-0.9005,-0.9302,-1.0109,-1.0849,-1.1268,-1.1878,-1.253,-1.3142,-1.2694,-1.3275,-1.5602,-1.7228,-1.9118,-2.1436,-2.2864,-2.3955,-2.4825,-2.5365,-2.5531,-2.526,-2.5794,-2.594,-2.5608,-2.5243,-2.4975,-2.4818,-2.5012,-2.5314,-2.5649,-2.6214,-2.6465,-2.6427,-2.5357,-2.5375,-2.6094,-2.5071,-2.4715,-2.4711,-2.3843,-2.2555,-2.12,-2.0862,-2.0451,-1.9982,-1.8806,-1.9424,-2.0385,-1.9081,-1.9571,-2.061,-2.061,-1.9792,-1.876,-1.8119,0.0,-1.5194,-1.5557,-1.5739,-1.5908,-1.6268,-1.6644,-1.7056,-1.7797,-1.6934,-1.6472,-1.7833,-1.626,-1.4896,-1.5295,-1.4459,-1.3796,-1.3568,-1.3724,-1.3689,-1.3141,-1.3324,-1.3104,0.0,-1.2937,-1.368,-1.4137,-1.4186,-1.3975,-1.3315,-1.3517,-1.3623,-1.3507,-1.3908,-1.4138,-1.4162,-1.4578,-1.4318,-1.3519,-1.4084,-1.4177,-1.3811,-1.4402,-1.4624,-1.4482,-1.2999,-1.241,-1.2255,-1.0555,-1.0155,-1.0539,-1.0539,-1.0889,-1.1285,-1.166,-1.1787,-1.1791,-0.967,-0.9292,-0.8964,-0.8919,-0.8891,-0.8908,-0.8911,-0.9552,-1.0198,-1.0634,-1.1365,0.0,0.0,0.0,0.0,0.0,-1.5666,-1.7364,-1.8398,-2.1069,-2.285,-2.3421,-2.4916,-2.543,-2.4895,-2.5396,-2.5367,-2.4697,-2.4839,-2.4822,-2.473,-2.4931,-2.5018,-2.5096,-2.535,-2.5627,-2.5875,-2.5376,-2.5487,-2.5943,-2.5252,-2.4815,-2.4418,-2.2711,-2.139,-2.0287,0.0,-1.7821,-1.7972,-1.7128,-1.7451,-1.8171,-1.8014,-1.813,-1.8279,-1.8022,-1.8536,-1.8879,-1.7286,0.0,-1.644,-1.6323,-1.6563,-1.6785,-1.7017,-1.7283,-1.7674,-1.817,-1.7865,-1.7678,-1.7992,-1.6492,-1.5142,-1.5244,-1.382,-1.2923,-1.3796,-1.3263,-1.2954,-1.3723,-1.334,0.0,0.0,0.0,0.0,-1.3254,-1.3836,-1.4152,-1.4077,-1.3825,-1.3928,-1.4305,-1.4108,-1.4084,-1.4377,-1.4387,-1.4199,-1.3915,-1.424,-1.4461,-1.4594,-1.4669,-1.4832,-1.4683,-1.3059,-1.2418,-1.2272,-1.0922,-1.05,-1.0681,-1.0915,-1.1434,-1.1834,-1.1962,-1.2165,-1.2511,0.0,-0.9889,-0.9463,-0.9678,-0.9508,0.0,0.0,0.0,0.0,0.0,0.0,0.0,0.0,0.0,0.0,0.0,0.0,-1.5967,-1.7334,-1.9244,-2.0933,-2.2394,-2.3626,-2.4151,-2.39,-2.4626,-2.492,-2.471,-2.4563,-2.4721,-2.5024,-2.4811,-2.4646,-2.4595,-2.4848,-2.5126,-2.531,-2.4859,-2.5407,-2.654,-2.4686,-2.421,-2.431,-2.1643,-1.9841,0.0,-1.6573,-1.595,-1.5926,-1.5404,-1.5928,-1.6786,-1.6617,-1.6904,-1.7347,-1.7777,-1.8306,-1.8491,0.0,-1.7031,-1.6936,-1.6801,-1.6927,-1.7146,-1.7406,-1.7539,-1.7796,-1.8533,-1.8701,-1.8522,-1.8017,-1.6895,-1.595,-1.5662,-1.4429,-1.3916,-1.4778,-1.4172,-1.3664,-1.3941,-1.3394,-1.3195,0.0,0.0,0.0,-1.3039,-1.3588,-1.404,-1.4266,-1.403,-1.4254,-1.512,-1.4703,-1.4646,-1.4729,-1.4627,-1.4476,-1.4249,-1.4442,-1.467,-1.4931,-1.4725,-1.4571,-1.4224,-1.2901,-1.225,-1.2008,-1.1162,-1.0864,-1.1229,-1.1464,-1.1865,-1.2401,-1.2401,-1.2604,-1.282,0.0,0.0,-1.0386,0.0,0.0,0.0,0.0,0.0,0.0,0.0,0.0,0.0,0.0,0.0,0.0,0.0,0.0,0.0,-1.7955,-1.756,0.0,-2.1675,-2.1762,-2.1949,-2.242,-2.3555,-2.4549,-2.5379,-2.4368,-2.4381,-2.5405,-2.4468,-2.4022,-2.3961,-2.4545,-2.4735,-2.4494,-2.3678,-2.5021,-2.7285,-2.3269,-2.2798,-2.4104,-2.0471,-1.7873,-1.6095,-1.5716,-1.485,-1.3915,-1.3668,-1.483,-1.6207,-1.5198,-1.6054,-1.7796,-1.9549,-1.8972,-1.7796,-1.8339,-1.7697,-1.686,-1.6866,-1.69,-1.6982,-1.7279,-1.737,-1.7697,-1.8971,-1.9252,-1.8891,0.0,0.0,-1.7017,-1.6454,-1.6253,-1.6111,-1.6051,-1.6011,-1.5475,0.0,0.0,0.0,0.0,0.0,0.0,-1.348,0.0,-1.3631,-1.3863,-1.4121,-1.4681,-1.5585,-1.5697,-1.5582,-1.4998,-1.5046,-1.4875,-1.4638,-1.4827,-1.4917,-1.4782,-1.4318,-1.3788,-1.325,-1.2462,-1.1975,-1.1565,-1.1302,-1.1503,-1.2177,-1.2185,-1.2421,-1.2836,-1.2836,-1.2836,-1.2836,0.0,0.0,0.0,0.0,0.0,0.0,0.0,0.0,0.0,0.0,0.0,0.0,0.0,0.0,0.0,0.0,0.0,0.0,-1.4774,-1.7097,0.0,0.0,0.0,0.0,0.0,0.0,0.0,-2.1226,-2.148,-2.1531,-2.1383,-2.164,-2.1394,-2.0752,-2.1809,-2.176,-2.0819,-2.1034,-2.1415,-2.1718,0.0,-1.9967,-2.0132,0.0,0.0,-1.5401,-1.4055,-1.3336,-1.3057,-1.3185,-1.3933,-1.5121,-1.7019,-1.7779,-1.7966,-1.8276,-1.8585,-1.8655,-1.7725,-1.761,-1.7656,-1.7031,-1.7266,-1.7629,-1.7853,-1.787,-1.8009,-1.8238,-1.7591,-1.6912,0.0,0.0,0.0,-1.5454,-1.3736,0.0,-1.4441,-1.4011,0.0,-1.401,0.0,-1.3762,-1.3809,-1.3938,0.0,0.0,-1.3965,-1.4369,-1.46,-1.5009,-1.5429,-1.5844,-1.5776,-1.5649,-1.5221,-1.4872,-1.4633,-1.4633,-1.4424,-1.4318,-1.4313,-1.3975,-1.3672,-1.3407,-1.3082,-1.2798,-1.2482,-1.2333,-1.2355,-1.2447,-1.2584,-1.2664,-1.2836,-1.2836,-1.2836,-1.2836,0.0,0.0,0.0,0.0,0.0,0.0,0.0,0.0,0.0,0.0,0.0,0.0,0.0,0.0,0.0,0.0,0.0,0.0,0.0,-1.5559,0.0,0.0,0.0,0.0,0.0,0.0,0.0,0.0,0.0,0.0,-2.0259,-2.039,-2.0155,-1.9615,-2.0324,-2.0201,-1.9441,-1.9577,0.0,0.0,0.0,0.0,0.0,0.0,0.0,0.0,0.0,0.0,0.0,0.0,0.0,-1.4805,-1.8293,-1.8753,-1.806,-1.8751,0.0,-1.8616,-1.7988,-1.7743,-1.7642,-1.7324,-1.7623,-1.7948,-1.7849,-1.7901,-1.7877,-1.7751,-1.7178,0.0,-1.6176,0.0,0.0,0.0,0.0,0.0,-1.4797,-1.4496,-1.4088,0.0,-1.3879,0.0,-1.4148,-1.4196,-1.4083,0.0,-1.4056,-1.4369,-1.4713,-1.5085,-1.5467,-1.5866,-1.5768,-1.5453,-1.4949,-1.4473,-1.4233,-1.4233,-1.3852,-1.3721,-1.3721,-1.3394,-1.3208,-1.3057,0.0,-1.288,-1.2704,-1.2808,-1.2742,-1.2694,-1.2795,-1.2836,-1.2836,-1.2836,-1.2836,-1.2836,0.0,0.0,0.0,0.0,0.0,0.0,0.0,0.0,0.0,0.0,0.0,0.0,0.0,0.0,0.0,0.0,0.0,0.0,0.0,0.0,0.0,0.0,0.0,0.0,0.0,0.0,0.0,0.0,0.0,0.0,0.0,0.0,0.0,0.0,0.0,0.0,0.0,0.0,0.0,0.0,0.0,0.0,0.0,0.0,0.0,0.0,0.0,0.0,0.0,0.0,-1.5904,-1.5049,-1.9094,-1.9244,-1.8209,-1.9706,-1.914,-1.8143,-1.8423,-1.7896,-1.7353,-1.7782,-1.8028,-1.8147,-1.7786,-1.7695,-1.7562,-1.7305,0.0,-1.6484,-1.5508,-1.5013,-1.4972,-1.5715,0.0,-1.533,-1.5629,-1.5668,-1.5373,-1.4418,-1.3925,-1.3767,-1.4358,-1.4239,-1.4137,-1.4229,-1.4099,-1.4191,-1.4606,-1.4945,-1.525,-1.5528,-1.5533,-1.5135,-1.4501,-1.4037,-1.3676,-1.3676,-1.3398,-1.3264,-1.3385,-1.2824,-1.2569,-1.2425,0.0,0.0,-1.239,-1.2906,-1.3085,-1.2836,-1.2704,-1.2704,-1.2836,-1.2704,-1.2704,-1.2836,0.0,0.0,0.0,0.0,0.0,0.0,0.0,0.0,0.0,0.0,-1.4424,-1.3782,0.0,0.0,0.0,0.0,0.0,0.0,0.0,0.0,0.0,0.0,0.0,0.0,0.0,0.0,0.0,0.0,0.0,0.0,0.0,0.0,0.0,0.0,0.0,0.0,0.0,0.0,0.0,0.0,0.0,0.0,0.0,0.0,0.0,0.0,0.0,0.0,0.0,-1.5544,-1.581,-1.5784,-1.919,-1.9461,-1.8466,-1.8088,-1.8185,-1.8216,-1.7539,-1.7539,-1.7791,-1.8201,-1.8597,-1.8807,-1.873,-1.8045,0.0,0.0,-1.4883,-1.3916,-1.4746,-1.3913,-1.3417,-1.4487,-1.3881,-1.3345,-1.3254,-1.3598,-1.4298,0.0,-1.4382,-1.4263,-1.55,-1.4449,0.0,0.0,0.0,-1.5036,-1.5122,-1.5908,-1.6155,-1.5509,-1.5085,-1.4487,-1.3727,-1.3527,-1.3425,-1.3429,-1.3021,-1.2824,-1.3062,-1.2743,-1.2461,-1.2196,-1.3154,0.0,-1.257,-1.3085,-1.3337,-1.3235,-1.2572,-1.2572,-1.2704,-1.2441,-1.2572,-1.2836,0.0,0.0,0.0,0.0,0.0,0.0,0.0,-1.6652,-1.7164,-1.7939,-1.7696,-1.6703,-1.4673,-1.4362,-1.3949,0.0,0.0,0.0,0.0,0.0,0.0,0.0,0.0,0.0,0.0,0.0,0.0,0.0,0.0,0.0,0.0,0.0,0.0,0.0,0.0,0.0,0.0,0.0,0.0,0.0,0.0,0.0,0.0,0.0,0.0,0.0,0.0,0.0,0.0,0.0,-1.5532,-1.544,-1.844,-1.8987,-1.8385,-1.7567,-1.7834,-1.8276,-1.7892,-1.7863,-1.8165,-1.8872,-1.8936,-1.8562,-1.7542,0.0,0.0,0.0,-1.3076,-1.243,-1.3047,-1.2512,0.0,-1.3712,-1.3863,-1.3964,-1.4487,-1.4932,-1.5444,-1.6372,-1.512,-1.4624,0.0,-1.4321,0.0,0.0,0.0,-1.5225,-1.5596,-1.5768,-1.5734,-1.5574,-1.4465,-1.3722,-1.3598,-1.3178,-1.2906,-1.303,-1.2475,-1.2264,-1.2382,-1.2401,-1.239,-1.217,-1.3005,0.0,-1.2312,-1.2816,-1.2934,-1.2702,-1.2596,-1.2704,-1.2836,-1.2572,-1.2704,-1.2836,0.0,0.0,0.0,0.0,0.0,0.0,0.0,-1.8151,-1.875,-2.013,-2.0277,-1.9256,-1.6534,-1.6088,-1.5486,0.0,0.0,0.0,0.0,0.0,0.0,0.0,0.0,0.0,0.0,0.0,0.0,0.0,0.0,0.0,0.0,0.0,0.0,0.0,0.0,0.0,0.0,0.0,0.0,0.0,0.0,0.0,0.0,0.0,0.0,0.0,0.0,0.0,0.0,0.0,-1.5222,-1.516,-1.7319,-1.7946,-1.7834,-1.7351,-1.7638,-1.8171,-1.8233,-1.8223,-1.8389,-1.9297,-1.9155,-1.8404,-1.6622,-1.5894,0.0,-1.2813,-1.1797,-1.141,-1.1694,-1.1695,-1.2079,0.0,-1.409,-1.4844,-1.583,-1.6139,-1.6526,0.0,-1.581,0.0,-1.5623,-1.4344,0.0,0.0,0.0,0.0,-1.6017,-1.543,-1.5057,-1.5183,-1.382,-1.3191,-1.3281,-1.282,-1.2509,-1.2471,-1.208,-1.1893,-1.2014,-1.2122,-1.2314,-1.2414,-1.254,0.0,0.0,-1.2483,-1.2391,-1.1961,-1.2366,-1.2572,-1.2704,-1.2704,-1.2704,-1.2836,0.0,0.0,0.0,0.0,0.0,0.0,0.0,-1.8618,-1.9373,-2.0182,-2.0269,-1.9828,-1.8784,-1.802,-1.6699,0.0,0.0,0.0,0.0,0.0,0.0,0.0,0.0,0.0,0.0,0.0,0.0,0.0,0.0,0.0,0.0,0.0,0.0,0.0,0.0,0.0,0.0,0.0,0.0,0.0,0.0,0.0,0.0,0.0,0.0,0.0,0.0,0.0,0.0,0.0,0.0,-1.5785,-1.5933,-1.6168,-1.6541,-1.7435,0.0,0.0,-1.7716,-1.807,-1.8453,-1.8966,-1.9146,-1.8928,-1.781,0.0,-1.4697,-1.3143,-1.1533,-1.0762,-1.1953,-1.2359,0.0,0.0,-1.3814,-1.4122,-1.453,-1.475,-1.5706,-1.7864,0.0,0.0,-1.718,-1.5056,0.0,0.0,0.0,0.0,-1.5982,-1.5674,-1.5052,-1.4137,-1.3436,-1.2875,-1.2459,-1.213,-1.1951,-1.1922,-1.2014,-1.2359,-1.2603,-1.2359,-1.2314,-1.2662,-1.2426,0.0,0.0,-1.2094,-1.2001,-1.1584,-1.1846,-1.2045,-1.2309,-1.2309,-1.2572,-1.2836,0.0,0.0,0.0,0.0,0.0,0.0,-1.9075,-1.9734,-2.0347,-2.1533,-2.1678,-2.1319,-2.0475,-1.9702,-1.8104,-1.5275,0.0,0.0,0.0,0.0,0.0,0.0,0.0,0.0,0.0,0.0,0.0,0.0,0.0,0.0,0.0,0.0,0.0,0.0,0.0,0.0,0.0,0.0,0.0,0.0,0.0,0.0,0.0,0.0,0.0,0.0,0.0,0.0,0.0,0.0,0.0,0.0,-1.5602,-1.5513,0.0,0.0,-1.7476,-1.8369,-1.8004,-1.8451,-1.9042,-1.9364,-1.9061,-1.8216,-1.6233,0.0,-1.4064,-1.1692,-1.0639,-1.0321,-1.0833,-1.1286,-1.1845,-1.2782,-1.3793,-1.4941,-1.6249,-1.6995,-1.8034,-1.9719,-1.8275,0.0,0.0,0.0,0.0,0.0,0.0,0.0,-1.5284,-1.5192,-1.4796,-1.3875,-1.3071,-1.2504,-1.2308,-1.2024,-1.1845,-1.1776,-1.2122,-1.2118,-1.1877,-1.2113,-1.2073,-1.1917,-1.1925,0.0,0.0,-1.1966,-1.1945,-1.1391,-1.2114,-1.2441,-1.2584,-1.2688,-1.2857,-1.3007,0.0,0.0,0.0,0.0,0.0,-1.6767,-1.9654,-2.0257,-2.0852,-2.2134,-2.2459,-2.2106,-2.0832,-2.0169,-1.867,-1.5789,-1.4713,0.0,0.0,0.0,0.0,0.0,0.0,0.0,0.0,0.0,0.0,0.0,0.0,0.0,0.0,0.0,0.0,0.0,0.0,0.0,0.0,0.0,0.0,0.0,0.0,0.0,0.0,0.0,0.0,0.0,0.0,0.0,0.0,0.0,0.0,-1.3394,-1.4931,-1.5112,-1.4951,-1.5998,-1.7431,-1.8637,-1.8121,-1.8547,-1.925,-1.9535,-1.8739,-1.7398,0.0,0.0,-1.3198,-1.082,-1.0244,-1.0157,-1.0157,-1.0504,-1.1133,-1.2205,-1.3551,-1.5084,-1.6929,-1.8009,-1.9089,-2.056,0.0,0.0,0.0,0.0,0.0,0.0,0.0,0.0,0.0,-1.5091,-1.46,-1.3617,-1.2747,-1.2308,-1.2308,-1.1955,-1.1776,-1.1776,-1.2001,-1.179,-1.1288,-1.1563,-1.1622,-1.1332,0.0,0.0,0.0,-1.1814,-1.1787,-1.1201,-1.2274,-1.2781,-1.2801,-1.3112,-1.3173,-1.3193,0.0,0.0,0.0,0.0,0.0,0.0,-1.8947,-1.9929,-2.0687,-2.1505,-2.2133,-2.166,-1.9452,-1.9022,-1.8014,-1.5781,-1.4735,0.0,0.0,0.0,0.0,0.0,0.0,0.0,0.0,0.0,0.0,-1.3173,0.0,0.0,0.0,0.0,0.0,0.0,0.0,0.0,0.0,0.0,0.0,0.0,0.0,0.0,0.0,0.0,0.0,0.0,0.0,0.0,0.0,0.0,0.0,0.0,0.0,-1.4712,-1.6125,-1.6973,-1.7313,-1.75,-1.7725,-1.836,-1.9036,-1.9231,-1.8076,-1.6749,0.0,0.0,-1.2111,-1.1087,-1.0576,-1.0283,-1.0283,-1.0504,-1.107,-1.2205,-1.3138,-1.4154,-1.5419,-1.6506,-1.7925,0.0,0.0,0.0,0.0,0.0,0.0,0.0,0.0,0.0,0.0,-1.5493,-1.47,-1.2828,-1.2491,-1.2308,-1.2308,-1.1955,-1.1776,-1.1776,-1.1764,-1.1593,-1.1093,-1.0921,-1.1067,0.0,0.0,0.0,0.0,-1.1701,-1.1486,-1.1098,-1.2153,-1.2554,-1.2708,-1.3162,-1.3368,-1.3368,0.0,0.0,0.0,0.0,0.0,0.0,0.0,-1.8336,-1.8881,-1.9053,-1.9246,-1.9062,-1.8319,-1.7737,-1.7122,-1.6411,-1.4605,0.0,0.0,0.0,0.0,0.0,0.0,0.0,0.0,0.0,-1.3687,-1.367,-1.3964,-1.3924,-1.3591,0.0,0.0,0.0,0.0,0.0,0.0,0.0,0.0,0.0,0.0,0.0,0.0,0.0,0.0,0.0,0.0,0.0,0.0,0.0,0.0,0.0,0.0,0.0,0.0,-1.5064,-1.6378,-1.7579,-1.7254,-1.7409,-1.7589,-1.7007,-1.6186,-1.5172,-1.347,-1.2607,-1.1859,-1.062,-1.0253,-1.0157,-1.0157,-1.0233,-1.0937,-1.2921,-1.3662,-1.498,0.0,0.0,0.0,-2.1174,-1.9236,0.0,0.0,0.0,0.0,0.0,0.0,0.0,0.0,-1.435,-1.369,-1.373,-1.3479,-1.2978,-1.2117,-1.189,-1.1893,-1.2122,-1.1881,-1.1476,-1.0747,-1.0802,0.0,0.0,0.0,0.0,0.0,-1.1965,-1.1945,-1.1645,-1.26,-1.3038,-1.3166,-1.349,-1.3559,-1.3575,0.0,0.0,0.0,0.0,0.0,0.0,0.0,-1.7253,-1.8113,-1.8027,-1.8205,-1.8126,-1.7521,-1.677,-1.6153,-1.5863,-1.395,0.0,0.0,0.0,0.0,0.0,0.0,0.0,0.0,-1.3806,-1.4202,-1.4645,-1.4981,-1.5158,-1.5135,-1.5135,-1.4868,0.0,0.0,0.0,0.0,0.0,0.0,0.0,0.0,0.0,-0.9736,0.0,0.0,0.0,0.0,0.0,0.0,0.0,0.0,0.0,0.0,0.0,0.0,0.0,-1.5171,-1.647,-1.6356,-1.6367,-1.6277,-1.5906,-1.4749,-1.344,-1.2347,-1.1636,-1.1003,-1.0242,-1.0502,-1.0736,-1.0253,-1.0688,-1.1458,-1.2525,-1.3765,-1.5232,0.0,0.0,0.0,-2.0129,0.0,0.0,0.0,0.0,0.0,0.0,0.0,0.0,0.0,-1.401,-1.351,-1.4056,-1.3509,-1.2837,-1.2028,-1.1861,-1.1768,-1.1877,-1.1514,-1.1004,-1.0179,-1.0324,0.0,0.0,0.0,0.0,0.0,-1.198,-1.2014,-1.1996,-1.2986,-1.3372,-1.3494,-1.3677,-1.3742,-1.3754,0.0,0.0,0.0,0.0,0.0,0.0,0.0,-1.6379,-1.7759,-1.7707,-1.8168,-1.8039,-1.6727,-1.5843,-1.5086,-1.4389,0.0,0.0,0.0,0.0,0.0,0.0,0.0,0.0,0.0,-1.4286,-1.5112,-1.6019,-1.6698,-1.7271,-1.7697,-1.7697,-1.704,-1.5846,-1.5742,-1.4515,-1.2449,0.0,0.0,0.0,0.0,-1.0135,0.0,0.0,0.0,0.0,0.0,0.0,0.0,0.0,0.0,0.0,0.0,0.0,0.0,0.0,0.0,0.0,0.0,-1.5145,-1.5158,-1.5553,-1.3635,-1.179,-1.2253,-1.1054,0.0,-1.0203,-1.1238,-1.1756,-1.0684,-1.1775,-1.2522,-1.1582,-1.3557,-1.5006,0.0,-1.6276,0.0,0.0,0.0,0.0,0.0,0.0,0.0,0.0,0.0,0.0,0.0,-1.4285,-1.4084,-1.3868,-1.2815,-1.2199,-1.2012,-1.1853,-1.1627,-1.1339,-1.0891,-1.0395,-0.9567,-0.972,0.0,0.0,0.0,0.0,0.0,-1.1952,-1.2026,-1.2218,-1.3233,-1.3652,-1.3681,-1.3843,-1.39,-1.39,0.0,0.0,0.0,0.0,0.0,0.0,0.0,0.0,0.0,0.0,-1.2885,-1.3057,-1.3278,-1.3126,-1.3126,0.0,0.0,0.0,0.0,0.0,0.0,0.0,0.0,0.0,0.0,-1.5228,-1.615,-1.7282,-1.7447,-1.758,-1.7697,-1.7697,-1.7533,-1.7189,-1.6159,-1.4473,-1.2332,-1.0836,0.0,0.0,-0.997,-0.9802,0.0,0.0,0.0,0.0,-1.0353,-1.0836,0.0,0.0,0.0,0.0,0.0,0.0,0.0,0.0,-1.2987,-1.3119,-1.3302,0.0,-1.3806,-1.3509,-1.2382,-1.1269,0.0,-1.0536,-1.0295,-1.1475,-1.1966,-1.218,-1.2117,-1.3052,-1.3847,-1.3793,-1.4879,-1.6091,-1.7049,0.0,0.0,-1.6579,0.0,0.0,0.0,0.0,0.0,0.0,0.0,0.0,0.0,-1.3541,-1.3235,-1.3868,-1.2683,-1.2012,-1.1837,-1.1542,-1.1316,-1.1147,-1.0606,-1.0099,-0.9518,-0.9693,0.0,0.0,0.0,0.0,-1.2365,-1.2131,-1.2304,-1.2828,-1.3468,-1.3725,-1.3847,-1.3888,-1.39,-1.39,0.0,0.0,0.0,0.0,0.0,0.0,0.0,0.0,0.0,0.0,0.0,0.0,0.0,0.0,0.0,0.0,0.0,0.0,0.0,0.0,0.0,0.0,0.0,0.0,-1.5227,-1.563,-1.6743,-1.8574,-1.8574,-1.8922,-1.954,-1.9241,-1.8857,-1.8382,-1.63,-1.427,-1.2325,-1.1175,-1.0418,-0.997,-0.9854,0.0,0.0,0.0,0.0,0.0,-0.9988,-1.0554,0.0,-1.1487,-1.207,-1.2709,0.0,0.0,0.0,0.0,-1.2709,-1.2709,-1.2745,-1.2765,-1.2855,-1.3305,-1.2181,-1.1065,-1.1552,-1.0814,-1.0381,-1.1772,-1.2242,-1.2502,-1.2686,-1.3459,-1.4079,0.0,-1.4888,0.0,0.0,0.0,-1.8503,-1.6914,0.0,0.0,0.0,0.0,0.0,0.0,0.0,0.0,0.0,-1.2917,-1.2733,-1.315,-1.2233,-1.1614,-1.1526,-1.1398,-1.1012,-1.0397,-1.0317,-0.9923,-0.9356,-0.9624,-1.0058,0.0,0.0,0.0,-1.2166,-1.2086,-1.2485,-1.3091,-1.3588,-1.3819,-1.39,-1.39,-1.39,-1.3904,0.0,0.0,0.0,0.0,0.0,0.0,0.0,0.0,0.0,0.0,0.0,0.0,0.0,0.0,0.0,0.0,0.0,0.0,0.0,0.0,0.0,0.0,0.0,0.0,-1.5845,-1.6218,-1.749,-1.9775,-1.9864,-2.0527,-2.168,-2.1087,-2.0243,-1.9126,-1.633,-1.4102,-1.2413,-1.1764,-1.0755,-0.9658,-0.9802,0.0,0.0,0.0,0.0,0.0,0.0,0.0,0.0,-1.0978,-1.1676,-1.2577,-1.2492,0.0,0.0,0.0,0.0,0.0,-1.2768,-1.2354,-1.2272,-1.3884,-1.2459,-1.1065,-1.2566,-1.1519,-1.066,-1.2148,-1.2752,-1.3049,-1.3132,-1.3942,0.0,0.0,0.0,0.0,-1.7414,-1.7945,-1.8002,-1.7735,0.0,0.0,0.0,0.0,0.0,0.0,0.0,0.0,0.0,-1.2582,-1.2515,-1.2264,-1.1686,-1.1273,-1.1273,-1.1152,-1.0657,-0.9606,-1.008,-0.9822,-0.9167,-0.9642,-1.0187,0.0,0.0,0.0,-1.2113,-1.2123,-1.2566,-1.3134,-1.3701,-1.39,-1.3757,-1.39,-1.39,-1.39,0.0,0.0,0.0,0.0,0.0,0.0,0.0,0.0,0.0,0.0,0.0,0.0,0.0,0.0,0.0,0.0,0.0,0.0,0.0,0.0,0.0,0.0,0.0,0.0,0.0,-1.8119,-1.9513,-2.052,-2.1087,-2.15,-2.1695,-2.1456,-2.0345,-1.8387,-1.634,-1.4432,-1.2664,-1.1368,-1.0462,-0.9854,-0.971,0.0,0.0,0.0,0.0,0.0,0.0,0.0,0.0,-1.0425,-1.1135,-1.1928,-1.1484,0.0,0.0,0.0,0.0,0.0,-1.2709,-1.2258,-1.2197,-1.3746,-1.2614,-1.1519,-1.3022,-1.2258,-1.1904,-1.4369,-1.464,-1.4625,-1.5237,-1.6745,-1.7146,0.0,0.0,-1.7664,0.0,0.0,0.0,0.0,0.0,0.0,0.0,0.0,0.0,0.0,0.0,0.0,0.0,-1.3264,-1.3177,-1.2073,-1.15,-1.1152,-1.091,-1.0547,-1.0188,-0.9606,-0.9842,-0.9588,-0.9174,-1.0112,-1.0721,0.0,0.0,-1.2086,-1.3162,-1.3011,-1.3068,-1.329,-1.3745,-1.3757,-1.3468,-1.4189,-1.4189,-1.4043,0.0,0.0,0.0,0.0,0.0,0.0,0.0,0.0,0.0,0.0,0.0,0.0,0.0,0.0,0.0,0.0,0.0,0.0,0.0,0.0,0.0,0.0,0.0,0.0,0.0,0.0,-2.0154,-2.1246,-2.1904,-2.2398,-2.2712,-2.1724,-2.0348,-1.8608,-1.6957,-1.4967,-1.2858,-1.1924,-1.0795,-0.9684,0.0,0.0,0.0,0.0,0.0,0.0,0.0,0.0,0.0,0.0,-1.0822,-1.1411,-1.1171,0.0,0.0,0.0,0.0,0.0,-1.2745,-1.2249,-1.2308,-1.4618,-1.3068,-1.1748,-1.469,-1.3301,-1.2181,-1.5088,-1.4591,-1.4022,-1.5233,0.0,-1.6259,-1.5922,0.0,0.0,0.0,0.0,0.0,0.0,0.0,0.0,0.0,0.0,0.0,0.0,0.0,0.0,0.0,0.0,-1.2499,-1.1785,-1.1119,-1.0668,-1.0547,-1.0183,-0.9832,-0.9384,-0.9724,-0.9629,-0.9293,-1.0179,-1.0635,-1.0792,0.0,-1.1796,-1.2127,-1.2531,-1.2785,-1.3039,-1.3468,-1.3615,-1.3615,-1.4047,-1.4332,-1.4474,0.0,0.0,0.0,0.0,0.0,0.0,0.0,0.0,0.0,0.0,0.0,0.0,0.0,0.0,0.0,0.0,0.0,0.0,0.0,0.0,0.0,0.0,0.0,0.0,0.0,0.0,-2.0638,-2.1894,-2.2644,-2.3284,-2.3673,-2.1911,-2.0396,-1.9109,-1.7505,-1.5363,-1.294,-1.239,-1.112,-0.9432,0.0,0.0,0.0,0.0,0.0,0.0,0.0,0.0,0.0,0.0,0.0,0.0,0.0,0.0,0.0,-1.1736,-1.2225,-1.2792,-1.2925,-1.2427,-1.2521,-1.5252,-1.3472,-1.2187,-1.6268,-1.4359,-1.2608,-1.5757,-1.4774,-1.3847,0.0,-1.5437,0.0,-1.704,-1.8935,0.0,0.0,0.0,0.0,0.0,0.0,0.0,0.0,0.0,0.0,0.0,0.0,0.0,0.0,0.0,-1.1904,-1.1356,-1.0612,-1.0304,-1.0304,-0.9943,-0.9649,-0.9313,-0.9656,-0.972,-0.9551,-1.0422,-1.0689,-1.0583,-1.1419,-1.1571,-1.1114,-1.1985,-1.2406,-1.2753,-1.3039,-1.3611,-1.4189,-1.4047,-1.4617,-1.5332,0.0,0.0,0.0,0.0,0.0,0.0,0.0,0.0,0.0,0.0,0.0,0.0,0.0,0.0,0.0,0.0,0.0,0.0,0.0,0.0,0.0,0.0,0.0,0.0,0.0,-2.0391,-2.1743,-2.2429,-2.3555,-2.4084,-2.4022,-2.1917,-2.0505,-1.9652,-1.7669,-1.5363,-1.2878,-1.2331,-1.0995,-0.9244,-0.9286,0.0,0.0,0.0,0.0,0.0,0.0,0.0,0.0,0.0,0.0,0.0,0.0,0.0,-1.1784,-1.1291,-1.1901,-1.2818,-1.33,-1.2904,-1.2824,-1.4872,-1.3688,-1.3055,-1.6924,-1.5342,-1.3992,-1.7276,-1.6546,-1.5879,0.0,-1.7553,-1.7631,-1.88,0.0,0.0,0.0,0.0,0.0,0.0,0.0,0.0,0.0,0.0,0.0,0.0,0.0,0.0,0.0,0.0,0.0,-1.0933,-1.0433,-1.0304,-1.0304,-0.9943,-0.9805,-0.9774,-0.9805,-0.9883,-1.0008,-1.0811,-1.1108,-1.1009,-1.2348,-1.2465,-1.1706,-1.2263,-1.2437,-1.2323,-1.261,-1.3757,-1.4906,-1.4621,-1.5186,-1.6042,0.0,0.0,0.0,0.0,0.0,0.0,0.0,0.0,0.0,0.0,0.0,0.0,0.0,0.0,0.0,0.0,0.0,0.0,0.0,0.0,0.0,0.0,0.0,-1.8157,-1.9209,-2.0718,-2.1613,-2.1813,-2.3024,-2.3599,-2.3463,-2.1643,-2.0597,-2.02,-1.772,-1.5571,-1.3731,-1.2468,-1.1028,-0.9608,-0.936,-0.9313,0.0,0.0,0.0,0.0,0.0,0.0,0.0,0.0,-0.9629,-0.9749,-0.9557,-1.0377,-1.1351,-1.1159,-1.2152,-1.3191,-1.2869,-1.2831,-1.3344,-1.53,-1.42,-1.3427,-1.6344,-1.5488,-1.4889,-1.794,-1.7003,0.0,0.0,0.0,-1.8078,-1.9163,0.0,0.0,0.0,0.0,0.0,0.0,0.0,0.0,0.0,0.0,0.0,0.0,0.0,0.0,0.0,0.0,0.0,-1.0796,-1.0304,-0.994,-0.994,-0.9822,-0.9822,-0.9822,-0.9917,-1.0167,-1.0447,-1.0984,-1.1138,-1.1169,-1.2319,-1.1972,-1.0757,-1.1745,-1.1899,-1.1603,-1.2749,-1.3615,-1.4332,-1.4479,-1.5044,-1.5753,0.0,0.0,0.0,0.0,0.0,0.0,0.0,0.0,0.0,0.0,0.0,0.0,0.0,0.0,0.0,0.0,0.0,0.0,0.0,0.0,0.0,0.0,0.0,-1.807,-1.914,-2.0401,-2.1215,-2.1601,-2.2776,-2.3314,-2.3209,-2.1398,-2.05,-2.0373,-1.7543,-1.5604,-1.4259,-1.2622,-1.1136,-0.9799,-0.9578,-0.9427,0.0,0.0,0.0,0.0,0.0,0.0,0.0,0.0,-0.9497,-0.9497,-0.9497,-1.0245,-1.1099,-1.1099,-1.2102,-1.3103,-1.2608,-1.2815,-1.354,-1.5099,-1.4435,-1.3977,-1.6088,-1.5655,-1.5581,-1.8379,-1.8102,-1.736,-1.7507,0.0,0.0,0.0,0.0,0.0,0.0,0.0,0.0,0.0,0.0,0.0,0.0,0.0,0.0,0.0,0.0,0.0,0.0,0.0,0.0,0.0,-1.0061,-0.9822,-0.9822,-0.9822,-0.9822,-0.9822,-1.0025,-1.0304,-1.0792,-1.107,-1.1228,-1.1387,-1.2025,-1.1521,-1.02,-1.1134,-1.143,-1.1315,-1.2753,-1.3615,-1.39,-1.4047,-1.4613,-1.5323,0.0,0.0,0.0,0.0,0.0,0.0,0.0,0.0,0.0,0.0,0.0,0.0,0.0,0.0,0.0,0.0,0.0,0.0,-1.1215,-1.2632,-1.3765,-1.4366,0.0,-1.7646,-1.8179,-1.9435,-2.0753,-2.2089,-2.304,-2.3483,-2.3426,-2.1201,-2.0172,-2.006,0.0,-1.5316,-1.4226,-1.2801,-1.1255,-0.9738,-0.9992,-0.9772,-0.9313,0.0,0.0,0.0,0.0,0.0,0.0,0.0,-0.9497,-0.9497,-0.9497,-1.0245,-1.1099,-1.1111,-1.1699,-1.2412,-1.2817,-1.301,-1.3282,-1.3914,-1.4282,-1.4808,-1.6307,-1.5964,-1.6154,-1.8702,-2.0054,-2.0573,-1.9937,-2.0063,0.0,0.0,0.0,0.0,0.0,0.0,0.0,0.0,0.0,0.0,0.0,0.0,0.0,0.0,0.0,0.0,0.0,0.0,0.0,0.0,-0.9822,-0.9822,-0.9822,-0.9822,-0.9822,-0.9825,-1.0134,-1.0534,-1.0792,-1.1331,-1.1624,-1.178,-1.178,-1.1291,-1.0467,-1.0609,-1.1057,-1.1746,-1.2892,-1.3468,-1.39,-1.3468,-1.3757,-1.4617,0.0,0.0,0.0,0.0,0.0,0.0,0.0,0.0,0.0,0.0,0.0,0.0,0.0,0.0,0.0,0.0,0.0,0.0,-1.1285,-1.2657,-1.378,-1.4382,-1.5979,-1.7225,-1.8057,-1.9151,-2.0425,-2.1758,-2.1908,-2.1731,-2.1305,-2.047,-1.9432,-1.835,0.0,0.0,-1.4335,-1.3825,-1.2377,-1.0444,-1.0203,-0.9789,-0.9381,0.0,0.0,0.0,0.0,0.0,0.0,0.0,0.0,0.0,-0.9497,-1.0274,-1.1378,-1.2468,-1.3198,-1.3766,-1.4341,-1.4318,0.0,-1.4471,0.0,0.0,-1.6385,-1.6959,-1.7764,-1.9778,-2.0309,-2.0169,-1.9477,0.0,0.0,0.0,0.0,0.0,0.0,0.0,0.0,0.0,0.0,0.0,0.0,0.0,0.0,0.0,0.0,0.0,0.0,0.0,0.0,0.0,-0.9579,-0.9457,-0.9457,-0.97,-0.9822,-0.9825,-1.0134,-1.0661,-1.1176,-1.1319,-1.1468,-1.178,-1.1516,-1.0826,-1.0064,-1.0262,-1.0586,-1.0887,-1.1746,-1.2463,-1.3039,-1.3039,-1.3615,-1.4474,0.0,0.0,0.0,0.0,0.0,0.0,0.0,0.0,-1.2135,-1.2056,-1.2113,-1.1951,0.0,0.0,0.0,-1.1108,-1.1132,-1.1192,-1.1215,-1.2351,-1.3281,-1.3866,-1.5227,-1.6477,-1.7526,-1.8068,-1.8979,-2.033,-2.0609,-2.0612,-2.0243,-1.9551,-1.8595,-1.7428,0.0,-1.559,-1.412,-1.3672,-1.2484,-1.0771,-1.0587,-1.0064,-0.9408,0.0,0.0,0.0,0.0,0.0,0.0,0.0,0.0,0.0,-0.9538,-1.0592,-1.1856,-1.2259,-1.3133,-1.4072,-1.448,-1.4486,0.0,-1.5154,-1.5527,-1.6065,-1.7286,0.0,0.0,0.0,-2.1197,-2.0933,-2.0696,0.0,0.0,0.0,0.0,0.0,0.0,0.0,0.0,0.0,0.0,0.0,0.0,0.0,0.0,0.0,0.0,0.0,0.0,0.0,0.0,0.0,-0.9335,-0.9095,-0.9095,-0.9457,-0.9609,-0.9671,-1.0164,-1.0693,-1.1396,-1.1395,-1.1516,-1.1784,-1.1045,-1.0348,-0.9948,-1.0314,-1.0627,-1.0746,-1.1315,-1.189,-1.2323,-1.2183,-1.29,-1.3904,0.0,0.0,0.0,0.0,0.0,0.0,0.0,-1.0776,-1.1308,-1.1715,-1.1681,-1.1482,0.0,0.0,0.0,-1.1085,-1.1085,-1.1085,-1.1085,-1.187,-1.251,-1.3004,-1.4212,-1.5467,-1.6693,-1.6445,-1.6936,-1.8177,-1.9266,-1.9773,-1.9713,-1.8605,-1.7708,-1.6944,0.0,-1.4252,-1.3606,-1.2986,-1.1964,-1.0837,-1.1037,-1.042,-0.9408,-0.9485,0.0,0.0,0.0,0.0,0.0,0.0,0.0,0.0,-0.9591,-1.0919,-1.2281,-1.1249,-1.2191,-1.3697,-1.3914,-1.4125,-1.4554,-1.594,-1.6272,0.0,-1.8908,-1.9397,-2.0009,-2.1932,0.0,-2.2437,0.0,0.0,0.0,0.0,0.0,0.0,0.0,0.0,0.0,0.0,0.0,0.0,0.0,0.0,0.0,0.0,0.0,0.0,0.0,0.0,0.0,-0.9342,-0.8973,-0.8854,-0.8854,-0.9217,-0.941,0.0,-1.0082,-1.0739,-1.1664,-1.1702,-1.178,-1.1655,-1.0319,-0.9918,-1.0206,-1.0614,-1.0902,-1.1044,-1.1319,-1.1603,-1.1603,-1.1038,-1.19,-1.3186,0.0,0.0,0.0,0.0,0.0,0.0,-0.9761,-1.0482,-1.1107,-1.1513,-1.1586,-1.1482,-1.1132,-1.1038,0.0,-1.1015,-1.1062,-1.1085,-1.1085,-1.1894,-1.2359,-1.2312,-1.3502,-1.449,-1.5251,-1.548,-1.5972,-1.6665,-1.7784,-1.8171,-1.7792,0.0,0.0,-1.4924,0.0,-1.5115,-1.3276,-1.4014,-1.3043,-1.1037,-1.1099,-1.042,-0.9408,-0.9408,-0.9408,0.0,0.0,0.0,0.0,0.0,0.0,0.0,-0.9591,-1.0241,-1.1222,-1.2378,-1.3216,-1.4144,-1.5782,-1.5687,0.0,-1.5716,-1.6419,-1.7603,-2.0256,-2.1089,-2.1509,-2.2707,-2.2431,0.0,0.0,0.0,0.0,0.0,0.0,0.0,0.0,0.0,0.0,0.0,0.0,0.0,0.0,0.0,0.0,0.0,0.0,0.0,0.0,0.0,0.0,-0.8979,-0.8732,-0.8613,-0.8854,-0.9217,-0.9532,0.0,-1.0458,-1.0994,-1.1664,-1.1702,-1.1516,-1.0853,-1.0355,-1.0106,-1.0061,-1.0231,-1.0527,-1.1044,-1.0746,-1.1028,-1.1459,-1.0887,-1.1325,-1.2338,0.0,0.0,0.0,0.0,0.0,0.0,0.0,0.0,-1.0362,-1.0865,-1.1174,-1.1279,-1.1108,-1.1038,0.0,0.0,-1.1015,-1.1015,-1.1038,-1.149,-1.1801,-1.1948,-1.2885,-1.3514,-1.3805,-1.3976,-1.4475,-1.5332,-1.5972,-1.6323,0.0,0.0,0.0,-1.3883,0.0,-1.4144,-1.2812,-1.3507,-1.2747,-1.1037,-1.1099,-1.042,-0.9408,-0.9446,-0.9446,-0.9446,-0.9446,0.0,0.0,0.0,0.0,0.0,0.0,0.0,-1.1349,-1.1955,-1.2905,-1.3993,-1.5051,0.0,0.0,-1.6455,0.0,-1.8677,-2.0435,-2.1711,-2.2638,-2.3317,0.0,0.0,0.0,0.0,0.0,0.0,0.0,0.0,0.0,0.0,0.0,0.0,0.0,0.0,0.0,0.0,0.0,0.0,0.0,0.0,0.0,-1.071,-0.9607,-0.8979,-0.8366,-0.8241,-0.8363,-0.8919,-0.9389,-0.9651,-1.0562,-1.1231,-1.1915,-1.1871,-1.1383,-1.0721,-1.0187,-0.9906,-0.9692,-1.0031,-1.0321,-1.0662,-1.0575,-1.0887,-1.1322,-1.0743,-1.1319,-1.2477,0.0,0.0,0.0,0.0,0.0,0.0,0.0,0.0,0.0,-1.0214,-1.0666,-1.0973,-1.1132,-1.1038,-1.1015,0.0,0.0,0.0,-1.0968,-1.0968,-1.1166,-1.1629,-1.2127,-1.2458,-1.2526,-1.2361,-1.2903,-1.4128,-1.4119,-1.4631,0.0,0.0,0.0,-1.3751,0.0,-1.308,-1.2365,-1.2591,-1.2027,-1.0974,-1.1068,-1.0391,-0.9381,-0.9458,-0.9485,-0.9458,-0.9485,-0.9538,-0.9591,-0.9658,0.0,0.0,0.0,0.0,-1.1496,-1.1046,-1.2102,0.0,0.0,-1.4585,-1.5931,-1.7456,-1.8518,0.0,-2.0394,-2.1962,-2.3296,0.0,0.0,0.0,0.0,0.0,0.0,0.0,0.0,0.0,0.0,0.0,0.0,0.0,0.0,0.0,0.0,0.0,0.0,0.0,0.0,0.0,-1.2743,-1.0834,-0.9516,-0.8891,-0.825,-0.7991,-0.8116,-0.8738,-0.9249,-0.951,-1.0575,-1.1512,-1.2309,-1.1912,-1.1383,-1.0721,-1.005,-0.9594,-0.9458,-0.9862,-1.028,-1.0558,-1.055,-1.0746,-1.1041,-1.0603,-1.1462,-1.2613,0.0,0.0,0.0,0.0,0.0,0.0,0.0,0.0,0.0,0.0,-1.0285,-1.0495,-1.1205,-1.1108,-1.1015,-1.1085,-1.1015,-1.0968,-1.092,0.0,0.0,-1.1021,-1.0884,-1.1143,-1.1814,-1.1293,-1.1725,-1.3085,-1.2827,-1.372,0.0,0.0,0.0,-1.4887,0.0,0.0,-1.2246,-1.2556,-1.1993,-1.0837,-1.1037,-1.0344,-0.9232,-0.9354,-0.9381,-0.9339,-0.9381,-0.9446,-0.9523,-0.9591,-0.9617,0.0,0.0,0.0,-1.006,-1.0723,-1.1637,0.0,0.0,0.0,-1.6213,0.0,-1.8335,-1.9304,0.0,0.0,0.0,0.0,0.0,0.0,0.0,0.0,0.0,0.0,0.0,0.0,0.0,0.0,0.0,0.0,0.0,0.0,0.0,0.0,0.0,0.0,0.0,0.0,-1.1467,-1.0686,-0.979,-0.8652,-0.817,-0.8238,-0.8732,-0.8983,-0.9497,-1.0156,-1.121,-1.189,-1.2309,-1.1912,-1.1383,-1.0721,-1.0323,-0.9999,-0.9863,-1.0,-1.056,-1.1265,-1.069,-1.089,-1.1476,-1.0746,-1.1034,-1.176,0.0,0.0,0.0,0.0,0.0,0.0,0.0,0.0,0.0,0.0,0.0,-1.0433,-1.1121,-1.1108,-1.1062,-1.1085,-1.1038,-1.0991,-1.0968,-1.0897,-1.0753,-1.0521,-1.0398,-1.0365,-1.0469,-1.031,-1.0686,-1.1598,-1.1919,0.0,0.0,-1.7678,-1.7252,0.0,0.0,0.0,0.0,0.0,0.0,0.0,-1.137,-1.0775,-0.989,-1.0071,-1.0008,-0.9881,-1.0463,-1.0303,-0.9864,-1.0322,-1.0116,-0.9591,-0.9591,0.0,0.0,0.0,0.0,0.0,-1.3998,-1.4221,-1.4554,0.0,-1.7683,-1.8368,-2.0378,0.0,0.0,0.0,0.0,0.0,0.0,0.0,0.0,0.0,0.0,0.0,0.0,0.0,0.0,0.0,0.0,0.0,0.0,0.0,0.0,0.0,0.0,-1.5386,-1.1656,-1.081,-0.991,-0.87,-0.8144,-0.7994,-0.8363,-0.8931,-0.9777,-1.0788,-1.1446,-1.1912,-1.2045,-1.1376,-1.0846,-1.0455,-1.0054,-0.9685,-0.9487,-0.997,-1.037,-1.0868,-1.0659,-1.089,-1.1476,-1.0746,-1.0983,-1.1789,0.0,0.0,0.0,0.0,0.0,0.0,0.0,0.0,0.0,0.0,0.0,-1.0389,-1.1052,0.0,0.0,0.0,-1.1038,-1.0898,-1.0652,-1.0437,-1.0131,-0.9686,-0.96,-0.9504,-0.9374,-0.9361,-0.9727,-1.0509,0.0,0.0,-1.6303,-1.7774,-1.7783,0.0,-1.7255,-1.6244,0.0,0.0,0.0,0.0,-1.2226,-1.1439,-1.0319,-1.0519,-1.0398,-1.0236,-1.1126,-1.0891,-1.0206,-1.0774,0.0,0.0,0.0,0.0,0.0,0.0,0.0,0.0,0.0,0.0,-1.3247,-1.6083,-1.6676,-1.7025,0.0,0.0,0.0,0.0,0.0,0.0,0.0,0.0,0.0,0.0,0.0,0.0,0.0,0.0,0.0,0.0,0.0,0.0,0.0,0.0,0.0,0.0,0.0,-1.6023,-1.1799,-1.0689,-0.9787,-0.8964,-0.8273,-0.7994,-0.7994,-0.8992,-1.0032,-1.1247,-1.1516,-1.1512,-1.1376,-1.0707,-1.0177,-0.9791,-0.9519,-0.925,-0.9134,-0.9772,-1.0301,-1.0635,-1.0454,-1.0862,-1.1325,-1.0849,-1.108,-1.1744,0.0,0.0,0.0,0.0,0.0,0.0,0.0,0.0,0.0,0.0,0.0,-1.0234,-1.1098,-1.1015,-1.0968,-1.1085,-1.1038,-1.0601,-0.9652,-0.9207,-0.8758,-0.8227,-0.797,0.0,-0.9019,-0.8408,-0.8787,-1.0212,0.0,0.0,-1.3841,-1.6181,-1.7645,-1.8251,-1.8255,-1.7748,-1.6831,0.0,0.0,0.0,0.0,-1.2268,-1.0047,-1.0161,-1.0089,-0.9983,-1.0559,0.0,0.0,0.0,0.0,0.0,0.0,0.0,0.0,0.0,0.0,0.0,0.0,-1.2984,0.0,-1.5312,-1.5454,0.0,0.0,0.0,0.0,0.0,0.0,0.0,0.0,0.0,0.0,0.0,0.0,0.0,0.0,0.0,0.0,0.0,0.0,0.0,0.0,0.0,0.0,0.0,0.0,-1.5505,-1.0958,-1.0164,-0.9497,-0.8852,-0.824,-0.7997,-0.8369,-0.9368,-1.029,-1.1247,-1.1247,-1.0846,-1.0309,-0.9911,-0.9247,-0.872,-0.872,-0.8853,-0.9128,-0.967,-1.0213,-1.0625,-1.0355,-1.0494,-1.1028,-1.0889,-1.0921,-1.1155,0.0,0.0,0.0,0.0,0.0,0.0,0.0,0.0,0.0,0.0,0.0,0.0,0.0,-1.1038,-1.1015,-1.1038,-1.0944,-1.0494,-0.9553,-0.9367,-0.8849,-0.7834,-0.7732,-0.7748,-0.7853,-0.7979,-0.8279,-0.8733,-0.9333,-1.0787,-1.2975,-1.4606,-1.5889,-1.697,-1.9285,-1.9126,-1.7151,-1.719,0.0,0.0,0.0,0.0,0.0,0.0,0.0,0.0,0.0,0.0,0.0,0.0,0.0,0.0,0.0,0.0,0.0,0.0,0.0,0.0,0.0,0.0,0.0,-1.4613,-1.4773,-1.4858,0.0,0.0,0.0,0.0,0.0,0.0,0.0,0.0,0.0,0.0,0.0,0.0,0.0,0.0,0.0,0.0,0.0,0.0,0.0,0.0,0.0,0.0,0.0,0.0,-1.23,-1.0713,-0.9611,-0.8874,-0.8487,-0.8522,-0.8986,-0.9672,-1.0254,-1.085,-1.1115,-1.0714,-0.9911,-0.9779,-0.925,-0.8587,-0.8323,-0.8587,-0.9125,-0.9661,-1.0207,-1.0622,-1.0349,-1.0488,-1.0881,-1.0596,-1.0719,-1.118,0.0,0.0,0.0,0.0,0.0,0.0,0.0,0.0,0.0,-0.9661,0.0,0.0,0.0,0.0,-1.0722,-1.0883,-1.0632,-1.0068,-0.9098,-0.8834,-0.815,-0.6943,-0.6984,-0.701,-0.6957,-0.7333,-0.7677,-0.7947,-0.876,-0.9897,0.0,-1.3054,-1.4255,-1.5184,-1.7988,-1.8669,0.0,0.0,0.0,-1.536,0.0,0.0,-1.3135,0.0,0.0,0.0,0.0,0.0,0.0,0.0,0.0,0.0,0.0,0.0,0.0,0.0,0.0,0.0,-1.1651,0.0,0.0,0.0,0.0,-1.3838,0.0,0.0,0.0,0.0,0.0,0.0,0.0,0.0,0.0,0.0,0.0,0.0,0.0,0.0,0.0,0.0,0.0,0.0,0.0,0.0,0.0,0.0,0.0,0.0,-1.2944,-1.0918,-0.9558,-0.8979,-0.8856,-0.8986,-0.9503,-0.9774,-1.0176,-1.0721,-1.0853,-1.0319,-0.9383,-0.925,-0.8853,-0.8189,-0.8058,-0.8323,-0.8989,-0.9615,-1.0029,-1.048,-1.0299,-1.059,-1.1018,-1.0684,-1.0812,-1.1166,0.0,0.0,0.0,0.0,0.0,0.0,0.0,0.0,-0.9176,-0.9256,0.0,0.0,0.0,0.0,0.0,-1.064,-1.0161,-0.933,-0.8168,-0.7486,-0.664,-0.5553,-0.5635,-0.5946,-0.6476,-0.6434,-0.6913,-0.7968,-0.8038,-0.832,0.0,0.0,-1.2896,-1.3132,-1.4296,-1.6295,-1.8825,0.0,-1.9022,-1.9188,0.0,-1.6647,-1.6915,0.0,0.0,0.0,-1.6343,-1.6145,0.0,0.0,0.0,0.0,0.0,0.0,0.0,0.0,0.0,0.0,0.0,0.0,0.0,0.0,0.0,0.0,0.0,0.0,0.0,0.0,0.0,0.0,0.0,0.0,0.0,0.0,0.0,0.0,0.0,0.0,0.0,0.0,0.0,0.0,0.0,0.0,0.0,0.0,0.0,-1.5633,-1.2544,-1.0717,-0.9503,-0.8989,-0.911,-0.9365,-0.9755,-0.9906,-1.0182,-1.0721,-1.0323,-0.9655,-0.8587,-0.8323,-0.7925,-0.7526,-0.7526,-0.7925,-0.8587,-0.9392,-0.9817,-1.0191,-1.0464,-1.0783,-1.1002,-1.1131,-1.1074,-1.1002,0.0,0.0,0.0,0.0,0.0,-1.0078,-1.0064,-1.0298,-1.049,0.0,0.0,0.0,0.0,0.0,-1.0422,-1.0485,-1.0211,-0.9391,-0.7892,-0.7632,-0.6976,-0.5697,-0.5718,-0.584,-0.5991,-0.6322,-0.6597,-0.6848,-0.7533,0.0,0.0,0.0,0.0,0.0,-1.1862,-1.3388,-1.4882,-1.7455,0.0,0.0,-1.9285,-1.7656,0.0,0.0,0.0,0.0,0.0,-1.6064,-1.6943,0.0,-1.5515,-1.4852,0.0,0.0,0.0,0.0,0.0,0.0,-1.0152,0.0,0.0,0.0,0.0,0.0,0.0,0.0,0.0,0.0,0.0,0.0,0.0,0.0,0.0,0.0,0.0,0.0,0.0,0.0,0.0,0.0,0.0,0.0,0.0,0.0,0.0,0.0,-1.7865,-1.567,-1.3628,-1.0996,-0.9577,-0.9376,-0.9503,-0.9716,-0.9758,-1.0267,-1.0416,-1.0323,-1.019,-0.9525,-0.8189,-0.8456,-0.792,-0.7121,-0.7658,-0.8058,-0.8323,-0.8987,-0.9487,-1.0045,-1.0318,-1.0628,-1.0863,-1.1094,-1.1074,-1.1018,0.0,0.0,-0.9122,-0.9269,-1.0105,-1.0742,-1.0676,-1.0883,-1.1038,0.0,0.0,0.0,0.0,0.0,-1.0715,-1.0664,-1.0251,-0.9467,-0.8284,-0.7958,-0.7271,-0.6035,-0.6059,-0.601,-0.5793,-0.604,-0.626,-0.6445,0.0,0.0,0.0,0.0,0.0,0.0,-1.0202,-1.1289,-1.2619,0.0,0.0,0.0,-1.91,0.0,0.0,-1.7447,-1.7655,0.0,0.0,0.0,-1.8743,-1.7823,-1.6751,0.0,0.0,0.0,0.0,0.0,0.0,0.0,0.0,0.0,0.0,0.0,0.0,0.0,0.0,0.0,0.0,0.0,0.0,0.0,0.0,0.0,0.0,0.0,0.0,0.0,0.0,0.0,0.0,0.0,0.0,0.0,0.0,0.0,0.0,-2.0119,-1.8044,-1.5709,-1.3219,-1.0842,-0.9712,-0.9714,-0.991,-1.0019,-1.0019,-1.031,-1.0455,-1.0193,-0.9921,-0.9123,-0.8058,-0.8189,-0.7789,-0.6985,-0.7658,-0.8058,-0.8323,-0.872,-0.9329,-0.9989,-1.0393,-1.0806,-1.1004,-1.1192,-1.1314,-1.1226,0.0,0.0,-0.9715,-1.0121,-1.0849,-1.1285,-1.1062,-1.1094,-1.1188,0.0,-1.1152,0.0,0.0,0.0,0.0,0.0,-1.0373,-0.9627,-0.9009,-0.836,-0.7552,-0.6554,-0.6498,-0.6308,-0.5881,-0.577,-0.5935,0.0,0.0,0.0,0.0,0.0,0.0,0.0,-0.9139,-0.9955,-1.1491,-1.3357,0.0,-1.8452,-1.7798,-1.9153,0.0,0.0,-1.9971,0.0,-2.0857,-2.064,-2.056,-1.9703,-1.7969,0.0,0.0,0.0,0.0,0.0,-1.1888,0.0,0.0,-0.9992,-1.0528,0.0,0.0,0.0,0.0,0.0,0.0,0.0,0.0,0.0,0.0,0.0,0.0,0.0,0.0,0.0,0.0,0.0,0.0,0.0,0.0,0.0,0.0,-2.1147,-2.0706,-1.983,-1.797,-1.5402,-1.2262,-1.0552,-0.9758,-0.9734,-1.0131,-1.028,-1.028,-1.0182,-1.019,-1.0193,-0.9386,-0.872,-0.8058,-0.7658,-0.7257,-0.6985,-0.739,-0.7925,-0.8587,-0.872,-0.9186,-0.9964,-1.0641,-1.1002,-1.1279,-1.1569,-1.1538,-1.1392,-0.8508,-0.9058,-0.9456,-0.9492,-1.0376,-1.1085,-1.1155,-1.1434,-1.1871,-1.2451,-1.2102,0.0,0.0,0.0,0.0,0.0,-1.1028,-1.0146,-0.9421,-0.8467,-0.767,-0.7146,-0.6727,-0.6454,-0.6366,-0.5972,-0.5837,0.0,0.0,0.0,0.0,0.0,0.0,0.0,-0.8924,-0.966,-1.0563,-1.2067,0.0,-1.5171,-1.875,0.0,-1.7985,-1.9833,-1.9431,-1.8224,-1.9877,-2.0232,-1.9896,0.0,-1.8753,-1.7623,0.0,0.0,0.0,-1.2162,0.0,0.0,0.0,0.0,0.0,0.0,0.0,0.0,0.0,0.0,0.0,0.0,0.0,0.0,0.0,0.0,0.0,0.0,0.0,0.0,0.0,0.0,0.0,0.0,0.0,0.0,0.0,-2.053,-2.0179,-1.9515,-1.6268,-1.3922,-1.3106,-1.0922,-0.968,-0.9516,-1.0059,-1.028,-1.028,-1.0182,-1.006,-0.9794,-0.9386,-0.8587,-0.766,-0.7526,-0.7257,-0.6985,-0.7655,-0.8189,-0.8587,-0.9259,-0.9806,-1.0232,-1.0628,-1.0856,-1.1006,-1.1805,-1.1813,-1.1409,-0.8824,-0.9124,-0.9435,-1.0038,-1.061,-1.1126,-1.1458,-1.1929,-1.2595,-1.3567,0.0,0.0,0.0,0.0,0.0,0.0,0.0,-1.0895,-1.0149,-0.9249,-0.8518,-0.802,-0.7484,-0.7002,-0.655,-0.6216,-0.5977,0.0,0.0,0.0,0.0,0.0,0.0,0.0,0.0,-0.9716,-1.0306,0.0,-1.3306,-1.493,-1.8243,0.0,-1.7675,-1.9948,-2.0158,-1.9352,-2.0567,-2.0653,-2.0082,-1.9679,-1.8965,0.0,0.0,-1.5824,-1.3994,0.0,-1.2396,-1.1118,0.0,0.0,0.0,-1.1688,0.0,0.0,0.0,0.0,0.0,0.0,0.0,0.0,0.0,0.0,0.0,0.0,0.0,0.0,0.0,0.0,0.0,0.0,0.0,0.0,0.0,-1.9381,-1.8927,-1.776,-1.4988,-1.3106,-1.261,-1.0674,-0.9472,-0.9655,-0.9796,-0.9742,-0.9616,-0.9686,-0.9522,-0.9125,-0.8987,-0.8454,-0.7791,-0.7791,-0.7658,-0.7257,-0.7658,-0.8189,-0.8853,-0.9123,-0.9658,-1.0462,-1.0665,-1.0829,-1.087,-1.1717,-1.1692,-1.1311,-0.9152,-0.9259,-0.9488,-1.0629,-1.1019,-1.1315,-1.1751,-1.254,-1.3491,-1.4552,0.0,0.0,0.0,0.0,0.0,0.0,0.0,0.0,0.0,-1.0562,-0.9879,-0.8905,-0.8311,-0.7631,-0.6804,-0.6587,-0.6296,-0.5887,0.0,0.0,0.0,0.0,0.0,0.0,0.0,0.0,0.0,0.0,0.0,-1.5628,0.0,-1.8502,-1.8489,-2.049,-2.1335,-2.1562,-2.1799,-2.1472,-2.0762,-2.0141,0.0,-1.8565,-1.9376,-1.7489,0.0,0.0,0.0,0.0,0.0,0.0,0.0,0.0,0.0,-1.0943,0.0,0.0,0.0,0.0,0.0,0.0,0.0,0.0,0.0,0.0,0.0,0.0,0.0,0.0,0.0,0.0,0.0,0.0,0.0,-1.7857,-1.7393,-1.6391,-1.4206,-1.2694,-1.225,-1.0426,-0.9388,-0.9669,-0.9525,-0.9314,-0.89,-0.9042,-0.8972,-0.8552,-0.8576,-0.8323,-0.8058,-0.8058,-0.7791,-0.766,-0.766,-0.8323,-0.9253,-0.8987,-0.9655,-1.0731,-1.0846,-1.0819,-1.0772,-1.1607,-1.1545,-1.1206,-0.9128,-0.9283,-0.9389,-1.0072,-1.1041,-1.1751,-1.1871,-1.3359,-1.4718,0.0,0.0,0.0,0.0,0.0,0.0,0.0,0.0,0.0,-1.2247,0.0,-1.1858,-0.9514,-0.8785,-0.8139,-0.7491,-0.7233,-0.6814,-0.6244,0.0,0.0,0.0,0.0,0.0,0.0,-0.8314,0.0,0.0,0.0,-1.4702,0.0,-1.9113,-1.982,0.0,-2.1924,-2.2515,-2.1897,-2.2676,-2.2715,-2.2192,0.0,-2.0545,-2.0044,0.0,-1.7307,-1.586,-1.5887,0.0,0.0,0.0,0.0,0.0,0.0,-1.2071,0.0,0.0,0.0,0.0,0.0,0.0,0.0,0.0,0.0,0.0,0.0,0.0,0.0,0.0,0.0,0.0,0.0,0.0,0.0,0.0,0.0,-1.6287,-1.7315,-1.4504,-1.2871,-1.3014,-1.0925,-0.956,-0.9426,-0.9707,-0.9525,-0.8768,-0.8998,-0.893,-0.856,-0.8273,-0.8192,-0.8058,-0.7791,-0.7791,-0.8058,-0.8323,-0.8856,-0.9661,-0.9924,-1.0323,-1.0721,-1.0738,-1.0734,-1.0758,-1.1484,-1.1455,-1.1206,-0.9162,-0.9172,-0.9385,-1.0493,-1.1277,-1.1893,-1.2398,-1.4242,-1.5752,0.0,0.0,0.0,0.0,0.0,0.0,0.0,0.0,-1.6364,0.0,0.0,-1.3254,-1.2608,-1.052,-0.9139,-0.8606,-0.7797,-0.7143,-0.6655,-0.6554,0.0,0.0,0.0,0.0,0.0,-0.8756,0.0,-1.2227,0.0,0.0,0.0,0.0,0.0,0.0,-2.214,-2.2432,-2.2597,-2.273,-2.2826,-2.2638,0.0,-2.1252,0.0,0.0,0.0,0.0,0.0,0.0,0.0,0.0,0.0,0.0,0.0,0.0,0.0,-1.1727,0.0,-0.9301,0.0,0.0,0.0,0.0,0.0,0.0,0.0,0.0,0.0,0.0,0.0,0.0,0.0,0.0,0.0,0.0,0.0,0.0,0.0,0.0,-1.1409,-1.1265,-1.0232,-0.9528,-0.9334,-0.9621,-0.9338,-0.8231,-0.8527,-0.829,-0.7406,-0.7643,-0.7827,-0.7959,-0.7895,-0.8058,-0.8323,-0.8323,-0.8859,-0.9661,-0.9655,-1.0054,-1.0721,-1.0721,-1.0775,-1.0887,-1.1324,-1.1434,-1.1324,-0.9455,-0.9238,-0.9391,-1.0805,-1.1419,-1.2101,-1.3212,-1.5277,-1.6837,0.0,0.0,0.0,-1.9563,-1.8573,0.0,0.0,0.0,-1.7775,0.0,0.0,-1.4754,-1.4744,-1.1901,0.0,0.0,-0.8548,-0.7666,-0.7115,-0.6919,0.0,0.0,0.0,0.0,0.0,0.0,-1.0763,-1.2396,0.0,0.0,-2.0323,-2.1779,-2.2681,-2.3095,-2.2311,-2.2518,-2.3237,-2.3066,-2.3186,-2.316,-2.1482,-2.19,0.0,-2.0329,0.0,0.0,0.0,0.0,0.0,-1.6816,0.0,0.0,0.0,0.0,0.0,0.0,0.0,0.0,0.0,0.0,0.0,0.0,0.0,0.0,0.0,0.0,0.0,0.0,0.0,0.0,0.0,0.0,0.0,0.0,0.0,0.0,0.0,0.0,0.0,-1.0334,-1.0251,-0.9986,-0.956,-0.963,-0.8967,-0.7717,-0.8088,-0.7814,-0.6662,-0.7203,-0.7658,-0.789,-0.8005,-0.8323,-0.8587,-0.8323,-0.8859,-0.9661,-0.9389,-0.9785,-1.0721,-1.0721,-1.0839,-1.1033,-1.125,-1.1495,-1.1554,-1.0136,-0.9625,-0.9474,-1.0689,-1.1394,-1.2429,-1.4337,-1.6573,0.0,0.0,0.0,0.0,0.0,0.0,0.0,0.0,0.0,-1.7823,-1.6507,0.0,-1.659,0.0,0.0,-1.1103,0.0,0.0,-0.8606,-0.7676,0.0,0.0,0.0,0.0,0.0,0.0,0.0,-1.0884,-1.2759,-1.5403,-1.6979,-1.8101,-2.0872,-2.2256,-2.2723,0.0,-2.3278,-2.3691,-2.405,0.0,0.0,-2.286,-2.2426,0.0,0.0,0.0,0.0,0.0,0.0,0.0,0.0,0.0,0.0,-1.6085,0.0,0.0,0.0,0.0,-1.0178,0.0,0.0,0.0,0.0,0.0,0.0,0.0,0.0,0.0,0.0,0.0,0.0,0.0,0.0,0.0,0.0,0.0,0.0,0.0,0.0,0.0,-1.1505,-1.1678,-1.1188,-0.9958,-0.9717,-0.9004,-0.7845,-0.7829,-0.7518,-0.656,-0.7243,-0.7597,-0.789,-0.8005,-0.8323,-0.8587,-0.8587,-0.8989,-0.9661,-0.9661,-1.006,-1.0721,-1.0721,-1.09,-1.1158,-1.1165,-1.1542,-1.1981,-1.0214,-0.9598,-0.9495,-1.0759,-1.1394,-1.2387,0.0,-1.5325,0.0,0.0,0.0,0.0,0.0,0.0,-1.9971,0.0,0.0,-2.032,-1.9352,-1.9363,0.0,0.0,0.0,-1.4717,0.0,0.0,0.0,0.0,0.0,0.0,0.0,0.0,0.0,0.0,0.0,-1.1608,0.0,0.0,0.0,0.0,0.0,-2.3032,-2.2415,0.0,0.0,-2.4093,-2.4907,-2.4945,0.0,-2.3306,-2.3668,-2.4204,-2.2603,-2.1933,-2.1787,-2.2414,-2.0704,0.0,0.0,0.0,-1.8673,-1.7574,0.0,0.0,0.0,0.0,0.0,0.0,0.0,0.0,0.0,0.0,0.0,0.0,0.0,0.0,0.0,0.0,0.0,0.0,0.0,0.0,0.0,0.0,0.0,0.0,0.0,0.0,0.0,-0.9518,-0.9562,-0.9268,-0.951,-0.9127,-0.7988,-0.777,-0.7335,-0.6456,-0.6816,-0.7295,-0.7778,-0.7972,-0.8323,-0.8587,-0.8587,-0.8853,-0.9253,-0.9253,-0.9788,-1.0313,-1.0215,-1.0812,-1.1424,-1.1193,-1.1317,-1.1513,-1.0129,-0.9497,-0.9487,-1.0589,-1.1344,0.0,0.0,0.0,0.0,0.0,-1.8646,0.0,-2.1696,0.0,-2.1681,0.0,-2.1396,-2.1089,-2.1484,-1.9861,0.0,-1.9683,-1.7791,0.0,0.0,0.0,0.0,0.0,0.0,-0.9467,0.0,0.0,0.0,0.0,0.0,-1.2044,-1.3624,0.0,-1.8643,0.0,0.0,-2.2816,0.0,0.0,-2.4403,-2.5016,0.0,-2.5578,-2.5243,-2.4072,-2.4541,-2.5136,-2.3376,-2.2993,-2.3226,-2.337,-2.1926,-2.0361,-2.1523,-2.1098,0.0,-1.8795,-1.7823,0.0,-1.5017,0.0,0.0,0.0,0.0,0.0,0.0,0.0,0.0,0.0,0.0,0.0,0.0,-0.6759,0.0,0.0,0.0,0.0,0.0,0.0,0.0,0.0,0.0,0.0,0.0,0.0,-0.9099,-0.8721,-0.9439,-0.9184,-0.7926,-0.7713,-0.7156,-0.6285,-0.6731,-0.7079,-0.7594,-0.8044,-0.8286,-0.8587,-0.8587,-0.8828,-0.9056,-0.9099,-0.9492,-1.0106,-1.0012,-1.0601,-1.134,-1.0786,-1.0916,-1.1134,-0.9939,-0.9455,0.0,0.0,-1.1352,0.0,0.0,0.0,-1.706,0.0,-1.9927,-2.0621,-2.1628,-2.1367,-2.1492,-2.2453,-2.0613,0.0,-2.2417,-1.8725,0.0,0.0,-1.714,-1.5652,-1.6863,0.0,0.0,0.0,0.0,0.0,0.0,0.0,0.0,0.0,-1.1667,0.0,-1.2867,-1.6011,-1.6992,-1.6643,-1.932,-2.1841,-2.3911,-2.4034,0.0,-2.6172,-2.5916,-2.6118,-2.6436,-2.5255,-2.5003,-2.4995,-2.4339,-2.3982,-2.3691,-2.3665,-2.316,-2.2681,-2.304,-2.209,-2.0712,-1.9676,0.0,0.0,0.0,0.0,-1.5308,0.0,0.0,0.0,0.0,0.0,0.0,0.0,0.0,0.0,0.0,0.0,0.0,0.0,0.0,0.0,0.0,0.0,0.0,0.0,0.0,0.0,0.0,0.0,-0.9753,-0.8461,-0.9332,-0.8998,-0.7661,-0.7628,-0.7074,-0.6041,-0.685,-0.72,-0.7333,-0.8094,-0.8473,-0.8579,-0.8579,-0.8648,-0.8946,-0.9065,-0.9438,-0.9974,-0.9967,-1.0264,-1.0766,-1.0378,-1.0367,-1.057,-1.0586,-1.0251,-1.0493,0.0,-1.3288,-1.4538,0.0,0.0,0.0,0.0,-2.0491,-2.0808,-2.1154,-2.1581,-2.13,-2.0027,-2.1042,0.0,0.0,0.0,0.0,-2.0864,-2.0596,-1.979,-1.8288,-1.807,0.0,-1.5195,0.0,0.0,-1.1168,0.0,0.0,0.0,0.0,0.0,-1.37,-1.6594,-1.8606,-1.9952,-2.0688,-2.2401,0.0,0.0,-2.5892,-2.7207,-2.6774,-2.6445,-2.6118,-2.534,-2.516,-2.5029,-2.4425,-2.4162,-2.4025,-2.3751,-2.3528,-2.34,-2.3494,-2.304,-2.2323,-2.1337,-2.0074,-1.8725,0.0,0.0,0.0,0.0,0.0,0.0,0.0,0.0,0.0,0.0,0.0,0.0,0.0,0.0,0.0,0.0,0.0,0.0,0.0,0.0,0.0,0.0,0.0,0.0,0.0,0.0,0.0,-0.8739,-0.8735,-0.8552,-0.8153,-0.7804,-0.7433,-0.7021,-0.7281,-0.76,-0.7851,-0.8098,-0.8348,-0.8462,-0.8462,-0.8446,-0.8557,-0.867,-0.8915,-0.9184,-0.9086,-0.9346,-0.9701,-1.0238,-1.0456,-1.0695,-1.0926,0.0,0.0,-1.2354,0.0,0.0,-1.7526,0.0,0.0,-2.26,-2.205,0.0,-2.2806,-2.2875,-2.247,-2.152,-2.1737,0.0,0.0,0.0,0.0,-2.165,-2.1391,-2.0537,-1.8863,-1.9172,0.0,-1.6944,0.0,0.0,-1.2607,0.0,0.0,0.0,0.0,-1.2861,0.0,-1.7237,-1.9639,-2.1601,-2.1753,0.0,0.0,-2.5103,-2.5982,-2.7096,-2.7073,-2.6881,-2.6554,-2.567,-2.545,-2.5525,-2.4867,-2.4588,-2.4453,-2.423,-2.405,-2.3913,-2.3913,-2.3309,-2.254,-2.1808,-2.064,-1.9541,-1.8665,-1.7934,-1.7259,0.0,0.0,0.0,0.0,0.0,0.0,0.0,0.0,0.0,0.0,0.0,0.0,0.0,0.0,0.0,0.0,0.0,0.0,0.0,0.0,0.0,0.0,0.0,0.0,-0.7626,-0.8345,-0.8367,-0.7629,-0.7593,-0.7448,-0.6926,-0.7113,-0.7487,-0.7932,-0.8125,-0.8223,-0.8339,-0.8394,-0.8359,-0.8274,-0.8497,-0.8719,-0.877,-0.9196,-0.9432,-0.9547,-0.9905,-1.0257,-1.0455,-1.1224,0.0,0.0,0.0,0.0,0.0,0.0,-2.0964,0.0,-2.4925,0.0,-2.3487,-2.4775,-2.4371,-2.404,-2.4328,0.0,-2.2241,-2.4277,-2.1232,-2.0376,-2.2901,-2.1059,-1.9781,-1.9177,-1.9401,0.0,0.0,0.0,0.0,0.0,0.0,0.0,0.0,0.0,0.0,0.0,-1.7884,-2.0277,0.0,-2.2745,-2.4035,-2.5655,-2.545,-2.5925,-2.6663,-2.6881,-2.7107,-2.7206,-2.6118,-2.5907,-2.5907,-2.534,-2.5026,-2.4821,-2.4821,-2.4573,-2.4307,-2.4307,-2.3367,-2.22,-2.1779,-2.0888,-2.0127,-2.0112,-1.9892,-1.9664,-1.9558,-1.9125,-1.8271,0.0,0.0,0.0,0.0,0.0,0.0,0.0,0.0,0.0,0.0,0.0,0.0,0.0,0.0,0.0,0.0,0.0,0.0,0.0,0.0,0.0,-0.6281,-0.7978,0.0,-0.6953,0.0,-0.7312,-0.6734,-0.6797,-0.7113,-0.7658,-0.7908,-0.8098,-0.809,-0.8194,-0.825,-0.8081,-0.8424,-0.8502,-0.86,-0.9613,-0.9887,-0.9793,-0.9823,-0.9927,-1.019,0.0,0.0,0.0,0.0,0.0,-1.9301,-2.3329,-2.5936,-2.6453,-2.3864,-2.5096,-2.5391,-2.3423,-2.3615,-2.3779,-2.3502,-2.2954,0.0,0.0,0.0,0.0,-2.3209,-2.1901,-2.1155,-2.1312,-2.1726,-2.2017,0.0,0.0,0.0,0.0,0.0,0.0,0.0,0.0,0.0,-1.8002,-1.8257,0.0,-2.3662,-2.4059,-2.4879,-2.6053,-2.6689,-2.6809,-2.6582,-2.6691,-2.6791,-2.6989,-2.6236,-2.5898,-2.5679,-2.534,-2.5026,-2.4821,-2.4821,-2.477,-2.4718,-2.4718,-2.3939,-2.2944,-2.2408,-2.1604,-2.0818,-2.0278,-2.0342,-2.0255,-1.9502,-1.9621,-1.9618,-1.8386,0.0,0.0,0.0,0.0,0.0,0.0,0.0,0.0,0.0,0.0,0.0,0.0,0.0,0.0,0.0,0.0,0.0,0.0,0.0,0.0,0.0,-0.7342,0.0,0.0,0.0,-0.7978,-0.8167,-0.7524,-0.7418,-0.7782,-0.7659,-0.7601,-0.7713,-0.7733,-0.772,-0.77,-0.821,-0.835,-0.8345,-0.9263,-0.95,-0.9538,-1.0215,-1.0455,-1.0193,0.0,0.0,0.0,0.0,0.0,0.0,0.0,-2.6835,0.0,-2.6724,-2.6727,-2.6661,-2.6168,-2.4811,-2.4006,-2.4203,-2.3224,-2.2699,-2.3195,-2.2659,-2.2593,-2.3116,-2.2706,0.0,-2.0857,-2.2053,-2.2622,-2.2756,0.0,0.0,0.0,0.0,0.0,0.0,0.0,-1.6581,0.0,0.0,0.0,-2.4106,-2.5023,-2.5827,-2.6637,-2.6902,-2.6912,-2.6791,-2.6691,-2.6791,-2.6881,-2.6464,-2.6136,-2.5907,-2.5679,-2.5348,-2.5017,-2.5017,-2.4923,-2.4821,-2.4821,-2.4003,-2.3045,-2.264,-2.1703,-2.0766,-2.0274,-2.0347,-2.0315,-1.9729,-1.9997,-1.9971,-1.8566,-1.7287,0.0,0.0,0.0,0.0,0.0,0.0,0.0,0.0,0.0,0.0,0.0,0.0,0.0,0.0,0.0,0.0,0.0,0.0,0.0,0.0,0.0,0.0,0.0,0.0,0.0,-0.7587,-0.7188,-0.729,-0.7872,-0.775,-0.7662,-0.7472,-0.778,-0.7772,-0.7477,-0.7961,-0.8138,-0.8278,-0.9041,-0.931,-0.9413,-1.0215,-1.019,-0.9927,0.0,-1.7946,0.0,0.0,-2.1413,0.0,-2.3149,-2.6701,-2.9307,-2.8877,-2.8011,-2.7713,-2.8404,-2.6092,-2.4562,-2.4793,-2.3571,-2.2782,-2.3101,-2.3062,-2.2979,-2.2803,-2.3067,-2.2339,-2.0635,-2.2078,-2.2849,0.0,0.0,0.0,0.0,0.0,0.0,0.0,0.0,0.0,0.0,0.0,-2.3881,-2.4748,-2.5711,-2.6582,-2.726,-2.6866,-2.6865,-2.6989,-2.6791,-2.6899,-2.6989,-2.6791,-2.6464,-2.6127,-2.6127,-2.578,-2.5331,-2.5221,-2.5017,-2.4923,-2.4821,-2.3921,-2.295,-2.2664,-2.1711,-2.0757,-2.0501,-2.0442,-2.0464,-2.0141,-2.0438,-2.0294,-1.8912,-1.8328,0.0,0.0,0.0,0.0,0.0,0.0,0.0,0.0,0.0,0.0,0.0,0.0,0.0,0.0,0.0,0.0,0.0,0.0,0.0,0.0,0.0,-0.701,-0.6531,0.0,-0.7252,0.0,-0.6876,-0.7293,-0.7872,-0.7872,-0.763,-0.7271,-0.7728,-0.7851,-0.7544,-0.776,-0.7943,-0.819,-0.8946,-0.9252,-0.9413,-1.0087,-1.006,-0.9794,0.0,0.0,0.0,0.0,0.0,0.0,0.0,-2.7341,-2.6712,-2.6462,-2.8258,-2.8806,-2.6516,-2.6281,-2.5612,-2.41,-2.3991,-2.3153,-2.1203,-2.2732,-2.3384,-2.2314,-2.2465,-2.2687,-2.2925,-2.302,-2.3631,0.0,0.0,0.0,0.0,0.0,0.0,0.0,0.0,0.0,0.0,-2.2742,-2.4453,-2.6371,-2.6481,-2.7004,-2.7664,-2.727,-2.7105,-2.6989,-2.6989,-2.7098,-2.7323,-2.7098,-2.6564,-2.6127,-2.6127,-2.5898,-2.5569,-2.5331,-2.5221,-2.5119,-2.4923,-2.3921,-2.3006,-2.2974,-2.2063,-2.1159,-2.1123,-2.1343,-2.1481,-2.1145,-2.108,-2.104,-2.0849,-1.9466,-1.7885,0.0,0.0,0.0,0.0,0.0,0.0,0.0,0.0,0.0,0.0,0.0,0.0,0.0,0.0,0.0,0.0,0.0,0.0,-0.6325,0.0,-0.6786,-0.7129,-0.7353,0.0,-0.7925,-0.7486,-0.7524,-0.7872,-0.7627,-0.7266,-0.7023,-0.7276,-0.7699,-0.803,-0.7918,-0.7943,-0.819,-0.8946,-0.9252,-0.9413,-1.0346,-1.019,-0.9794,0.0,0.0,0.0,0.0,0.0,0.0,0.0,-2.8037,-2.8282,-2.7115,-2.842,-2.8967,-2.7725,-2.6972,-2.6114,-2.4986,-2.4307,-2.3485,-2.2702,-2.2975,-2.317,-2.2823,-2.2768,-2.2642,-2.2494,-2.3203,-2.3856,0.0,0.0,0.0,0.0,0.0,0.0,0.0,0.0,-2.1457,-2.223,-2.4128,-2.5618,-2.6609,-2.6848,-2.7132,-2.737,-2.6976,-2.7039,-2.7206,-2.7098,-2.7314,-2.7638,-2.7206,-2.6881,-2.6554,-2.6464,-2.6136,-2.5679,-2.5569,-2.5238,-2.4923,-2.4821,-2.3921,-2.3014,-2.3014,-2.2108,-2.1211,-2.1211,-2.1325,-2.1343,-2.1018,-2.0685,-2.0726,-2.1258,-2.0685,-1.9449,0.0,0.0,0.0,0.0,0.0,0.0,0.0,0.0,0.0,0.0,0.0,0.0,0.0,0.0,0.0,0.0,0.0,0.0,-0.6926,0.0,-0.7914,-0.7293,-0.7194,-0.7282,-0.7283,-0.7098,-0.7376,-0.7872,-0.775,-0.7627,-0.7508,-0.7385,-0.7656,-0.794,-0.7891,-0.7899,-0.8085,-0.8913,-0.9252,-0.941,-1.0346,-1.0323,-0.9794,-2.7924,0.0,-2.6358,0.0,-2.7797,-2.8163,-2.7204,-2.8877,-2.9523,-2.7692,-2.8318,-2.8719,-2.7923,-2.6881,-2.5879,-2.4987,-2.4334,-2.3685,-2.3233,-2.3255,-2.3168,-2.2988,-2.3186,0.0,-2.2657,-2.3619,-2.418,-2.429,-2.2175,0.0,0.0,-1.899,0.0,0.0,-2.1914,-2.2787,-2.318,-2.5133,-2.6197,-2.6609,-2.6894,-2.7077,-2.7132,-2.6738,-2.6899,-2.7431,-2.7215,-2.753,-2.796,-2.7314,-2.7098,-2.7098,-2.6691,-2.6364,-2.5907,-2.5798,-2.5357,-2.5034,-2.4821,-2.3921,-2.3014,-2.3014,-2.2108,-2.1211,-2.1211,-2.1211,-2.1145,-2.1023,-2.0981,-2.1175,-2.1624,-2.1548,-2.0446,-1.7893,0.0,0.0,0.0,0.0,0.0,0.0,-1.2993,-1.2707,-1.2569,0.0,0.0,0.0,0.0,0.0,0.0,0.0,0.0,0.0,0.0,0.0,0.0,-0.7089,-0.7009,-0.6863,-0.7091,-0.7385,-0.7872,-0.775,-0.775,-0.7869,-0.7508,-0.7627,-0.7872,-0.7872,-0.7872,-0.8016,-0.8893,-0.9252,-0.941,-1.0346,-1.0455,-1.006,-3.0968,-3.1327,-3.1567,-3.1639,-3.1482,-3.0893,-2.9607,-2.9894,-2.9489,-2.7502,-2.8123,-2.7955,-2.5974,-2.5703,-2.4977,-2.3128,-2.4088,-2.3825,-2.1617,-2.3313,-2.3756,0.0,0.0,-2.423,-2.4122,-2.4386,-2.4634,-2.4776,0.0,0.0,-2.0079,-2.0061,-2.0741,-2.2162,-2.4005,-2.4739,-2.4803,-2.5619,-2.6197,-2.6591,-2.6591,-2.683,-2.7132,-2.6738,-2.6899,-2.7431,-2.7431,-2.7755,-2.8184,-2.7647,-2.7431,-2.7323,-2.68,-2.6582,-2.6473,-2.5907,-2.5679,-2.5578,-2.4923,-2.3921,-2.3014,-2.3014,-2.2108,-2.1211,-2.1211,-2.1211,-2.1325,-2.166,-2.2375,-2.2836,-2.2225,-2.1847,-2.0735,-1.7609,0.0,0.0,0.0,0.0,0.0,0.0,-1.2314,-1.1289,-1.1855,0.0,0.0,0.0,0.0,0.0,0.0,0.0,0.0,-0.7001,-0.6581,0.0,-0.6263,-0.7119,-0.7317,-0.6863,-0.7572,-0.7872,-0.7872,-0.7508,-0.7627,-0.7869,-0.7508,-0.7627,-0.7872,-0.7872,-0.7872,-0.8016,-0.8893,-0.9252,-0.941,-1.0346,-1.0721,-1.0721,-2.9603,-3.0735,-3.1668,-3.0679,-3.0826,-3.1026,-3.08,-3.0755,-3.026,-2.8976,-2.8735,-2.8154,-2.6914,-2.6071,-2.5198,0.0,-2.3629,-2.3492,0.0,-2.2983,-2.2962,-2.3321,-2.3126,-2.2954,-2.2596,-2.3598,-2.3901,-2.3341,0.0,0.0,0.0,-2.2392,-2.3116,-2.4318,-2.495,-2.5533,-2.6229,-2.6677,-2.7201,-2.745,-2.7516,-2.7434,-2.7285,-2.6936,-2.7107,-2.7431,-2.7638,-2.7853,-2.796,-2.7853,-2.7745,-2.7638,-2.7215,-2.6564,-2.5907,-2.5798,-2.5357,-2.5034,-2.4821,-2.3921,-2.3014,-2.3014,-2.2108,-2.1211,-2.1211,-2.1379,-2.1656,-2.1881,-2.2485,-2.283,-2.2815,-2.2142,-2.114,-1.9632,-1.9111,0.0,0.0,0.0,0.0,-1.4069,-1.3727,-1.3623,0.0,-1.2602,0.0,0.0,0.0,0.0,0.0,0.0,0.0,0.0,-0.8747,0.0,-0.735,-0.7524,-0.7345,-0.685,-0.737,-0.7627,-0.7872,-0.775,-0.775,-0.7872,-0.775,-0.775,-0.7872,-0.7872,-0.7872,-0.8016,-0.8893,-0.9252,-0.9413,-1.0609,-1.0853,-1.0853,-3.1021,-3.1956,-3.2689,-3.1771,-3.1707,-3.1633,-3.1204,-3.1067,-3.0419,-2.8795,-2.868,-2.8341,-2.7284,-2.6628,0.0,-2.4824,-2.3888,-2.362,-2.4115,-2.3374,-2.326,-2.4109,-2.3812,-2.3502,-2.3349,0.0,0.0,-2.3943,-2.4399,-2.4611,-2.4455,-2.4803,-2.5303,-2.5897,-2.6201,-2.6551,-2.7027,-2.7466,-2.7638,-2.7764,-2.7815,-2.7659,-2.7431,-2.7206,-2.7206,-2.7431,-2.7638,-2.7745,-2.7853,-2.7745,-2.7853,-2.7853,-2.7539,-2.6772,-2.6008,-2.5898,-2.5467,-2.5034,-2.4821,-2.3921,-2.3014,-2.3014,-2.2108,-2.1211,-2.1211,-2.1459,-2.1847,-2.2186,-2.2587,-2.2849,-2.2847,-2.2403,-2.1654,-2.0234,-2.0047,-1.9292,-1.7181,0.0,0.0,0.0,0.0,0.0,0.0,-1.3304,0.0,0.0,0.0,0.0,0.0,0.0,0.0,-0.8324,-0.9069,0.0,-0.7997,-0.7861,-0.7633,-0.7263,-0.7508,-0.775,-0.7872,-0.7872,-0.7872,-0.7872,-0.7872,-0.7872,-0.7872,-0.7872,-0.7872,-0.8016,-0.8767,-0.9252,-0.941,-1.0609,-1.1118,-1.1251,-3.4161,-3.4299,0.0,0.0,-3.3705,0.0,-3.0994,-3.0928,-3.0158,-2.7799,-2.828,-2.8434,-2.7474,-2.7379,-2.6914,-2.5974,0.0,0.0,0.0,-2.4196,-2.4336,-2.4533,-2.4977,-2.5427,-2.5619,-2.5863,-2.5949,-2.6004,-2.6399,-2.6389,-2.612,-2.6929,-2.7214,-2.6931,-2.7457,-2.7581,-2.741,-2.7796,-2.7745,-2.7539,-2.7431,-2.7431,-2.7431,-2.7431,-2.7431,-2.7431,-2.7431,-2.7638,-2.7853,-2.753,-2.7647,-2.7853,-2.7539,-2.6989,-2.6554,-2.6236,-2.5898,-2.5578,-2.4923,-2.3921,-2.3014,-2.3014,-2.2108,-2.1218,-2.124,-2.1496,-2.1936,-2.2595,-2.2924,-2.2992,-2.268,-2.2624,-2.2046,-1.9929,-1.9971,-1.9569,-1.7667,0.0,-1.6362,0.0,0.0,0.0,0.0,-1.2542,-1.1549,0.0,0.0,0.0,0.0,0.0,-0.7372,-0.7967,-0.8089,-0.8037,-0.8004,-0.8161,-0.8128,-0.7872,-0.7872,-0.7872,-0.7872,-0.7869,-0.7869,-0.7872,-0.7869,-0.7869,-0.7872,-0.7872,-0.7872,-0.8019,-0.8517,-0.8997,-0.941,-1.0346,-1.1118,-1.1912,0.0,0.0,-3.4267,-3.2805,-3.2947,-3.3029,-3.2148,-3.1773,-3.1224,-3.0192,-2.9942,-2.9749,-2.9555,-2.8806,-2.8247,-2.7966,-2.6486,-2.5555,-2.5363,-2.4603,-2.4284,-2.4756,-2.4408,-2.4326,-2.4517,-2.5243,-2.5812,-2.6444,-2.6536,-2.6744,-2.7065,-2.6853,-2.706,-2.7592,-2.727,-2.7485,-2.8038,-2.8135,-2.8301,-2.8408,-2.8184,-2.8077,-2.8077,-2.7853,-2.7862,-2.8077,-2.7853,-2.7853,-2.7853,-2.753,-2.7431,-2.7539,-2.7431,-2.7206,-2.6772,-2.6236,-2.5679,-2.5229,-2.4923,-2.3921,-2.3014,-2.3014,-2.2108,-2.1276,-2.1525,-2.1832,-2.2154,-2.2568,-2.3137,-2.339,-2.3091,-2.2798,-2.2498,-2.1867,-2.0433,-1.8794,-1.7352,-1.6499,-1.5172,0.0,-1.399,-1.4376,-1.2715,-1.3485,-1.3141,0.0,0.0,0.0,0.0,-0.8689,-0.8628,-0.8882,-0.9079,-0.8941,-0.8457,-0.8625,-0.8395,-0.7872,-0.7872,-0.7872,-0.7872,-0.7627,-0.7627,-0.7869,-0.7627,-0.7627,-0.7872,-0.7872,-0.7872,-0.8019,-0.8517,-0.8997,-0.941,-1.0346,-1.1118,-1.1912,-3.3214,-3.4053,-3.4612,-3.3458,-3.3553,-3.3549,-3.2923,-3.2567,-3.2025,-3.1111,-3.0767,-3.0583,-3.0583,-3.0111,-2.9818,-3.0146,-2.7939,-2.6309,-2.5761,-2.5333,-2.5109,-2.5117,-2.4902,-2.4966,-2.5262,-2.5702,-2.6142,-2.6591,-2.6884,-2.7085,-2.7215,-2.7521,-2.7828,-2.8067,-2.796,-2.8174,-2.8514,-2.8514,-2.8514,-2.8514,-2.8398,-2.8291,-2.8291,-2.8184,-2.8184,-2.8291,-2.7862,-2.7745,-2.7853,-2.7422,-2.7323,-2.7431,-2.7431,-2.7206,-2.6881,-2.6236,-2.5789,-2.5348,-2.4923,-2.3921,-2.2901,-2.2335,-2.1773,-2.1481,-2.1657,-2.2052,-2.2432,-2.2593,-2.2879,-2.2981,-2.2731,-2.248,-2.2355,-2.2111,-2.0255,-1.8381,-1.7322,-1.5327,-1.3632,-1.2699,-1.3212,-1.3436,-1.3262,-1.3379,-1.2821,-1.1481,0.0,0.0,-0.9432,-0.9154,-0.9069,-0.9354,-0.9585,-0.9433,-0.901,-0.8908,-0.8607,-0.7872,-0.7872,-0.7872,-0.7872,-0.7508,-0.7627,-0.7869,-0.7508,-0.7627,-0.7872,-0.7872,-0.7872,-0.7896,-0.8391,-0.8872,-0.941,-1.0346,-1.1118,-1.1912,-3.532,-3.5223,-3.5126,-3.4823,-3.4531,-3.4157,-3.3431,-3.306,-3.2445,-3.1249,-3.1123,-3.1123,-3.1123,-3.1123,-3.1295,-3.1731,-2.9412,-2.7407,-2.6172,-2.6419,-2.6218,-2.554,-2.5784,-2.616,-2.6582,-2.6591,-2.6591,-2.6591,-2.7252,-2.7343,-2.7215,-2.8218,-2.8524,-2.8398,-2.8708,-2.8824,-2.8621,-2.8737,-2.8621,-2.8398,-2.8504,-2.8504,-2.8398,-2.8504,-2.8504,-2.8291,-2.7755,-2.7638,-2.7853,-2.7206,-2.7107,-2.7323,-2.7323,-2.7107,-2.6772,-2.6236,-2.5798,-2.5467,-2.4923,-2.3921,-2.2675,-2.1554,-2.1452,-2.1708,-2.1759,-2.2213,-2.2637,-2.2689,-2.2668,-2.2606,-2.2237,-2.2111,-2.1937,-2.1291,-1.9559,-1.7917,-1.6832,0.0,-1.2333,-1.3063,-1.2324,-1.2229,-1.3591,-1.2763,-1.2016,-1.1765,-1.0277,-0.9445,0.0,-0.9344,-0.9249,-0.9629,-0.9758,-0.9643,-0.9526,-0.9042,-0.8607,-0.7872,-0.7872,-0.7872,-0.7869,-0.7508,-0.7505,-0.7869,-0.7508,-0.7508,-0.7872,-0.7872,-0.7872,-0.7894,-0.8138,-0.8742,-0.9538,-1.0346,-1.1251,-1.2045,-3.5223,-3.5223,-3.5126,-3.4823,-3.4531,-3.4157,-3.3431,-3.306,-3.2572,-3.1815,-3.1651,-3.1651,-3.1651,-3.1651,-3.1685,-3.1754,-3.1319,-3.0237,-2.826,-2.8013,-2.7347,-2.5954,-2.5931,-2.616,-2.6582,-2.6591,-2.6591,-2.6591,-2.6955,-2.7272,-2.7745,-2.7704,-2.8028,-2.8621,-2.8281,-2.8184,-2.8398,-2.8824,-2.9026,-2.9026,-2.9564,-2.9459,-2.9026,-2.9237,-2.9237,-2.892,-2.8067,-2.796,-2.8077,-2.7008,-2.6691,-2.6691,-2.6691,-2.6464,-2.6227,-2.5907,-2.556,-2.5229,-2.4923,-2.3921,-2.2675,-2.1554,-2.1452,-2.1767,-2.2045,-2.2374,-2.2696,-2.2974,-2.3076,-2.2856,-2.2613,-2.223,-2.159,-1.9826,-1.8967,-1.7467,-1.4424,0.0,-1.3076,-1.102,-1.2795,-1.3324,-1.1099,-1.2593,-1.2619,-1.0415,-1.0084,-0.9883,-0.9825,-0.9734,-0.9717,-0.9785,-0.9808,-0.9569,-0.9067,-0.8967,-0.8607,-0.7872,-0.763,-0.7627,-0.7869,-0.7016,-0.7016,-0.7872,-0.7266,-0.7385,-0.7872,-0.7872,-0.7872,-0.7896,-0.8517,-0.9124,-0.9793,-1.0478,-1.1383,-1.2309,-3.5416,-3.5223,-3.4932,-3.4823,-3.4726,-3.4447,-3.4003,-3.3687,-3.3317,-3.2503,-3.2252,-3.2156,-3.2156,-3.2156,-3.2271,-3.2558,-3.2581,-3.1759,-2.9933,-2.9164,-2.8104,-2.6461,-2.6482,-2.6695,-2.6999,-2.7008,-2.7008,-2.7008,-2.7323,-2.7638,-2.7853,-2.7862,-2.8077,-2.8514,-2.8184,-2.8388,-2.8708,-2.9026,-2.9248,-2.9564,-2.9889,-2.9879,-2.9764,-2.9659,-2.9659,-2.9659,-2.8495,-2.8184,-2.8184,-2.7107,-2.6691,-2.6582,-2.6354,-2.6236,-2.6017,-2.5569,-2.5008,-2.4351,-2.3913,-2.3239,-2.2335,-2.1432,-2.1591,-2.2001,-2.2147,-2.255,-2.2923,-2.3076,-2.2856,-2.2606,-2.2606,-2.2237,-2.1589,-2.0903,-1.9579,-1.7903,-1.5654,-1.4341,-1.2937,-1.1058,-1.192,-1.2314,-1.1547,-1.1927,-1.1857,-1.1176,-1.0545,-1.0107,-0.9954,-0.9866,-0.9822,-0.9822,-0.9822,-0.9579,-0.9095,-0.8976,-0.8607,-0.7872,-0.7508,-0.7508,-0.763,-0.6771,-0.6893,-0.7872,-0.7385,-0.763,-0.836,-0.8604,-0.8604,-0.8754,-0.9397,-0.9758,-1.0173,-1.1002,-1.178,-1.2309,-3.5812,-3.532,-3.503,-3.503,-3.4932,-3.4726,-3.4433,-3.4249,-3.3923,-3.3208,-3.2868,-3.2771,-3.2673,-3.2673,-3.2787,-3.3185,-3.3312,-3.2611,-3.0831,-3.0053,-2.8879,-2.7247,-2.7135,-2.7314,-2.753,-2.7431,-2.7431,-2.7431,-2.7745,-2.7853,-2.796,-2.8184,-2.8398,-2.8504,-2.8504,-2.8824,-2.9343,-2.9438,-2.9764,-3.0308,-3.0401,-3.0495,-3.0599,-3.0183,-3.0183,-3.0183,-2.8824,-2.8291,-2.8184,-2.7215,-2.6791,-2.6591,-2.6354,-2.6127,-2.6017,-2.545,-2.4565,-2.3576,-2.3127,-2.2562,-2.2017,-2.1421,-2.1759,-2.2198,-2.2271,-2.271,-2.3106,-2.3106,-2.2613,-2.223,-2.2606,-2.2111,-2.1532,-2.1438,0.0,-1.8671,-1.7103,-1.4917,-1.3146,-1.1936,-1.1379,-1.129,-1.198,-1.1403,-1.1333,-1.168,-1.0908,-1.0198,-1.0008,-0.9883,-0.9822,-0.9822,-0.9822,-0.97,-0.9335,-0.9095,-0.8744,-0.8161,-0.7766,-0.7643,-0.779,-0.7028,-0.7261,-0.8116,-0.775,-0.8119,-0.8973,-0.9095,-0.9358,-0.9536,-1.0035,-1.041,-1.0735,-1.1537,-1.2177,-1.2441,-3.6358,-3.5895,-3.5512,-3.5512,-3.5126,-3.4726,-3.4433,-3.4433,-3.4237,-3.372,-3.3621,-3.3522,-3.3224,-3.3224,-3.3151,-3.292,-3.3401,-3.2753,-3.0561,-3.0804,-3.0203,-2.8242,-2.7941,-2.7853,-2.7853,-2.753,-2.7431,-2.7431,-2.7745,-2.7853,-2.796,-2.8184,-2.8611,-2.9026,-2.9026,-2.9343,-2.9994,-3.0484,-3.0795,-3.1127,-3.1618,-3.1721,-3.1516,-3.1219,-3.0806,-3.0183,-2.8824,-2.8291,-2.8077,-2.7017,-2.6591,-2.6591,-2.6582,-2.6354,-2.6017,-2.5789,-2.4462,-2.3014,-2.3014,-2.2562,-2.2078,-2.17,-2.192,-2.2257,-2.2528,-2.2857,-2.3106,-2.3106,-2.2856,-2.2606,-2.2606,-2.2111,-2.1078,-1.9607,0.0,0.0,-1.6605,-1.5624,-1.476,-1.3328,-1.2641,-1.1858,-1.0955,-1.1758,-1.1728,-1.0545,-1.0407,-1.0151,-0.9856,-0.9825,-0.9822,-0.9822,-0.9822,-0.97,-0.9335,-0.9335,-0.9161,-0.9044,-0.8541,-0.8541,-0.8901,-0.8167,-0.8119,-0.8854,-0.848,-0.8723,-0.9214,-0.8976,-0.9419,-1.0053,-1.0202,-1.0735,-1.1531,-1.2107,-1.2441,-1.2704,-3.6734,-3.6452,-3.5991,-3.562,-3.5428,-3.5126,-3.4726,-3.4531,-3.4335,-3.415,-3.4064,-3.3878,-3.358,-3.3679,-3.3569,-3.2959,-3.3586,-3.3337,-3.1703,-3.1638,-3.0671,-2.8398,-2.8495,-2.8495,-2.8184,-2.797,-2.797,-2.797,-2.8077,-2.8184,-2.8184,-2.8601,-2.892,-2.9132,-2.9459,-2.9973,-3.0495,-3.0681,-3.1002,-3.1527,-3.1823,-3.2026,-3.2139,-3.1424,-3.1219,-3.0899,-2.9333,-2.8708,-2.8378,-2.7647,-2.7107,-2.6781,-2.6673,-2.6345,-2.6017,-2.556,-2.4231,-2.3014,-2.3014,-2.2343,-2.1513,-2.1613,-2.1942,-2.2257,-2.2557,-2.2871,-2.3106,-2.3106,-2.2606,-2.2362,-2.2613,-2.2111,-2.1491,-2.1375,0.0,-2.0568,-1.7673,-1.7297,-1.6133,-1.2787,-1.2497,-1.2092,-1.0846,-1.1062,-1.1055,-1.0297,-1.028,-1.0148,-0.9836,-0.9822,-0.9822,-0.9822,-0.9822,-0.97,-0.9579,-0.9552,-0.9376,-0.905,-0.8747,-0.8626,-0.8795,-0.8172,-0.8238,-0.8854,-0.8729,-0.9089,-0.9943,-0.9822,-1.0278,-1.0933,-1.1099,-1.1513,-1.2067,-1.3409,-1.4002,-1.4132,-3.732,-3.6934,-3.6452,-3.5895,-3.5704,-3.5428,-3.4932,-3.4628,-3.4531,-3.4433,-3.4249,-3.4064,-3.3878,-3.3977,-3.3805,-3.2931,-3.3676,-3.366,-3.2356,-3.1951,-3.0877,-2.8814,-2.892,-2.893,-2.8408,-2.8291,-2.8291,-2.8291,-2.8504,-2.8504,-2.8291,-2.9036,-2.9343,-2.9459,-2.9984,-3.0599,-3.1094,-3.1094,-3.13,-3.1721,-3.1924,-3.2229,-3.2555,-3.1527,-3.1333,-3.1414,-2.9649,-2.891,-2.8581,-2.796,-2.7422,-2.7098,-2.6881,-2.6554,-2.6017,-2.556,-2.4342,-2.3014,-2.3014,-2.2116,-2.1284,-2.1613,-2.1862,-2.2132,-2.2528,-2.2798,-2.2988,-2.2959,-2.248,-2.2111,-2.223,-2.1859,-2.1607,-2.2362,-2.2111,-2.1335,-1.9528,-1.8884,-1.7317,-1.4034,-1.3509,-1.2726,-1.1432,-1.1257,-1.0879,-1.0297,-1.0236,-1.0093,-0.9836,-0.9822,-0.9822,-0.9822,-0.9869,-0.9893,-0.9893,-0.9751,-0.9722,-0.9551,-0.9215,-0.9071,-0.9108,-0.8682,-0.8726,-0.9217,-0.9095,-0.9579,-1.0304,-1.0304,-1.0797,-1.1631,-1.1752,-1.2063,-1.2531,-1.4209,-1.4907,-1.5038,-3.79,-3.7505,-3.6922,-3.6452,-3.5991,-3.5428,-3.492,-3.4823,-3.4726,-3.4433,-3.4433,-3.4347,-3.4075,-3.4075,-3.3761,-3.3006,-3.385,-3.3691,-3.2158,-3.1451,-3.0785,-2.9659,-2.9237,-2.892,-2.8737,-2.8408,-2.8291,-2.8291,-2.8814,-2.8814,-2.8291,-2.9469,-2.9994,-2.9994,-3.0599,-3.1094,-3.1618,-3.1618,-3.1721,-3.2015,-3.2015,-3.2342,-3.2779,-3.164,-3.1333,-3.1311,-2.9428,-2.8688,-2.8581,-2.7745,-2.7431,-2.7431,-2.7431,-2.6772,-2.6127,-2.6127,-2.4684,-2.3014,-2.3014,-2.2116,-2.1291,-2.1613,-2.1693,-2.1854,-2.2484,-2.2623,-2.2595,-2.2541,-2.2362,-2.1985,-2.1607,-2.1362,-2.1362,-2.1985,-2.1859,-2.1734,-2.1985,-2.0049,-1.8285,-1.7662,-1.5727,-1.3947,-1.2552,-1.2262,-1.1657,-1.0404,-1.0134,-0.9981,-0.9829,-0.9822,-0.9822,-0.9822,-0.9971,-1.0049,-1.0053,-1.0053,-1.0198,-1.0487,-1.0192,-1.0131,-1.027,-0.9961,-0.9822,-0.9822,-0.9822,-0.994,-1.0304,-1.0304,-1.0867,-1.1799,-1.1799,-1.2266,-1.2968,-1.439,-1.4907,-1.5163,-3.79,-3.7808,-3.7518,-3.7015,-3.6452,-3.5991,-3.5416,-3.503,-3.4726,-3.4726,-3.4628,-3.464,-3.4347,-3.4445,-3.428,-3.3517,-3.4258,-3.3997,-3.2381,-3.1928,-3.1062,-2.9659,-2.9237,-2.892,-2.8737,-2.8824,-2.8814,-2.8814,-2.9459,-2.9669,-2.9469,-3.0183,-3.0588,-3.0588,-3.1105,-3.1414,-3.1618,-3.1618,-3.1629,-3.1721,-3.1924,-3.224,-3.2555,-3.1538,-3.1333,-3.1414,-2.9649,-2.9016,-2.891,-2.8291,-2.7862,-2.7745,-2.7431,-2.6772,-2.6127,-2.6127,-2.4906,-2.3576,-2.3127,-2.2449,-2.1857,-2.173,-2.1693,-2.1854,-2.2484,-2.2623,-2.2595,-2.2541,-2.2362,-2.1985,-2.1607,-2.1362,-2.1235,-2.1734,-2.1607,-2.1222,-2.0062,-1.9764,-1.8722,-1.6118,-1.5725,-1.4751,-1.2488,-1.2186,-1.1606,-1.0249,-0.9975,-0.9869,-0.9822,-0.9822,-0.9747,-0.9607,-0.9901,-1.0025,-0.9973,-1.0233,-1.0354,-1.0341,-1.0253,-1.0178,-1.011,-0.9914,-0.9822,-0.9822,-0.9822,-1.066,-1.186,-1.0785,-1.159,-1.3416,-1.2296,-1.2772,-1.439,-1.5814,-1.6974,-1.7876,-3.79,-3.79,-3.7703,-3.7201,-3.6734,-3.6181,-3.5716,-3.5126,-3.4823,-3.4823,-3.5017,-3.4932,-3.4628,-3.4824,-3.4688,-3.3624,-3.3541,-3.3387,-3.2878,-3.188,-3.0959,-3.0037,-2.9544,-2.9237,-2.9036,-2.9026,-2.9237,-2.9459,-3.0078,-3.0193,-2.9994,-3.0806,-3.0991,-3.0785,-3.1311,-3.1618,-3.1618,-3.1618,-3.1618,-3.1618,-3.1823,-3.2128,-3.2342,-3.1435,-3.1219,-3.1414,-2.9858,-2.9237,-2.9026,-2.8611,-2.8291,-2.797,-2.7539,-2.6881,-2.6227,-2.6017,-2.4795,-2.3464,-2.3127,-2.2335,-2.1713,-2.1568,-2.1503,-2.1635,-2.214,-2.2359,-2.2413,-2.2238,-2.2145,-2.1985,-2.1481,-2.1235,-2.1235,-2.1607,-2.1481,-2.0969,-1.9941,-1.9959,-1.9113,-1.6746,-1.678,-1.6012,-1.3789,-1.3102,-1.2024,-1.0088,-0.9873,-0.9724,-0.9661,-0.9665,-0.9611,-0.9629,-0.9816,-1.0055,-1.023,-1.0364,-1.0449,-1.0365,-1.0307,-1.0198,-1.0042,-0.989,-0.9822,-0.9819,-1.0418,-1.1378,-1.2457,-1.1619,-1.2681,-1.4649,-1.3165,-1.3911,-1.5944,-1.7232,-1.8262,-1.9036,-3.79,-3.79,-3.7716,-3.7307,-3.6734,-3.6263,-3.5716,-3.5223,-3.4823,-3.4823,-3.5223,-3.5416,-3.4932,-3.5211,-3.4984,-3.3579,-3.2453,-3.2264,-3.3429,-3.1575,-3.0546,-3.0721,-3.0047,-2.9659,-2.9659,-2.9448,-2.9554,-3.0099,-3.0588,-3.0588,-3.0203,-3.1116,-3.1311,-3.0888,-3.1414,-3.1618,-3.1618,-3.1618,-3.1618,-3.1618,-3.1618,-3.1924,-3.2342,-3.124,-3.1127,-3.1311,-3.0068,-2.9343,-2.9026,-2.8727,-2.8514,-2.8077,-2.7539,-2.6989,-2.6436,-2.5898,-2.4462,-2.3014,-2.3014,-2.2108,-2.1325,-2.1211,-2.1211,-2.1306,-2.1657,-2.1972,-2.2038,-2.1744,-2.1915,-2.1859,-2.1235,-2.1109,-2.1235,-2.1488,-2.1209,-2.1082,-2.0976,-2.0177,-1.9385,-1.8803,-1.8264,-1.7241,-1.5809,-1.4289,-1.2371,-0.9961,-0.9842,-0.9784,-0.9564,-0.9574,-0.9635,-0.9771,-0.9903,-1.024,-1.051,-1.0497,-1.0483,-1.047,-1.0327,-1.0178,-1.0025,-0.9883,-0.9819,-1.0061,-1.1499,-1.2333,-1.2573,-1.2817,-1.4135,-1.5882,-1.4654,-1.5423,-1.7361,-1.8524,-1.9036,-1.9425,-3.79,-3.79,-3.79,-3.7703,-3.7028,-3.6358,-3.6263,-3.5404,-3.4823,-3.4823,-3.5223,-3.5524,-3.5416,-3.5506,-3.5399,-3.5009,-3.3624,-3.2816,-3.2967,-3.1586,-3.0681,-3.0474,-3.0078,-3.0088,-3.0474,-3.0484,-3.0484,-3.0588,-3.1208,-3.1414,-3.1219,-3.1516,-3.1516,-3.1414,-3.1516,-3.1618,-3.1618,-3.1618,-3.1618,-3.1629,-3.1823,-3.1823,-3.1732,-3.1333,-3.1013,-3.0785,-2.9649,-2.9132,-2.9026,-2.8504,-2.8077,-2.7539,-2.7431,-2.6663,-2.5898,-2.5798,-2.4795,-2.3576,-2.3127,-2.2449,-2.1774,-2.1325,-2.1211,-2.1364,-2.1942,-2.2132,-2.2217,-2.2025,-2.2062,-2.1859,-2.1235,-2.1109,-2.1109,-2.1235,-2.0797,-2.0354,-2.0329,-1.936,-1.8604,-1.8398,-1.7865,-1.668,-1.4558,-1.2217,-1.0489,-0.963,-0.9754,-0.9814,-0.9703,-0.9972,-1.0042,-0.9922,-1.0217,-1.029,-1.0274,-1.0421,-1.0436,-1.0324,-1.0171,-1.0019,-0.9869,-0.9836,-1.0539,-1.1736,-1.1744,-1.3297,-1.5553,-1.4604,-1.5466,-1.7251,-1.614,-1.6932,-1.8652,-1.8908,-1.9686,-2.0716,-3.79,-3.79,-3.79,-3.79,-3.7227,-3.664,-3.6452,-3.5704,-3.5223,-3.5223,-3.5608,-3.5991,-3.5991,-3.6147,-3.5805,-3.4841,-3.3042,-3.1765,-3.1418,-3.0567,-2.9963,-2.9764,-3.0183,-3.0495,-3.0785,-3.1094,-3.1208,-3.1208,-3.1414,-3.1618,-3.1618,-3.1618,-3.1618,-3.1618,-3.1618,-3.1618,-3.1618,-3.1618,-3.1618,-3.1618,-3.1618,-3.1618,-3.1516,-3.1013,-3.0703,-3.0484,-2.9649,-2.9132,-2.8824,-2.8398,-2.7862,-2.7323,-2.7098,-2.6445,-2.5688,-2.5357,-2.447,-2.3352,-2.3127,-2.2335,-2.1546,-2.1325,-2.1211,-2.1298,-2.1642,-2.1831,-2.1896,-2.173,-2.1783,-2.1734,-2.1235,-2.1109,-2.1109,-2.1109,-2.0863,-2.0565,-2.0342,-1.949,-1.8732,-1.8515,-1.793,-1.6499,-1.3812,-1.2365,-1.0929,-0.9519,-1.0204,-1.0385,-0.9591,-1.0434,-1.0756,-1.007,-1.0208,-1.0376,-1.0455,-1.037,-1.0735,-1.1154,-1.0371,-0.9968,-0.9822,-1.0425,-1.1144,-1.1985,-1.3172,-1.4723,-1.6267,-1.5553,-1.668,-1.8625,-1.738,-1.8072,-1.982,-1.9947,-2.0462,-2.1109,-3.79,-3.79,-3.79,-3.79,-3.7505,-3.7015,-3.6546,-3.6086,-3.5716,-3.5716,-3.6168,-3.6546,-3.6546,-3.6596,-3.5951,-3.4052,-3.191,-3.0504,-3.0078,-2.9533,-2.9343,-2.9343,-3.037,-3.0888,-3.0888,-3.1414,-3.1586,-3.1611,-3.1586,-3.1586,-3.1611,-3.1586,-3.1618,-3.1618,-3.1618,-3.1618,-3.1618,-3.1618,-3.1618,-3.1618,-3.1424,-3.1322,-3.1414,-3.0703,-3.0391,-3.0183,-2.9659,-2.9142,-2.8621,-2.8291,-2.7755,-2.7206,-2.6663,-2.6008,-2.5467,-2.4932,-2.3921,-2.3014,-2.3014,-2.2116,-2.1211,-2.1211,-2.1247,-2.1298,-2.1298,-2.1502,-2.1689,-2.1378,-2.1472,-2.1607,-2.1109,-2.1109,-2.1109,-2.1109,-2.1069,-2.0783,-2.053,-1.9664,-1.9063,-1.8704,-1.7697,-1.6062,-1.3563,-1.3215,-1.2205,-0.965,-1.0878,-1.1176,-0.986,-1.1151,-1.1327,-1.0313,-1.0323,-1.0455,-1.0721,-1.0684,-1.1031,-1.1905,-1.0838,-1.0309,-1.0543,-1.1269,-1.1989,-1.2586,-1.4955,-1.6026,-1.6267,-1.6267,-1.7655,-1.9511,-1.8257,-1.8957,-2.0609,-2.0856,-2.0982,-2.1109,-3.79,-3.79,-3.79,-3.79,-3.7505,-3.7108,-3.7015,-3.664,-3.6263,-3.6263,-3.6734,-3.7015,-3.7015,-3.6189,-3.5176,-3.4052,-3.1939,-3.0673,-3.0639,-3.0183,-3.0088,-3.0578,-3.1208,-3.1516,-3.1516,-3.1516,-3.1625,-3.1716,-3.1625,-3.1614,-3.1727,-3.1636,-3.1618,-3.1618,-3.1618,-3.1618,-3.1618,-3.1618,-3.1721,-3.1924,-3.1618,-3.1424,-3.123,-3.0899,-3.0276,-2.9659,-2.9343,-2.8814,-2.8291,-2.7755,-2.7206,-2.6545,-2.6008,-2.5357,-2.4932,-2.4821,-2.3921,-2.3014,-2.3014,-2.2116,-2.1211,-2.1211,-2.1423,-2.1635,-2.1635,-2.1913,-2.2009,-2.1652,-2.1866,-2.1859,-2.1235,-2.1109,-2.1109,-2.1109,-2.0651,-2.0237,-1.985,-1.9126,-1.8419,-1.8052,-1.6644,-1.5029,-1.346,-1.3101,-1.2391,-1.0809,-1.2194,-1.2607,-1.1571,-1.1965,-1.1835,-1.0714,-1.0588,-1.0588,-1.0721,-1.1569,-1.1534,-1.0527,-1.1218,-1.2014,-1.3186,-1.2109,-1.3057,-1.5429,-1.5564,-1.6284,-1.7361,-1.7602,-1.8163,-1.9023,-1.9389,-1.9983,-2.0609,-2.0361,-2.0609,-2.1109,-3.79,-3.79,-3.79,-3.79,-3.7703,-3.7413,-3.7121,-3.6922,-3.6828,-3.6828,-3.7015,-3.7201,-3.7505,-3.5978,-3.4408,-3.307,-3.1572,-3.0445,-2.9932,-3.0172,-3.0588,-3.0785,-3.1311,-3.1618,-3.1618,-3.1618,-3.1592,-3.1715,-3.1592,-3.1581,-3.1726,-3.1603,-3.1618,-3.1618,-3.1618,-3.1618,-3.1618,-3.1721,-3.1913,-3.1913,-3.1516,-3.1333,-3.1127,-3.0599,-2.9869,-2.9237,-2.8814,-2.8504,-2.8291,-2.797,-2.7314,-2.6545,-2.6327,-2.5578,-2.471,-2.4368,-2.3697,-2.2901,-2.2562,-2.1888,-2.1211,-2.1211,-2.1452,-2.1693,-2.1693,-2.1955,-2.2097,-2.1737,-2.177,-2.1607,-2.1235,-2.1109,-2.1109,-2.1109,-2.0876,-2.0486,-1.9811,-1.9211,-1.8582,-1.7673,-1.6788,-1.5466,-1.3358,-1.3642,-1.3013,-1.1099,-1.3044,-1.3551,-1.1598,-1.2615,-1.2395,-1.0449,-1.0588,-1.0721,-1.0721,-1.1698,-1.228,-1.2402,-1.2647,-1.2706,-1.259,-1.2711,-1.3899,-1.58,-1.6402,-1.6891,-1.7256,-1.7608,-1.8037,-1.8521,-1.9023,-1.9859,-2.0856,-2.0482,-2.0862,-2.1362]},{"header":{"parameterUnit":"m.s-1","parameterCategory":1,"la1":30.6,"la2":28.766,"lo1":-90.7593,"lo2":-88.6598,"dx":0.0162,"dy":0.0183,"nx":116,"ny":114,"refTime":"2022-12-27T18:00:00:Z","depth":0,"parameterNumber":3,"parameterNumberName":"V-component_of_WINDS"},"data":[0.0,0.0,0.0,0.0,0.0,0.0,0.0,0.0,0.0,0.0,0.0,0.0,0.0,0.0,0.0,0.0,0.0,0.0,0.0,0.0,0.0,0.0,0.0,0.0,0.0,0.0,0.0,0.0,0.0,0.0,0.0,0.0,0.0,0.0,0.0,0.0,0.0,0.0,0.0,0.0,0.0,0.0,0.0,0.0,0.0,0.0,0.0,0.0,0.0,0.0,0.0,0.0,0.0,0.0,0.0,0.0,0.0,0.0,0.0,0.0,0.0,0.0,0.0,0.0,0.0,0.0,0.0,0.0,0.0,0.0,0.0,0.0,0.0,0.0,0.0,0.0,0.0,0.0,0.0,0.0,0.0,0.0,0.0,0.0,0.0,0.0,0.0,0.0,0.0,0.0,0.0,0.0,0.0,0.0,0.0,0.0,0.0,0.0,0.0,0.0,0.0,0.0,0.0,0.0,0.0,0.0,0.0,0.0,0.0,0.0,0.0,0.0,0.0,0.0,0.0,0.0,0.0,0.0,0.0,0.0,0.0,0.0,0.0,0.0,0.0,0.0,0.0,0.0,0.0,0.0,0.0,0.0,0.0,0.0,0.0,0.0,0.0,0.0,0.0,0.0,0.0,0.0,0.0,0.0,0.0,0.0,0.0,0.0,0.0,0.0,0.0,0.0,0.0,0.0,0.0,0.0,0.0,0.0,0.0,0.0,0.0,0.0,0.0,0.0,0.0,0.0,0.0,0.0,0.0,0.0,0.0,0.0,0.0,0.0,0.0,0.0,0.0,0.0,0.0,0.0,0.0,0.0,0.0,0.0,0.0,0.0,0.0,0.0,0.0,0.0,0.0,0.0,0.0,0.0,0.0,0.0,0.0,0.0,0.0,0.0,0.0,0.0,0.0,0.0,0.0,0.0,0.0,0.0,0.0,0.0,0.0,0.0,0.0,0.0,0.0,0.0,0.0,0.0,0.0,0.0,0.0,0.0,0.0,0.0,0.0,0.0,0.0,0.0,0.0,0.0,0.0,0.0,0.0,0.0,0.0,0.0,0.0,0.0,0.0,0.0,0.0,0.0,0.0,0.0,0.0,0.0,0.0,0.0,0.0,0.0,0.0,0.0,0.0,0.0,0.0,0.0,0.0,0.0,0.0,0.0,0.0,0.0,0.0,0.0,0.0,0.0,0.0,0.0,0.0,0.0,0.0,0.0,0.0,0.0,0.0,0.0,0.0,0.0,0.0,0.0,0.0,0.0,0.0,0.0,0.0,0.0,0.0,0.0,0.0,0.0,0.0,0.0,0.0,0.0,0.0,0.0,0.0,0.0,0.0,0.0,0.0,0.0,0.0,0.0,0.0,0.0,0.0,0.0,0.0,0.0,0.0,0.0,0.0,0.0,0.0,0.0,0.0,0.0,0.0,0.0,0.0,0.0,0.0,0.0,0.0,0.0,0.0,0.0,0.0,0.0,0.0,0.0,0.0,0.0,0.0,0.0,0.0,0.0,0.0,0.0,0.0,0.0,0.0,0.0,0.0,0.0,0.0,0.0,0.0,0.0,0.0,0.0,0.0,0.0,0.0,0.0,0.0,0.0,0.0,0.0,0.0,0.0,0.0,0.0,0.0,0.0,0.0,0.0,0.0,0.0,0.0,0.0,0.0,0.0,0.0,0.0,0.0,0.0,0.0,0.0,0.0,0.0,0.0,0.0,0.0,0.0,0.0,0.0,0.0,0.0,0.0,0.0,0.0,0.0,0.0,0.0,0.0,0.0,0.0,0.0,0.0,0.0,0.0,0.0,0.0,0.0,0.0,0.0,0.0,0.0,0.0,0.0,0.0,0.0,0.0,0.0,0.0,0.0,0.0,0.0,0.0,0.0,0.0,0.0,0.0,0.0,0.0,0.0,0.0,0.0,0.0,0.0,0.0,0.0,0.0,0.0,0.0,0.0,0.0,0.0,0.0,0.0,0.0,0.0,0.0,0.0,0.0,0.0,0.0,0.0,0.0,0.0,0.0,0.0,0.0,0.0,0.0,0.0,0.0,0.0,0.0,0.0,0.0,0.0,0.0,0.0,0.0,0.0,0.0,0.0,0.0,0.0,0.0,0.0,0.0,0.0,0.0,0.0,0.0,0.0,0.0,0.0,0.0,0.0,0.0,0.0,0.0,0.0,0.0,0.0,0.0,0.0,0.0,0.0,0.0,0.0,0.0,0.0,0.0,0.0,0.0,0.0,0.0,0.0,0.0,0.0,0.0,0.0,0.0,0.0,0.0,0.0,0.0,0.0,0.0,0.0,0.0,0.0,0.0,0.0,0.0,0.0,0.0,0.0,0.0,0.0,0.0,0.0,0.0,0.0,0.0,0.0,0.0,0.0,0.0,0.0,0.0,0.0,0.0,0.0,0.0,0.0,0.0,0.0,0.0,0.0,0.0,0.0,0.0,0.0,0.0,0.0,0.0,0.0,0.0,0.0,0.0,0.0,0.0,0.0,0.0,0.0,0.0,0.0,0.0,0.0,0.0,0.0,0.0,0.0,0.0,0.0,0.0,0.0,0.0,0.0,0.0,0.0,0.0,0.0,0.0,0.0,0.0,0.0,0.0,0.0,0.0,0.0,0.0,0.0,0.0,0.0,0.0,0.0,0.0,0.0,0.0,0.0,0.0,0.0,0.0,0.0,0.0,0.0,0.0,0.0,0.0,0.0,0.0,0.0,0.0,0.0,0.0,0.0,0.0,0.0,0.0,0.0,0.0,0.0,0.0,0.0,0.0,0.0,0.0,0.0,0.0,0.0,0.0,0.0,0.0,0.0,0.0,0.0,0.0,0.0,0.0,0.0,0.0,0.0,0.0,0.0,0.0,0.0,0.0,0.0,0.0,0.0,0.0,0.0,0.0,0.0,0.0,0.0,0.0,0.0,0.0,0.0,0.0,0.0,0.0,0.0,0.0,0.0,0.0,0.0,0.0,0.0,0.0,0.0,0.0,0.0,0.0,0.0,0.0,0.0,0.0,0.0,0.0,0.0,0.0,0.0,0.0,0.0,0.0,0.0,0.0,0.0,0.0,0.0,0.0,0.0,0.0,0.0,0.0,0.0,0.0,0.0,0.0,0.0,0.0,0.0,0.0,0.0,0.0,0.0,0.0,0.0,0.0,0.0,0.0,0.0,0.0,0.0,0.0,0.0,0.0,0.0,0.0,0.0,0.0,0.0,0.0,0.0,0.0,0.0,0.0,0.0,0.0,0.0,0.0,0.0,0.0,0.0,0.0,0.0,0.0,0.0,0.0,0.0,0.0,0.0,0.0,0.0,0.0,0.0,0.0,0.0,0.0,0.0,0.0,0.0,0.0,0.0,0.0,0.0,0.0,0.0,0.0,0.0,0.0,0.0,0.0,0.0,0.0,0.0,0.0,0.0,0.0,0.0,0.0,0.0,0.0,0.0,0.0,0.0,0.0,0.0,0.0,0.0,0.0,0.0,0.0,0.0,0.0,0.0,0.0,0.0,0.0,0.0,0.0,0.0,0.0,0.0,0.0,0.0,0.0,0.0,0.0,0.0,0.0,0.0,0.0,0.0,0.0,0.0,0.0,0.0,0.0,0.0,0.0,0.0,0.0,0.0,0.0,0.0,0.0,0.0,0.0,0.0,0.0,0.0,0.0,0.0,0.0,0.0,0.0,0.0,0.0,0.0,0.0,0.0,0.0,0.0,0.0,0.0,0.0,0.0,0.0,0.0,0.0,0.0,0.0,0.0,0.0,0.0,0.0,0.0,0.0,0.0,0.0,0.0,0.0,0.0,0.0,0.0,0.0,0.0,0.0,0.0,0.0,0.0,0.0,0.0,0.0,0.0,0.0,0.0,0.0,0.0,0.0,0.0,0.0,0.0,0.0,0.0,0.0,0.0,0.0,0.0,0.0,0.0,0.0,0.0,0.0,0.0,0.0,0.0,0.0,0.0,0.0,0.0,0.0,0.0,0.0,0.0,0.0,0.0,0.0,0.0,0.0,0.0,0.0,0.0,0.0,0.0,0.0,0.0,0.0,0.0,0.0,0.0,0.0,0.0,0.0,0.0,0.0,0.0,0.0,0.0,0.0,0.0,0.0,0.0,0.0,0.0,0.0,0.0,0.0,0.0,0.0,0.0,0.0,0.0,0.0,0.0,0.0,0.0,0.0,0.0,0.0,0.0,0.0,0.0,0.0,0.0,0.0,0.0,0.0,0.0,0.0,0.0,0.0,0.0,0.0,0.0,0.0,0.0,0.0,0.0,0.0,0.0,0.0,0.0,0.0,0.0,0.0,0.0,0.0,0.0,0.0,0.0,0.0,0.0,0.0,0.0,0.0,0.0,0.0,0.0,0.0,0.0,0.0,0.0,0.0,0.0,0.0,0.0,0.0,0.0,0.0,0.0,0.0,0.0,0.0,0.0,0.0,0.0,0.0,0.0,0.0,0.0,0.0,0.0,0.0,0.0,0.0,0.0,0.0,0.0,0.0,0.0,0.0,0.0,0.0,0.0,0.0,0.0,0.0,0.0,0.0,0.0,0.0,0.0,0.0,0.0,0.0,0.0,0.0,0.0,0.0,0.0,0.0,0.0,0.0,0.0,0.0,0.0,0.0,0.0,0.0,0.0,0.0,0.0,0.0,0.0,0.0,0.0,0.0,0.0,0.0,0.0,0.0,0.0,0.0,0.0,0.0,0.0,0.0,0.0,0.0,0.0,0.0,0.0,0.0,0.0,0.0,0.0,0.0,0.0,0.0,0.0,0.0,0.0,0.0,0.0,0.0,0.0,0.0,0.0,0.0,0.0,0.0,0.0,0.0,0.0,0.0,0.0,0.0,0.0,0.0,0.0,0.0,0.0,0.0,0.0,0.0,0.0,0.0,0.0,0.0,0.0,0.0,0.0,0.0,0.0,0.0,0.0,0.0,0.0,0.0,0.0,0.0,0.0,0.0,0.0,0.0,0.0,0.0,0.0,0.0,0.0,0.0,0.0,0.0,0.0,0.0,0.0,0.0,0.0,0.0,0.0,0.0,0.0,0.0,0.0,0.0,0.0,0.0,0.0,0.0,0.0,0.0,0.0,0.0,0.0,0.0,0.0,0.0,0.0,0.0,0.0,0.0,0.0,0.0,0.0,0.0,0.0,0.0,0.0,0.0,0.0,0.0,0.0,0.0,0.0,0.0,0.0,0.0,0.0,0.0,0.0,0.0,0.0,0.0,0.0,0.0,0.0,0.0,0.0,0.0,0.0,0.0,0.0,0.0,0.0,0.0,0.0,0.0,0.0,0.0,0.0,0.0,0.0,0.0,0.0,0.0,0.0,0.0,0.0,0.0,0.0,0.0,0.0,0.0,0.0,0.0,0.0,0.0,0.0,0.0,0.0,0.0,0.0,0.0,0.0,0.0,0.0,0.0,0.0,0.0,0.0,0.0,0.0,0.0,0.0,0.0,0.0,0.0,0.0,0.0,0.0,0.0,0.0,0.0,0.0,0.0,0.0,0.0,0.0,0.0,0.0,0.0,0.0,0.0,0.0,0.0,0.0,0.0,0.0,0.0,0.0,0.0,0.0,0.0,0.0,0.0,0.0,0.0,0.0,0.0,0.0,0.0,0.0,0.0,0.0,0.0,0.0,0.0,0.0,0.0,0.0,0.0,0.0,0.0,0.0,0.0,0.0,0.0,0.0,0.0,0.0,0.0,0.0,0.0,0.0,0.0,0.0,0.0,0.0,0.0,0.0,0.0,0.0,0.0,0.0,0.0,0.0,0.0,0.0,0.0,0.0,0.0,0.0,0.0,0.0,0.0,0.0,0.0,0.0,0.0,0.0,0.0,0.0,0.0,0.0,0.0,0.0,0.0,0.0,0.0,0.0,0.0,0.0,0.0,0.0,0.0,0.0,0.0,0.0,0.0,0.0,0.0,0.0,0.0,0.0,0.0,0.0,0.0,0.0,0.0,0.0,0.0,0.0,0.0,0.0,0.0,0.0,0.0,0.0,0.0,0.0,0.0,0.0,0.0,0.0,0.0,0.0,0.0,0.0,0.0,0.0,0.0,0.0,0.0,0.0,0.0,0.0,0.0,0.0,0.0,0.0,0.0,0.0,0.0,0.0,0.0,0.0,0.0,0.0,-2.7349,0.0,0.0,0.0,0.0,0.0,0.0,0.0,0.0,0.0,0.0,0.0,0.0,0.0,0.0,0.0,0.0,0.0,0.0,0.0,0.0,0.0,0.0,0.0,0.0,-0.6633,-0.6668,-0.6689,-0.6723,0.0,0.0,0.0,0.0,0.0,0.0,0.0,0.0,0.0,-0.6731,-0.6966,-0.8705,-1.0428,-1.2045,-1.1743,-1.0444,-0.8364,0.0,0.0,0.0,0.0,0.0,0.0,0.0,0.0,0.0,0.0,0.0,0.0,0.0,0.0,0.0,0.0,0.0,0.0,0.0,0.0,0.0,0.0,0.0,0.0,0.0,0.0,0.0,0.0,0.0,0.0,0.0,0.0,0.0,0.0,0.0,0.0,0.0,0.0,0.0,0.0,0.0,0.0,0.0,0.0,0.0,0.0,0.0,0.0,0.0,0.0,0.0,0.0,0.0,0.0,0.0,0.0,0.0,0.0,0.0,0.0,0.0,0.0,0.0,0.0,0.0,0.0,0.0,0.0,0.0,0.0,0.0,-2.6795,0.0,0.0,0.0,0.0,0.0,0.0,0.0,0.0,0.0,0.0,0.0,0.0,0.0,0.0,0.0,0.0,0.0,0.0,0.0,0.0,0.0,-0.6594,-0.6772,-0.6824,-0.688,-0.6999,-0.7017,-0.6979,-0.6824,-0.6842,0.0,0.0,0.0,0.0,-0.6199,-0.7201,-0.807,-0.8816,-1.1696,-1.4361,-1.6853,-1.8007,-1.6034,-1.1499,-1.1505,0.0,0.0,0.0,0.0,0.0,0.0,0.0,0.0,0.0,0.0,0.0,0.0,0.0,0.0,0.0,0.0,0.0,0.0,0.0,0.0,0.0,0.0,0.0,0.0,0.0,0.0,0.0,0.0,0.0,0.0,0.0,0.0,0.0,0.0,0.0,0.0,0.0,0.0,0.0,0.0,0.0,0.0,0.0,0.0,0.0,0.0,0.0,0.0,0.0,0.0,0.0,0.0,0.0,0.0,0.0,0.0,0.0,0.0,0.0,0.0,0.0,0.0,0.0,-3.2741,-3.3439,-3.4793,-3.4964,-3.5461,-3.6051,-3.3273,-3.2912,-3.3968,0.0,0.0,0.0,0.0,0.0,0.0,0.0,0.0,0.0,0.0,0.0,0.0,0.0,0.0,0.0,0.0,0.0,0.0,0.0,0.0,-0.6897,-0.7495,-0.7446,-0.7617,-0.8129,-0.8077,-0.7826,-0.7338,-0.737,0.0,0.0,0.0,-0.7413,-0.7294,-0.8168,-0.987,-1.2419,-1.6308,-1.8724,-1.9669,-2.0137,-1.9874,-1.9013,-1.7995,-1.5826,-1.2978,0.0,0.0,0.0,0.0,0.0,0.0,0.0,0.0,0.0,0.0,0.0,0.0,0.0,0.0,0.0,0.0,0.0,0.0,0.0,0.0,0.0,0.0,0.0,0.0,0.0,0.0,0.0,0.0,0.0,0.0,0.0,0.0,0.0,0.0,0.0,0.0,0.0,0.0,0.0,0.0,0.0,-2.1784,-2.4754,0.0,0.0,0.0,0.0,0.0,0.0,0.0,0.0,0.0,0.0,0.0,0.0,0.0,-3.0208,-3.1429,-3.4015,-3.5491,-3.5848,-3.8084,-3.9701,-4.0674,-3.9948,-4.013,-4.0847,-3.8193,0.0,-3.5933,-3.5272,0.0,0.0,0.0,0.0,0.0,0.0,0.0,0.0,0.0,0.0,0.0,0.0,0.0,0.0,0.0,0.0,0.0,0.0,0.0,0.0,0.0,-0.8316,-0.9016,-0.9592,-1.0179,-1.0125,-0.9206,-0.9218,0.0,0.0,-0.7509,-0.7668,-0.7946,-0.8945,-1.1921,-1.6916,-1.9965,-2.2554,-2.4632,-2.4752,-2.4972,-2.5334,-2.48,-2.1874,-1.7377,-1.7254,0.0,0.0,0.0,0.0,0.0,0.0,0.0,0.0,0.0,0.0,0.0,0.0,0.0,0.0,0.0,0.0,0.0,0.0,0.0,0.0,0.0,0.0,0.0,0.0,0.0,0.0,0.0,0.0,0.0,0.0,0.0,0.0,0.0,0.0,0.0,0.0,0.0,0.0,0.0,-1.9637,-2.2585,-2.5764,-2.5355,-2.4173,0.0,0.0,0.0,0.0,0.0,0.0,0.0,0.0,0.0,-3.1032,-3.2428,-3.3845,-3.5321,-3.7889,-3.97,-4.0749,-4.1452,-4.2539,-4.3859,-4.3032,-4.3124,-4.392,-4.2755,-4.2011,-4.1402,-3.8922,-3.7028,-3.542,0.0,0.0,0.0,0.0,-2.7358,-2.8317,0.0,0.0,0.0,0.0,0.0,0.0,0.0,0.0,0.0,0.0,0.0,0.0,-0.8527,-0.9916,-1.104,-1.1597,-1.2234,-1.214,-1.0971,-1.0698,0.0,-0.8393,-0.8202,-0.8346,-0.8787,-1.125,-1.5359,-2.1088,-2.3381,-2.5843,-2.8302,-2.8241,-2.8525,-2.9075,-2.9075,-2.6293,-2.1541,-2.0755,-1.8687,-1.5806,0.0,0.0,0.0,0.0,0.0,0.0,0.0,0.0,0.0,0.0,0.0,0.0,0.0,0.0,0.0,0.0,0.0,0.0,0.0,0.0,0.0,0.0,0.0,0.0,0.0,0.0,0.0,0.0,0.0,0.0,0.0,0.0,0.0,0.0,0.0,0.0,0.0,-2.2617,-2.5057,-2.8424,-2.8526,-2.7857,0.0,0.0,0.0,0.0,0.0,0.0,-3.1713,-3.2165,-3.3183,-3.4925,-3.6347,-3.7791,-3.9298,-4.1189,-4.2699,-4.3771,-4.3159,-4.356,-4.4804,-4.4208,-4.4299,-4.4944,-4.5163,-4.543,-4.5426,-4.2112,-4.03,-3.9524,-3.8822,-3.6919,-3.4508,-3.3845,-3.3979,-3.4529,0.0,0.0,0.0,0.0,0.0,0.0,0.0,0.0,0.0,0.0,0.0,-1.0339,-1.1291,-1.2697,-1.3828,-1.4435,-1.3838,-1.2999,-1.2,-1.1027,-1.0044,-0.9007,-0.9541,-0.9957,-1.0096,-1.6273,-2.1045,-2.4256,-2.6872,-2.8387,-2.8857,-2.8857,-2.8873,-2.8904,-2.9029,-2.7422,-2.4531,-2.3795,-2.233,-2.021,-1.6113,0.0,0.0,0.0,0.0,0.0,0.0,0.0,0.0,0.0,0.0,0.0,0.0,0.0,0.0,0.0,0.0,0.0,0.0,0.0,0.0,0.0,0.0,0.0,0.0,0.0,0.0,0.0,0.0,0.0,0.0,0.0,0.0,0.0,0.0,0.0,0.0,0.0,0.0,-3.4932,-3.6069,0.0,0.0,0.0,0.0,-2.9401,-3.0264,-3.1976,-3.4548,-3.5607,-3.8022,-4.2144,-4.2374,-4.2832,-4.3673,-4.3825,-4.3539,-4.2851,-4.2813,-4.2891,-4.3042,-4.2928,-4.2964,-4.3181,-4.3995,-4.4839,-4.5603,-4.5355,-4.5167,-4.4767,-4.2334,-4.1265,-4.073,-3.8307,-3.8955,-4.1055,0.0,0.0,0.0,-0.6574,-0.647,-0.6436,-0.6757,-0.6982,-0.7231,-0.7503,-0.9566,-1.1228,-1.187,-1.3951,-1.5575,-1.639,-1.689,-1.6529,-1.5061,-1.4368,-1.3252,-1.1516,-1.0881,-1.1734,-1.4212,-1.9597,-2.3311,-2.5118,-2.7098,-2.8654,-2.9738,-2.9496,-2.972,-3.0336,-3.0006,-2.9217,-2.8104,-2.7366,-2.5607,-2.3252,-2.2236,-1.9341,0.0,0.0,0.0,0.0,0.0,0.0,0.0,0.0,0.0,0.0,0.0,0.0,0.0,0.0,0.0,0.0,0.0,0.0,0.0,0.0,0.0,0.0,0.0,0.0,0.0,0.0,0.0,0.0,0.0,0.0,0.0,0.0,0.0,0.0,0.0,0.0,0.0,-3.3571,-3.5296,0.0,-3.4661,-3.4478,-3.4318,-3.3979,-3.6293,-3.8385,-3.991,-4.0311,-4.1475,-4.352,-4.308,-4.2947,-4.3233,-4.3749,-4.3864,-4.3596,-4.4624,-4.512,-4.5182,-4.5652,-4.623,-4.6892,-4.7197,-4.7871,-4.8777,-4.9295,-4.8567,-4.705,-4.6685,-4.6512,-4.6414,-4.6088,-4.6489,-4.7233,0.0,0.0,0.0,-0.6693,-0.654,-0.6497,-0.6996,-0.7218,-0.7685,-0.8723,-1.0865,-1.2629,-1.357,-1.577,-1.7374,-1.7943,-1.8379,-1.8053,-1.6761,-1.5932,-1.4801,-1.3227,-1.3064,-1.498,-1.9123,-2.2327,-2.4832,-2.6601,-2.7813,-2.903,-3.0228,-3.01,-3.0482,-3.1191,-3.0733,-3.0479,-3.0302,-2.9627,-2.8259,-2.6502,-2.5821,-2.256,-1.7994,0.0,0.0,0.0,0.0,0.0,0.0,0.0,0.0,0.0,0.0,0.0,0.0,0.0,0.0,0.0,0.0,0.0,0.0,0.0,0.0,0.0,0.0,0.0,0.0,0.0,0.0,0.0,0.0,0.0,0.0,0.0,0.0,0.0,0.0,0.0,-3.2903,-3.4046,-3.6061,-3.7196,-3.6845,-3.7427,-3.7947,-3.8098,-4.0502,-4.2183,-4.2775,-4.2794,-4.3176,-4.3978,-4.3482,-4.3461,-4.4015,-4.4569,-4.497,-4.5254,-4.6339,-4.6851,-4.687,-4.7677,-4.791,-4.7774,-4.8965,-4.9529,-4.9771,-5.1195,-5.0966,-4.9777,-5.0312,-5.05,-5.0514,-5.1067,-5.1255,-5.1232,0.0,0.0,-0.6159,-0.6693,-0.6574,-0.6673,-0.7458,-0.7483,-0.8349,-1.0898,-1.2756,-1.4578,-1.6581,-1.8238,-1.9235,-1.9194,-1.8135,-1.7316,-1.6878,-1.5375,-1.4364,-1.4051,-1.6203,-1.9655,-2.4492,-2.4642,-2.5986,-2.8716,-2.919,-2.9679,-3.0227,-3.0728,-3.1092,-3.1207,-3.1223,-3.1124,-3.0992,-3.0479,-3.0227,-2.9896,-2.6446,-2.4279,-2.2643,0.0,0.0,0.0,0.0,0.0,0.0,0.0,0.0,0.0,0.0,0.0,0.0,0.0,0.0,0.0,0.0,0.0,0.0,0.0,0.0,0.0,0.0,0.0,0.0,0.0,0.0,0.0,0.0,0.0,0.0,0.0,0.0,0.0,-2.6907,-3.1912,-3.6025,-3.7111,-3.9005,-4.0519,-4.1257,-4.1493,-4.1552,-4.1533,-4.2335,-4.2851,-4.2832,-4.2775,-4.3138,-4.3958,-4.3996,-4.4758,-4.6355,-4.6476,-4.6915,-4.7709,-4.7766,-4.7785,-4.7804,-4.8629,-4.7715,-4.5649,-4.9025,-4.963,-4.8411,-5.097,-5.2469,-5.3176,-5.3004,-5.2958,-5.2958,-5.2886,-5.2881,-5.2862,-0.592,-0.5793,-0.5822,-0.6406,-0.6418,-0.6511,-0.7074,-0.7629,-0.8407,-0.9622,-1.245,-1.4832,-1.6029,-1.8068,-1.9422,-1.9649,-1.9514,-1.9019,-1.8006,-1.7264,-1.6867,-1.6862,-2.0067,-2.2797,-2.4791,-2.6457,-2.7962,-2.9218,-2.9373,-2.9863,-3.0626,-3.0848,-3.0992,-3.1074,-3.1173,-3.1124,-3.1055,-3.1505,-3.1112,-3.0148,-2.969,-2.7973,-2.5696,0.0,0.0,0.0,0.0,0.0,0.0,0.0,0.0,0.0,0.0,0.0,0.0,0.0,0.0,0.0,0.0,0.0,0.0,0.0,0.0,0.0,0.0,0.0,0.0,0.0,0.0,0.0,0.0,0.0,0.0,0.0,0.0,-3.2521,-3.2989,-3.4733,-3.6961,-3.9683,-4.0577,-4.129,-4.2022,-4.2781,-4.2938,-4.2218,-4.3092,-4.3632,-4.3528,-4.2408,-4.2448,-4.3878,-4.3954,-4.4489,-4.5516,-4.6781,-4.7548,-4.7796,-4.8924,-4.9447,-4.9504,-5.084,-5.1421,-5.1483,-5.2552,-5.3129,-5.335,-5.4181,-5.4649,-5.4779,-5.4227,-5.3974,-5.3986,-5.4489,-5.4708,-5.4428,-0.5675,-0.5545,-0.5555,-0.6123,-0.6081,-0.623,-0.7043,-0.7556,-0.8453,-1.0267,-1.277,-1.495,-1.6375,-1.8201,-1.9397,-1.9552,-1.9672,-1.9263,-1.8153,-1.8234,-1.9055,-2.0608,-2.3039,-2.5002,-2.6367,-2.7977,-2.9012,-2.9431,-3.0021,-3.0552,-3.1125,-3.1441,-3.1633,-3.1665,-3.1836,-3.173,-3.1463,-3.1974,-3.1741,-3.1097,-3.1492,-2.9769,-2.6997,-2.6981,-2.4587,-2.1292,-2.1786,-2.1237,-2.0128,-1.9414,0.0,0.0,0.0,0.0,0.0,0.0,0.0,0.0,0.0,0.0,0.0,0.0,0.0,0.0,0.0,0.0,0.0,0.0,0.0,0.0,0.0,0.0,0.0,0.0,-3.1986,-3.5848,-3.8013,-3.8233,-3.9028,-4.1358,-4.1688,-4.2166,-4.3336,-4.398,-4.4212,-4.3961,-4.4881,-4.5407,-4.5388,-4.4519,-4.4122,-4.4429,-4.5175,-4.5633,-4.5681,-4.7449,-4.8674,-4.931,-5.0209,-5.0805,-5.1159,-5.2399,-5.2675,0.0,-5.3861,-5.425,-5.3842,-5.5063,-5.5573,0.0,0.0,0.0,0.0,0.0,-5.539,-5.5193,-0.5404,-0.53,-0.534,-0.5834,-0.5697,-0.5924,-0.7136,-0.736,-0.8566,-1.1827,-1.3374,-1.5001,-1.7183,-1.8524,-1.9295,-1.9182,-1.9251,-1.8851,-1.7969,-1.8832,-2.0854,-2.4224,-2.5129,-2.6464,-2.8317,-2.9008,-2.9508,-2.9716,-3.0834,-3.1482,-3.1696,-3.2269,-3.2547,-3.2547,-3.2757,-3.2522,-3.2087,-3.2071,-3.2159,-3.2266,-3.2266,-3.0433,-2.7624,-2.7454,-2.6036,-2.4115,-2.3585,-2.2847,-2.2037,-2.1372,0.0,0.0,0.0,0.0,0.0,0.0,0.0,0.0,0.0,0.0,0.0,0.0,0.0,0.0,0.0,0.0,0.0,0.0,0.0,0.0,0.0,0.0,0.0,0.0,-3.5157,-3.7932,-4.1561,-4.1593,-4.1585,-4.2418,-4.2621,-4.3258,-4.4745,-4.513,-4.5508,-4.6013,-4.6992,-4.7562,-4.7591,0.0,0.0,0.0,0.0,-4.7331,-4.6682,-4.8457,-5.0097,-5.1554,-5.1623,-5.2015,-5.2664,-5.3471,-5.2608,-5.0646,-5.388,-5.4046,-5.2203,-5.4674,-5.5703,-5.5703,-5.5551,-5.548,-5.5389,-5.5084,-5.5154,-5.5365,-0.5078,-0.5068,-0.5137,-0.5461,-0.5547,-0.5864,-0.6704,-0.7463,-0.8953,-1.1687,-1.35,-1.5318,-1.7482,-1.9019,-1.9643,-1.9218,-1.942,-1.9611,-1.9766,-2.0511,-2.1906,-2.4043,-2.5777,-2.7122,-2.8057,-2.8958,-2.9935,-3.1034,-3.1152,-3.1527,-3.2048,-3.2089,-3.2191,-3.2302,-3.2413,-3.2501,-3.2486,-3.2678,-3.242,-3.1925,-3.2029,-3.1687,-3.1074,-3.0574,-2.9344,-2.7933,-2.8295,-2.7906,-2.7067,-2.5725,-2.5237,-2.5032,-2.4005,-2.2669,0.0,0.0,0.0,0.0,0.0,0.0,0.0,0.0,0.0,0.0,0.0,0.0,0.0,0.0,0.0,0.0,0.0,0.0,0.0,-3.3986,-3.7514,-4.0405,-4.1194,-4.2253,-4.3013,-4.3265,-4.441,-4.5044,-4.4697,-4.6577,-4.7257,-4.5876,-4.7484,-4.8207,-4.7486,-4.6302,-4.584,-4.6244,-4.6568,-4.7289,-4.8414,-5.0144,-5.1478,-5.2391,0.0,0.0,-5.3575,-5.4324,-5.4408,-5.4002,-5.489,-5.504,-5.4645,-5.5404,-5.5703,-5.5684,-5.5618,-5.5551,-5.5231,-5.3168,-5.3694,-5.5116,-0.4892,-0.4951,-0.5029,-0.5127,-0.5319,-0.5724,-0.6538,-0.7246,-0.8483,-1.0631,-1.2316,-1.4048,-1.5923,-1.7113,-1.7983,-1.856,-1.9358,-2.0289,-2.1292,-2.2166,-2.3259,-2.4664,-2.6219,-2.7364,-2.8008,-2.923,-3.0345,-3.129,-3.1573,-3.1814,-3.2094,-3.2038,-3.2094,-3.2191,-3.2191,-3.2358,-3.2594,-3.2648,-3.2501,-3.2367,-3.2404,-3.2473,-3.241,-3.1844,-3.1036,-3.0276,-3.0308,-2.9757,-2.8881,-2.7922,-2.7664,-2.7646,-2.7412,-2.623,-2.4563,0.0,0.0,0.0,0.0,0.0,0.0,0.0,0.0,0.0,0.0,0.0,0.0,0.0,0.0,-2.875,0.0,0.0,-3.3942,-3.6092,-3.8331,-4.0358,-4.2008,-4.3258,-4.4003,-4.403,-4.4718,-4.5519,-4.6318,-4.7222,-4.7711,-4.7594,-4.8636,-4.9083,-4.8666,-4.8028,-4.7476,-4.7121,-4.7945,-4.8548,-4.8909,-5.064,-5.2063,-5.3213,-5.3622,-5.3984,-5.4353,-5.4741,-5.4901,-5.4901,-5.5094,-5.5229,-5.5307,-5.5596,-5.5703,-5.5684,-5.5618,-5.5551,-5.5327,-5.4025,-5.4339,-5.5231,-0.4832,-0.4931,-0.499,-0.4971,-0.5127,-0.5583,-0.6538,-0.7084,-0.8066,-0.9932,-1.1296,-1.2758,-1.442,-1.5224,-1.6232,-1.775,-1.9011,-2.0408,-2.1891,-2.3057,-2.403,-2.4904,-2.625,-2.7261,-2.791,-2.9516,-3.0692,-3.1435,-3.1971,-3.2135,-3.1996,-3.1996,-3.2038,-3.215,-3.1996,-3.2165,-3.2484,-3.2413,-3.2523,-3.2788,-3.2843,-3.2843,-3.2765,-3.2191,-3.1727,-3.1384,-3.0647,-2.9925,-2.9234,-2.8886,-2.8982,-2.9337,-3.011,-2.9502,-2.795,-2.4922,-2.4201,0.0,0.0,0.0,0.0,0.0,0.0,0.0,0.0,0.0,-2.736,-2.988,-3.0666,-3.1612,-3.3924,-3.3994,-3.488,-3.8479,-3.9242,-4.0339,-4.3024,-4.4202,-4.4795,-4.4804,-4.505,-4.5885,-4.7537,-4.7575,-4.7988,-4.9152,-4.9529,-4.9778,-4.9879,-5.0031,-4.9581,-4.8476,-4.9797,-5.0326,-4.9854,-5.1237,-5.2639,-5.4031,-5.4031,-5.4315,-5.4931,-5.4901,-5.4996,-5.5148,-5.5332,-5.5477,-5.5607,-5.5673,-5.5703,-5.5684,-5.5618,-5.5573,-5.5504,-5.544,-5.5409,-5.5409,-0.497,-0.499,-0.5039,-0.5156,-0.5136,-0.5563,-0.6851,-0.7383,-0.8605,-1.1244,-1.209,-1.3112,-1.4828,-1.5736,-1.6548,-1.7322,-1.808,-1.9076,-2.0469,-2.1998,-2.3084,-2.3683,-2.5443,-2.6811,-2.7725,-2.9228,-3.0785,-3.229,-3.2351,-3.2247,-3.1996,-3.1996,-3.194,-3.1841,-3.1841,-3.1883,-3.2038,-3.2206,-3.2247,-3.2302,-3.2539,-3.2648,-3.2571,-3.2033,-3.1498,-3.0876,-2.9545,-2.8982,-2.8856,-2.8667,-2.8873,-2.9212,-2.9369,-2.9572,-2.9292,-2.7259,-2.6233,-2.5076,-2.1719,-2.0336,0.0,-2.2304,-2.4406,-2.6184,0.0,0.0,-3.3581,-3.3651,-3.5592,-3.7601,-3.8596,-3.9342,-4.0076,-4.0952,-4.1932,-4.2771,-4.3318,-4.4627,-4.5509,-4.5566,-4.688,-4.7312,-4.6092,-4.795,-4.8983,-4.8382,-4.919,-4.9778,-4.9879,-5.0031,-5.0399,-5.1046,-5.1255,-5.1967,-5.3242,-5.3451,-5.4002,-5.4867,-5.4828,-5.4836,-5.4971,-5.4931,-5.5318,-5.6088,-5.6311,-5.6524,-5.6573,-5.5967,-5.5703,-5.5684,-5.5618,-5.5596,-5.5573,-5.5504,-5.5432,-5.5383,-0.499,-0.5039,-0.5117,-0.5282,-0.5253,-0.5644,-0.6896,-0.7474,-0.8442,-1.0343,-1.0849,-1.1509,-1.2806,-1.4125,-1.4829,-1.4691,-1.7054,-1.879,-1.9317,-2.1209,-2.2671,-2.3504,-2.4633,-2.5593,-2.6396,-2.8366,-2.9826,-3.0573,-3.1435,-3.1958,-3.2247,-3.2094,-3.1996,-3.2053,-3.1769,-3.1769,-3.1981,-3.2038,-3.2191,-3.2342,-3.2453,-3.2594,-3.2695,-3.2033,-3.1451,-3.0738,-2.8857,-2.8078,0.0,-2.7611,-2.7531,-2.7792,-2.8731,-2.8491,-2.7759,-2.6989,-2.6131,-2.5465,-2.573,0.0,0.0,0.0,-2.9652,-3.066,-3.1377,-3.3266,-3.5101,-3.5932,-3.7649,-3.9315,-4.0294,-4.0026,-4.0226,0.0,-4.1997,-4.2379,-4.4412,-4.5256,-4.5856,-4.6392,-4.6636,-4.6467,-4.5772,-4.7556,-4.8401,-4.7556,-4.887,-4.9721,-4.9759,-4.9978,-5.0507,-5.1357,-5.1478,-5.2253,-5.3784,-5.3803,-5.4449,-5.5759,-5.567,-5.5936,-5.6443,-5.6391,-5.655,-5.6903,-5.6681,-5.6632,-5.6633,-5.5961,-5.5703,-5.5703,-5.5682,-5.5926,-5.6264,-5.5672,-5.5758,-5.6154,-0.5019,-0.5059,-0.5137,-0.5292,-0.5282,-0.5643,-0.6826,-0.7361,-0.8028,-0.9214,-0.9587,-1.0084,-1.0976,-1.2021,-1.2734,-1.2896,-1.5789,-1.7876,-1.8562,-2.0374,-2.1965,-2.3212,-2.3823,-2.4581,-2.545,-2.7334,-2.8551,-2.9119,-3.0226,-3.1067,-3.1641,-3.1673,-3.1708,-3.1693,-3.1549,-3.164,-3.1868,-3.1799,-3.1982,-3.2231,-3.2143,-3.2261,-3.2361,-3.17,-3.0885,-2.9826,-2.8311,-2.7518,-2.7102,-2.6396,-2.629,-2.6621,-2.7392,-2.7114,-2.6452,-2.6452,-2.5915,-2.5758,-2.8081,0.0,0.0,-3.195,-3.2806,-3.3227,-3.3995,-3.4551,-3.5368,-3.7004,-3.8059,-3.9155,-4.0866,-4.0215,-4.0244,-4.2805,-4.2333,-4.2586,-4.5225,-4.5865,-4.6175,-4.6599,-4.6298,-4.5697,-4.4777,-4.6617,-4.7819,-4.7706,-4.8915,-4.9682,-4.9692,-5.0079,-5.0719,-5.1546,-5.2083,-5.2946,-5.4069,-5.4543,-5.5293,-5.6291,-5.6448,-5.6877,-5.7506,-5.7661,-5.7763,-5.7737,-5.7177,-5.6924,-5.6855,-5.6034,-5.5838,-5.6028,-5.6028,-5.6521,-5.7143,-5.6395,-5.6518,-5.7054,-0.5088,-0.5088,-0.5108,-0.5108,-0.5108,-0.5491,-0.6635,-0.698,-0.7456,-0.8414,-0.887,-0.94,-1.0176,-0.9829,-1.0512,-1.2976,-1.4013,-1.562,-1.8147,-1.9271,-2.0641,-2.2255,-2.2939,-2.3912,-2.537,-2.6133,-2.7216,-2.8691,-2.9039,-2.9372,-2.9708,-3.0613,-3.0845,-3.0567,-3.124,-3.1539,-3.1495,-3.1313,-3.1475,-3.1796,-3.1518,-3.1351,-3.1205,-3.0794,-2.9394,-2.7628,-2.7811,-2.7387,-2.6517,-2.5299,-2.5544,-2.6209,-2.5093,-2.5505,-2.638,-2.638,-2.6146,-2.6179,-2.7637,0.0,-2.7553,-3.0368,-3.1742,-3.2616,-3.3354,-3.4126,-3.5164,-3.6693,-3.6734,-3.7435,-4.0527,-4.1016,-4.1489,-4.3192,-4.3849,-4.4431,-4.5439,-4.633,-4.6585,-4.5829,-4.6467,-4.5697,0.0,-4.5115,-4.7706,-4.9302,-4.9471,-4.9551,-4.9692,-5.0447,-5.1288,-5.2227,-5.3777,-5.4666,-5.4761,-5.6368,-5.6898,-5.631,-5.7017,-5.7396,-5.7525,-5.8306,-5.8653,-5.8628,-5.8035,-5.7764,-5.7657,-5.6264,-5.6159,-5.6863,-5.6863,-5.7354,-5.8054,-5.796,-5.7934,-5.7953,-0.5555,-0.5311,-0.5098,-0.5098,-0.5108,-0.5273,-0.5787,-0.6233,-0.6814,-0.7726,-0.8182,0.0,0.0,0.0,0.0,0.0,-1.2021,-1.375,-1.5234,-1.7214,-1.9258,-2.1274,-2.2533,-2.3303,-2.3419,-2.4956,-2.5813,-2.6026,-2.7465,-2.868,-2.9604,-2.9843,-2.9948,-2.9909,-3.0078,-3.0406,-3.0836,-3.092,-3.1334,-3.1894,-3.1323,-3.1197,-3.1113,-2.92,-2.7876,-2.6678,0.0,-2.3865,-2.385,-2.3042,-2.3264,-2.3896,-2.4014,-2.3951,-2.3714,-2.3172,-2.528,-2.7598,-2.6874,0.0,-3.0278,-3.1357,-3.2683,-3.3665,-3.3219,-3.4289,-3.5448,-3.5854,-3.5832,-3.6447,-3.8805,-3.8618,-3.8937,-4.1321,-4.1304,-4.2268,-4.584,-4.4776,-4.4806,-4.7856,-4.6523,0.0,0.0,0.0,0.0,-4.6223,-4.8251,-4.9765,-5.0334,-5.0708,-5.153,-5.2925,-5.3584,-5.4458,-5.5593,-5.5631,-5.6424,-5.7962,-5.8748,-5.9096,-5.9083,-5.9387,-5.9487,-5.9444,-5.8301,-5.7802,-5.7734,-5.6851,-5.6652,-5.6936,-5.7489,-5.8144,-5.8821,-5.8795,-5.9133,-5.9499,0.0,-0.5566,-0.5327,-0.5503,-0.5407,0.0,0.0,0.0,0.0,0.0,0.0,0.0,0.0,0.0,0.0,0.0,0.0,-1.2141,-1.3788,-1.5308,-1.7256,-1.9639,-2.0811,-2.1367,-2.1238,-2.2964,-2.396,-2.4177,-2.5884,-2.7335,-2.866,-2.8922,-2.9113,-2.9182,-2.9352,-2.968,-3.0163,-3.0157,-3.1097,-3.234,-3.0349,-3.0031,-3.0426,-2.7332,-2.5395,0.0,-2.1994,-2.1167,-2.1039,-2.0722,-2.133,-2.2175,-2.2254,-2.2331,-2.2607,-2.3484,-2.5783,-2.807,0.0,-2.9949,-3.1852,-3.2275,-3.3221,-3.3833,-3.3083,-3.3873,-3.4927,-3.5602,-3.5734,-3.6157,-3.7563,-3.7288,-3.7575,-3.9761,-3.9913,-4.1292,-4.582,-4.4948,-4.5043,-4.822,-4.6711,-4.6017,0.0,0.0,0.0,-4.5472,-4.7387,-4.8964,-4.9753,-5.0165,-5.14,-5.3612,-5.4396,-5.5139,-5.5945,-5.6053,-5.6999,-5.8786,-5.9583,-5.995,-5.9885,-5.9614,-5.8989,-5.8129,-5.7596,-5.7019,-5.6492,-5.6764,-5.722,-5.7766,-5.8297,-5.8974,-5.9622,-5.9622,-5.9939,-6.0313,0.0,0.0,-0.5757,0.0,0.0,0.0,0.0,0.0,0.0,0.0,0.0,0.0,0.0,0.0,0.0,0.0,0.0,0.0,-1.3592,-1.3658,0.0,-1.7396,-1.7939,-1.8417,-1.898,-2.0297,-2.1624,-2.2952,-2.4051,-2.5247,-2.6538,-2.7535,-2.8002,-2.8055,-2.8738,-2.9089,-2.919,-2.8852,-3.0353,-3.2661,-2.848,-2.778,-2.8854,-2.5167,-2.2169,-1.9965,-2.0116,-1.9353,-1.8299,-1.8556,-1.9859,-2.1217,-2.0169,-2.1113,-2.3297,-2.7031,-2.7605,-2.78,-3.1133,-3.1927,-3.2046,-3.2923,-3.3169,-3.3149,-3.3017,-3.3014,-3.3636,-3.568,-3.6017,-3.6098,0.0,0.0,-3.7126,-3.8528,-3.9481,-4.1431,-4.5328,-4.65,-4.6928,0.0,0.0,0.0,0.0,0.0,0.0,-4.7012,0.0,-4.7537,-4.8345,-4.9246,-5.1198,-5.4352,-5.6127,-5.6666,-5.5975,-5.7659,-5.857,-5.871,-5.9468,-5.9828,-5.9842,-5.9071,-5.743,-5.5189,-5.6213,-5.574,-5.4409,-5.6179,-5.7832,-5.919,-5.9228,-5.9718,-6.0389,-6.0389,-6.0389,-6.0389,0.0,0.0,0.0,0.0,0.0,0.0,0.0,0.0,0.0,0.0,0.0,0.0,0.0,0.0,0.0,0.0,0.0,0.0,-1.0734,-1.2422,0.0,0.0,0.0,0.0,0.0,0.0,0.0,-1.9622,-2.0295,-2.0975,-2.176,-2.2409,-2.2644,-2.2548,-2.3593,-2.4061,-2.4162,-2.4519,-2.5297,-2.6114,0.0,-2.4115,-2.4206,0.0,0.0,-1.9019,-1.767,-1.6993,-1.6864,-1.7577,-1.9354,-2.1696,-2.375,-2.539,-2.6636,-2.6969,-2.8755,-3.0442,-2.9794,-3.0968,-3.2351,-3.2199,-3.2472,-3.281,-3.2711,-3.3257,-3.3692,-3.3591,-3.2231,-3.131,0.0,0.0,0.0,-3.6407,-3.6985,0.0,-4.3794,-4.3769,0.0,-4.6551,0.0,-4.7215,-4.8157,-4.8607,0.0,0.0,-4.8701,-5.0109,-5.0917,-5.2344,-5.3808,-5.5254,-5.6409,-5.6911,-5.6805,-5.8027,-5.8691,-5.8691,-5.8944,-5.9071,-5.9052,-5.8209,-5.7498,-5.6939,-5.7235,-5.7139,-5.6889,-5.802,-5.8754,-5.9194,-5.9843,-6.0226,-6.0389,-6.0389,-6.0389,-6.0389,0.0,0.0,0.0,0.0,0.0,0.0,0.0,0.0,0.0,0.0,0.0,0.0,0.0,0.0,0.0,0.0,0.0,0.0,0.0,-1.0844,0.0,0.0,0.0,0.0,0.0,0.0,0.0,0.0,0.0,0.0,-1.9649,-2.0213,-2.042,-2.0401,-2.1046,-2.138,-2.1497,-2.2031,0.0,0.0,0.0,0.0,0.0,0.0,0.0,0.0,0.0,0.0,0.0,0.0,0.0,-2.2054,-2.6246,-2.7802,-2.8349,-2.9576,0.0,-3.1446,-3.0999,-3.1521,-3.2158,-3.2242,-3.2458,-3.2547,-3.22,-3.2461,-3.2586,-3.1696,-3.0517,0.0,-2.8884,0.0,0.0,0.0,0.0,0.0,-4.2973,-4.3323,-4.4011,0.0,-4.6855,0.0,-4.934,-4.9509,-4.9114,0.0,-4.902,-5.0109,-5.1311,-5.2606,-5.4386,-5.6729,-5.7344,-5.7672,-5.7805,-5.8047,-5.8167,-5.8167,-5.8258,-5.827,-5.827,-5.7443,-5.6645,-5.5998,0.0,-5.692,-5.6719,-5.8377,-5.9311,-5.972,-6.0198,-6.0389,-6.0389,-6.0389,-6.0389,-6.0389,0.0,0.0,0.0,0.0,0.0,0.0,0.0,0.0,0.0,0.0,0.0,0.0,0.0,0.0,0.0,0.0,0.0,0.0,0.0,0.0,0.0,0.0,0.0,0.0,0.0,0.0,0.0,0.0,0.0,0.0,0.0,0.0,0.0,0.0,0.0,0.0,0.0,0.0,0.0,0.0,0.0,0.0,0.0,0.0,0.0,0.0,0.0,0.0,0.0,0.0,-2.2194,-2.2736,-2.8043,-2.9352,-2.957,-3.2797,-3.2656,-3.1743,-3.3066,-3.262,-3.196,-3.275,-3.286,-3.2571,-3.1922,-3.1436,-3.0883,-2.9973,0.0,-2.8552,-2.686,-2.7941,-3.0029,-3.2948,0.0,-3.7706,-4.1803,-4.364,-4.4964,-4.6078,-4.6637,-4.762,-4.9259,-4.9252,-4.9302,-4.9621,-4.9171,-4.949,-5.0935,-5.2118,-5.4529,-5.8461,-5.848,-5.8524,-5.8704,-5.7913,-5.7517,-5.7517,-5.7462,-5.7453,-5.7405,-5.6673,-5.5549,-5.436,0.0,0.0,-5.5889,-5.8215,-5.9636,-6.0389,-6.0417,-6.0417,-6.0389,-6.0417,-6.0417,-6.0389,0.0,0.0,0.0,0.0,0.0,0.0,0.0,0.0,0.0,0.0,-0.8454,-0.8159,0.0,0.0,0.0,0.0,0.0,0.0,0.0,0.0,0.0,0.0,0.0,0.0,0.0,0.0,0.0,0.0,0.0,0.0,0.0,0.0,0.0,0.0,0.0,0.0,0.0,0.0,0.0,0.0,0.0,0.0,0.0,0.0,0.0,0.0,0.0,0.0,0.0,-2.1395,-2.3661,-2.5259,-2.955,-3.1757,-3.2638,-3.2134,-3.2639,-3.3203,-3.2303,-3.2303,-3.2767,-3.3522,-3.355,-3.341,-3.3274,-3.1732,0.0,0.0,-2.5778,-2.4103,-2.5541,-2.5893,-2.7508,-3.2161,-3.4142,-3.5692,-3.7429,-4.1542,-4.4005,0.0,-4.527,-4.7392,-4.8788,-4.8009,0.0,0.0,0.0,-5.2437,-5.2738,-5.5479,-5.7764,-5.9435,-5.8859,-5.8647,-5.887,-5.8014,-5.7577,-5.7596,-5.6968,-5.6673,-5.6578,-5.575,-5.5633,-5.6172,-5.6978,0.0,-5.8509,-5.9636,-6.016,-6.0323,-6.0444,-6.0444,-6.0417,-6.0472,-6.0444,-6.0389,0.0,0.0,0.0,0.0,0.0,0.0,0.0,-0.9278,-0.9563,-1.0098,-1.0012,-0.9546,-0.8686,-0.8672,-0.8674,0.0,0.0,0.0,0.0,0.0,0.0,0.0,0.0,0.0,0.0,0.0,0.0,0.0,0.0,0.0,0.0,0.0,0.0,0.0,0.0,0.0,0.0,0.0,0.0,0.0,0.0,0.0,0.0,0.0,0.0,0.0,0.0,0.0,0.0,0.0,-2.2599,-2.4829,-3.0092,-3.2722,-3.3511,-3.2021,-3.2676,-3.3659,-3.2444,-3.2393,-3.294,-3.4045,-3.3987,-3.3145,-3.1164,0.0,0.0,0.0,-2.2649,-2.1421,-2.2485,-2.3409,0.0,-3.0089,-3.2859,-3.5224,-3.7494,-4.0749,-4.3015,-4.3213,-4.4864,-4.6382,0.0,-4.7211,0.0,0.0,0.0,-5.3095,-5.439,-5.7344,-5.9235,-5.9681,-5.9115,-5.8851,-5.89,-5.7654,-5.7035,-5.7006,-5.627,-5.5897,-5.5851,-5.5366,-5.5889,-5.7256,-5.7473,0.0,-5.7925,-5.9654,-5.9569,-5.85,-5.9901,-6.0417,-6.0389,-6.0444,-6.0417,-6.0389,0.0,0.0,0.0,0.0,0.0,0.0,0.0,-0.9958,-1.0287,-1.1101,-1.124,-1.0784,-0.9643,-0.9477,-0.9305,0.0,0.0,0.0,0.0,0.0,0.0,0.0,0.0,0.0,0.0,0.0,0.0,0.0,0.0,0.0,0.0,0.0,0.0,0.0,0.0,0.0,0.0,0.0,0.0,0.0,0.0,0.0,0.0,0.0,0.0,0.0,0.0,0.0,0.0,0.0,-2.1145,-2.3457,-2.8967,-3.172,-3.2676,-3.1627,-3.2316,-3.3294,-3.2724,-3.2707,-3.3174,-3.4457,-3.4379,-3.3031,-2.953,-2.8236,0.0,-2.2304,-2.0433,-1.9664,-2.0154,-2.1653,-2.4095,0.0,-3.1097,-3.4139,-3.752,-3.9696,-4.1687,0.0,-4.4646,0.0,-4.6694,-4.6919,0.0,0.0,0.0,0.0,-5.6321,-5.8608,-5.9834,-5.9782,-5.9269,-5.8892,-5.8692,-5.7234,-5.6423,-5.6251,-5.5637,-5.5358,-5.5332,-5.5248,-5.6126,-5.7783,-5.7756,0.0,0.0,-5.9366,-5.8926,-5.6881,-5.945,-6.0444,-6.0417,-6.0417,-6.0417,-6.0389,0.0,0.0,0.0,0.0,0.0,0.0,0.0,-1.0162,-1.0573,-1.1129,-1.1293,-1.1161,-1.0627,-1.0351,-0.9787,0.0,0.0,0.0,0.0,0.0,0.0,0.0,0.0,0.0,0.0,0.0,0.0,0.0,0.0,0.0,0.0,0.0,0.0,0.0,0.0,0.0,0.0,0.0,0.0,0.0,0.0,0.0,0.0,0.0,0.0,0.0,0.0,0.0,0.0,0.0,0.0,-2.2232,-2.4771,-2.7448,-2.9687,-2.9897,0.0,0.0,-3.2629,-3.3282,-3.3985,-3.4751,-3.4898,-3.4148,-3.164,0.0,-2.6109,-2.288,-1.9976,-1.864,-2.0703,-2.1844,0.0,0.0,-2.8639,-3.0632,-3.4231,-3.6971,-3.9618,-4.2343,0.0,0.0,-4.7849,-4.7392,0.0,0.0,0.0,0.0,-5.9128,-5.9534,-5.9815,-6.0038,-5.9378,-5.8682,-5.7993,-5.7065,-5.6224,-5.5492,-5.5332,-5.5176,-5.514,-5.5176,-5.6126,-5.7709,-5.784,0.0,0.0,-5.9446,-5.8987,-5.6939,-5.9556,-6.0552,-6.0499,-6.0499,-6.0444,-6.0389,0.0,0.0,0.0,0.0,0.0,0.0,-1.0303,-1.0603,-1.099,-1.1752,-1.1893,-1.1817,-1.1525,-1.1147,-1.04,-0.9087,0.0,0.0,0.0,0.0,0.0,0.0,0.0,0.0,0.0,0.0,0.0,0.0,0.0,0.0,0.0,0.0,0.0,0.0,0.0,0.0,0.0,0.0,0.0,0.0,0.0,0.0,0.0,0.0,0.0,0.0,0.0,0.0,0.0,0.0,0.0,0.0,-2.1376,-2.3108,0.0,0.0,-2.9669,-3.1816,-3.1822,-3.3117,-3.4531,-3.4755,-3.4565,-3.3203,-2.8987,0.0,-2.4985,-2.056,-1.871,-1.815,-1.9049,-1.9847,-2.1259,-2.404,-2.6355,-2.9323,-3.3688,-3.6447,-3.9345,-4.302,-4.4393,0.0,0.0,0.0,0.0,0.0,0.0,0.0,-5.9635,-5.982,-5.9899,-6.0099,-5.8959,-5.8203,-5.7905,-5.6568,-5.5728,-5.5403,-5.5248,-5.5229,-5.5281,-5.521,-5.6198,-5.7927,-5.7966,0.0,0.0,-5.8814,-5.8061,-5.4765,-5.8884,-6.0472,-6.0502,-6.0999,-6.1143,-6.1191,0.0,0.0,0.0,0.0,0.0,-0.9151,-1.0505,-1.0827,-1.1204,-1.1955,-1.2258,-1.2128,-1.1607,-1.1353,-1.0671,-0.9254,-0.8884,0.0,0.0,0.0,0.0,0.0,0.0,0.0,0.0,0.0,0.0,0.0,0.0,0.0,0.0,0.0,0.0,0.0,0.0,0.0,0.0,0.0,0.0,0.0,0.0,0.0,0.0,0.0,0.0,0.0,0.0,0.0,0.0,0.0,0.0,-1.7615,-1.877,-1.9964,-2.1552,-2.4753,-2.8168,-3.0864,-3.0763,-3.2615,-3.455,-3.4704,-3.3806,-3.1713,0.0,0.0,-2.3568,-1.9124,-1.8014,-1.7861,-1.7861,-1.8472,-1.9777,-2.2131,-2.4957,-2.8368,-3.2693,-3.5344,-3.8496,-4.2863,0.0,0.0,0.0,0.0,0.0,0.0,0.0,0.0,0.0,-5.9422,-5.9665,-6.0178,-5.871,-5.7905,-5.7905,-5.6243,-5.5403,-5.5403,-5.5275,-5.488,-5.4268,-5.4989,-5.5874,-5.697,0.0,0.0,0.0,-5.8726,-5.7934,-5.4446,-5.901,-6.078,-6.0876,-6.1688,-6.1975,-6.207,0.0,0.0,0.0,0.0,0.0,0.0,-1.0128,-1.0652,-1.1058,-1.1434,-1.208,-1.2007,-1.0672,-1.0762,-1.04,-0.9111,-0.881,0.0,0.0,0.0,0.0,0.0,0.0,0.0,0.0,0.0,0.0,-1.02,0.0,0.0,0.0,0.0,0.0,0.0,0.0,0.0,0.0,0.0,0.0,0.0,0.0,0.0,0.0,0.0,0.0,0.0,0.0,0.0,0.0,0.0,0.0,0.0,0.0,-1.8495,-2.0639,-2.3254,-2.6157,-2.8698,-2.9499,-3.1641,-3.3819,-3.4694,-3.261,-2.9907,0.0,0.0,-2.1848,-1.9399,-1.8318,-1.7811,-1.7811,-1.8472,-1.9767,-2.2131,-2.458,-2.7334,-3.0591,-3.3106,-3.6348,0.0,0.0,0.0,0.0,0.0,0.0,0.0,0.0,0.0,0.0,-5.8329,-5.8957,-6.0351,-5.8765,-5.7905,-5.7905,-5.6243,-5.5403,-5.5403,-5.5345,-5.3964,-5.1634,-5.4283,-5.5011,0.0,0.0,0.0,0.0,-5.9505,-5.9089,-5.7095,-6.0411,-6.1704,-6.1773,-6.2596,-6.2892,-6.2892,0.0,0.0,0.0,0.0,0.0,0.0,0.0,-0.9904,-1.0251,-1.0507,-1.0723,-1.073,-1.0417,-1.0138,-0.9836,-0.9427,-0.8646,0.0,0.0,0.0,0.0,0.0,0.0,0.0,0.0,0.0,-1.0036,-1.102,-1.1058,-1.1326,-1.1814,0.0,0.0,0.0,0.0,0.0,0.0,0.0,0.0,0.0,0.0,0.0,0.0,0.0,0.0,0.0,0.0,0.0,0.0,0.0,0.0,0.0,0.0,0.0,0.0,-1.9632,-2.2961,-2.6308,-2.6824,-2.8548,-3.001,-2.931,-2.8609,-2.723,-2.4176,-2.2511,-2.096,-1.8676,-1.8031,-1.7861,-1.7861,-1.8087,-1.9529,-2.3431,-2.5163,-2.8025,0.0,0.0,0.0,-4.3412,-4.7018,0.0,0.0,0.0,0.0,0.0,0.0,0.0,0.0,-5.9203,-5.9299,-5.8308,-5.7243,-5.6778,-5.7008,-5.5938,-5.5358,-5.5248,-5.5301,-5.3989,-5.1667,-5.4307,0.0,0.0,0.0,0.0,0.0,-5.9472,-5.9377,-5.7883,-6.0578,-6.2003,-6.2615,-6.3465,-6.379,-6.3866,0.0,0.0,0.0,0.0,0.0,0.0,0.0,-0.9319,-0.9783,-0.9941,-1.0143,-1.0203,-0.9964,-0.9585,-0.9326,-0.9205,-0.8258,0.0,0.0,0.0,0.0,0.0,0.0,0.0,0.0,-0.9939,-1.0654,-1.2019,-1.2132,-1.244,-1.2984,-1.2984,-1.2755,0.0,0.0,0.0,0.0,0.0,0.0,0.0,0.0,0.0,-1.197,0.0,0.0,0.0,0.0,0.0,0.0,0.0,0.0,0.0,0.0,0.0,0.0,0.0,-2.0042,-2.2774,-2.4023,-2.5815,-2.7224,-2.6604,-2.5675,-2.4372,-2.2275,-2.0883,-1.9648,-1.8194,-1.8563,-1.888,-1.8031,-1.8795,-2.0356,-2.2713,-2.5485,-2.8798,0.0,0.0,0.0,-4.2679,0.0,0.0,0.0,0.0,0.0,0.0,0.0,0.0,0.0,-5.8924,-5.8519,-5.6903,-5.6814,-5.673,-5.6587,-5.5804,-5.5365,-5.5281,-5.5358,-5.4087,-5.1762,-5.438,0.0,0.0,0.0,0.0,0.0,-6.0226,-6.0399,-5.9625,-6.1755,-6.2911,-6.3484,-6.4344,-6.4649,-6.4707,0.0,0.0,0.0,0.0,0.0,0.0,0.0,-0.8801,-0.9492,-0.9465,-0.9967,-0.9999,-0.9224,-0.8964,-0.8754,-0.8475,0.0,0.0,0.0,0.0,0.0,0.0,0.0,0.0,0.0,-1.0475,-1.1491,-1.3146,-1.3643,-1.4237,-1.4916,-1.4916,-1.4362,-1.3415,-1.3326,-1.2507,-1.116,0.0,0.0,0.0,0.0,-1.1557,0.0,0.0,0.0,0.0,0.0,0.0,0.0,0.0,0.0,0.0,0.0,0.0,0.0,0.0,0.0,0.0,0.0,-2.3211,-2.4979,-2.5631,-2.3498,-2.1379,-2.1993,-2.0045,0.0,-1.8126,-1.9762,-2.0569,-1.8504,-2.0603,-2.2245,-2.1002,-2.5905,-2.9772,0.0,-3.3371,0.0,0.0,0.0,0.0,0.0,0.0,0.0,0.0,0.0,0.0,0.0,-5.7832,-5.7017,-5.6144,-5.7215,-5.739,-5.6511,-5.5766,-5.5295,-5.5115,-5.5384,-5.4108,-5.1621,-5.4432,0.0,0.0,0.0,0.0,0.0,-6.1486,-6.1869,-6.213,-6.3619,-6.4229,-6.4363,-6.5127,-6.5394,-6.5394,0.0,0.0,0.0,0.0,0.0,0.0,0.0,0.0,0.0,0.0,-0.729,-0.7463,-0.7666,-0.7655,-0.7732,0.0,0.0,0.0,0.0,0.0,0.0,0.0,0.0,0.0,0.0,-1.2167,-1.3078,-1.4438,-1.4575,-1.4751,-1.4916,-1.4916,-1.4777,-1.4488,-1.368,-1.2526,-1.1202,-1.1419,0.0,0.0,-1.1725,-1.1891,0.0,0.0,0.0,0.0,-1.2727,-1.3442,0.0,0.0,0.0,0.0,0.0,0.0,0.0,0.0,-1.6548,-1.6791,-1.7415,0.0,-2.0183,-1.9841,-1.953,-1.9226,0.0,-1.8341,-1.8478,-2.0077,-2.0831,-2.1204,-2.1307,-2.3426,-2.524,-2.5536,-2.8432,-3.1411,-3.3641,0.0,0.0,-4.2359,0.0,0.0,0.0,0.0,0.0,0.0,0.0,0.0,0.0,-5.8652,-5.7901,-5.6144,-5.6624,-5.6511,-5.5689,-5.5492,-5.4402,-5.2442,-5.4565,-5.319,-4.8966,-5.3603,0.0,0.0,0.0,0.0,-6.1464,-6.169,-6.2571,-6.3761,-6.4048,-6.4573,-6.5146,-6.5337,-6.5394,-6.5394,0.0,0.0,0.0,0.0,0.0,0.0,0.0,0.0,0.0,0.0,0.0,0.0,0.0,0.0,0.0,0.0,0.0,0.0,0.0,0.0,0.0,0.0,0.0,0.0,-1.2664,-1.2942,-1.3925,-1.5724,-1.5724,-1.5948,-1.6396,-1.6145,-1.5964,-1.5769,-1.4294,-1.3019,-1.2007,-1.1932,-1.1828,-1.1725,-1.1848,0.0,0.0,0.0,0.0,0.0,-1.2445,-1.3268,0.0,-1.4571,-1.538,-1.6194,0.0,0.0,0.0,0.0,-1.6194,-1.6194,-1.6166,-1.694,-1.794,-1.8482,-1.8404,-1.8325,-1.8851,-1.8451,-1.8631,-2.0807,-2.1528,-2.1874,-2.2309,-2.4406,-2.6203,0.0,-2.9219,0.0,0.0,0.0,-4.2302,-4.2395,0.0,0.0,0.0,0.0,0.0,0.0,0.0,0.0,0.0,-5.8873,-5.8033,-5.6959,-5.6343,-5.5836,-5.5415,-5.5402,-5.4125,-5.1679,-5.4342,-5.3541,-4.9872,-5.3893,-5.5621,0.0,0.0,0.0,-6.1165,-6.0763,-6.2057,-6.4346,-6.4622,-6.5012,-6.5394,-6.5394,-6.5394,-6.5413,0.0,0.0,0.0,0.0,0.0,0.0,0.0,0.0,0.0,0.0,0.0,0.0,0.0,0.0,0.0,0.0,0.0,0.0,0.0,0.0,0.0,0.0,0.0,0.0,-1.3355,-1.3549,-1.4676,-1.6815,-1.6891,-1.7377,-1.8191,-1.7773,-1.7289,-1.6699,-1.4963,-1.3738,-1.2911,-1.2343,-1.2103,-1.2033,-1.1891,0.0,0.0,0.0,0.0,0.0,0.0,0.0,0.0,-1.4052,-1.4944,-1.6025,-1.5918,0.0,0.0,0.0,0.0,0.0,-1.6123,-1.6394,-1.7205,-1.9197,-1.8735,-1.8325,-2.0406,-1.9555,-1.9035,-2.1581,-2.2654,-2.3181,-2.3448,-2.5811,0.0,0.0,0.0,0.0,-3.8211,-4.0542,-4.1902,-4.2037,0.0,0.0,0.0,0.0,0.0,0.0,0.0,0.0,0.0,-5.8566,-5.7641,-5.7695,-5.618,-5.5408,-5.5408,-5.5432,-5.4196,-5.1832,-5.4386,-5.4314,-5.1991,-5.4684,-5.6332,0.0,0.0,0.0,-6.0897,-6.0257,-6.1762,-6.4556,-6.5157,-6.5394,-6.5425,-6.5394,-6.5394,-6.5394,0.0,0.0,0.0,0.0,0.0,0.0,0.0,0.0,0.0,0.0,0.0,0.0,0.0,0.0,0.0,0.0,0.0,0.0,0.0,0.0,0.0,0.0,0.0,0.0,0.0,-1.5475,-1.6519,-1.7295,-1.7773,-1.8041,-1.8204,-1.8244,-1.753,-1.6268,-1.5439,-1.4182,-1.2664,-1.2681,-1.2358,-1.1848,-1.1991,0.0,0.0,0.0,0.0,0.0,0.0,0.0,0.0,-1.3344,-1.4252,-1.5268,-1.4698,0.0,0.0,0.0,0.0,0.0,-1.6194,-1.649,-1.7258,-1.9272,-1.9148,-1.9077,-2.1249,-2.0706,-2.0934,-2.5014,-2.6141,-2.6796,-2.8064,-3.1996,-3.3833,0.0,0.0,-3.7881,0.0,0.0,0.0,0.0,0.0,0.0,0.0,0.0,0.0,0.0,0.0,0.0,0.0,-5.7453,-5.6511,-5.6797,-5.59,-5.5432,-5.548,-5.5551,-5.4306,-5.1832,-5.443,-5.4376,-5.2029,-5.5234,-5.7148,0.0,0.0,-6.0763,-6.2596,-6.3246,-6.4231,-6.5322,-6.5367,-6.5425,-6.5465,-6.5352,-6.5352,-6.5364,0.0,0.0,0.0,0.0,0.0,0.0,0.0,0.0,0.0,0.0,0.0,0.0,0.0,0.0,0.0,0.0,0.0,0.0,0.0,0.0,0.0,0.0,0.0,0.0,0.0,0.0,-1.7062,-1.7827,-1.838,-1.8794,-1.9058,-1.8801,-1.8002,-1.6754,-1.5952,-1.4837,-1.3431,-1.3127,-1.2639,-1.2012,0.0,0.0,0.0,0.0,0.0,0.0,0.0,0.0,0.0,0.0,-1.3852,-1.4606,-1.4298,0.0,0.0,0.0,0.0,0.0,-1.6166,-1.686,-1.8508,-2.2295,-2.1014,-2.0145,-2.519,-2.351,-2.2434,-2.7789,-2.7014,-2.6234,-2.9106,0.0,-3.3336,-3.3952,0.0,0.0,0.0,0.0,0.0,0.0,0.0,0.0,0.0,0.0,0.0,0.0,0.0,0.0,0.0,0.0,-5.6965,-5.6658,-5.5897,-5.5527,-5.5551,-5.5618,-5.4372,-5.1893,-5.4451,-5.4607,-5.2702,-5.5599,-5.7382,-5.8227,0.0,-5.9984,-6.2387,-6.2287,-6.3551,-6.5552,-6.5465,-6.5454,-6.5454,-6.5383,-6.5321,-6.529,0.0,0.0,0.0,0.0,0.0,0.0,0.0,0.0,0.0,0.0,0.0,0.0,0.0,0.0,0.0,0.0,0.0,0.0,0.0,0.0,0.0,0.0,0.0,0.0,0.0,0.0,-1.7548,-1.8453,-1.9169,-1.9712,-2.0129,-1.93,-1.8446,-1.751,-1.6395,-1.5296,-1.4183,-1.3522,-1.2848,-1.2236,0.0,0.0,0.0,0.0,0.0,0.0,0.0,0.0,0.0,0.0,0.0,0.0,0.0,0.0,0.0,-1.5021,-1.5507,-1.6154,-1.6322,-1.7262,-1.9465,-2.4647,-2.287,-2.1761,-2.9348,-2.6585,-2.4219,-3.0595,-2.8685,-2.7031,0.0,-3.1651,0.0,-3.7609,-4.1789,0.0,0.0,0.0,0.0,0.0,0.0,0.0,0.0,0.0,0.0,0.0,0.0,0.0,0.0,0.0,-5.7232,-5.6447,-5.5896,-5.5596,-5.5596,-5.5682,-5.4722,-5.2818,-5.4761,-5.5126,-5.4164,-5.623,-5.767,-5.8523,-5.8067,-5.953,-6.2238,-6.1658,-6.3088,-6.5608,-6.5552,-6.5435,-6.5352,-6.5383,-6.5258,-6.5114,0.0,0.0,0.0,0.0,0.0,0.0,0.0,0.0,0.0,0.0,0.0,0.0,0.0,0.0,0.0,0.0,0.0,0.0,0.0,0.0,0.0,0.0,0.0,0.0,0.0,-1.7416,-1.857,-1.9241,-2.0386,-2.1028,-2.1159,-1.9734,-1.879,-1.8246,-1.6621,-1.5296,-1.424,-1.3575,-1.293,-1.2379,-1.2323,0.0,0.0,0.0,0.0,0.0,0.0,0.0,0.0,0.0,0.0,0.0,0.0,0.0,-1.5083,-1.4452,-1.5165,-1.6332,-1.6947,-1.7518,-1.9102,-2.4032,-2.3829,-2.4425,-3.2167,-2.916,-2.6736,-3.3723,-3.3369,-3.2739,0.0,-3.6594,-3.7595,-4.0088,0.0,0.0,0.0,0.0,0.0,0.0,0.0,0.0,0.0,0.0,0.0,0.0,0.0,0.0,0.0,0.0,0.0,-5.5595,-5.5612,-5.5596,-5.5596,-5.5682,-5.5607,-5.5434,-5.5607,-5.6049,-5.6761,-5.7627,-5.8506,-5.9398,-6.069,-6.1962,-6.3162,-6.3833,-6.4734,-6.569,-6.5635,-6.5425,-6.5213,-6.5277,-6.5128,-6.4942,0.0,0.0,0.0,0.0,0.0,0.0,0.0,0.0,0.0,0.0,0.0,0.0,0.0,0.0,0.0,0.0,0.0,0.0,0.0,0.0,0.0,0.0,0.0,-1.5371,-1.6334,-1.7695,-1.8541,-1.8878,-2.0015,-2.0605,-2.0759,-1.9659,-1.9123,-1.8919,-1.6964,-1.5915,-1.552,-1.403,-1.3259,-1.2984,-1.2535,-1.2302,0.0,0.0,0.0,0.0,0.0,0.0,0.0,0.0,-1.238,-1.2534,-1.2287,-1.3282,-1.4529,-1.4283,-1.5415,-1.6884,-1.7471,-1.8933,-2.167,-2.7181,-2.6847,-2.6784,-3.3142,-3.1234,-3.0027,-3.658,-3.5449,0.0,0.0,0.0,-3.9669,-4.205,0.0,0.0,0.0,0.0,0.0,0.0,0.0,0.0,0.0,0.0,0.0,0.0,0.0,0.0,0.0,0.0,0.0,-5.5542,-5.5596,-5.5662,-5.5662,-5.5703,-5.5703,-5.5703,-5.6242,-5.6931,-5.7774,-5.8549,-5.9374,-6.0263,-6.1234,-6.2317,-6.343,-6.4148,-6.4994,-6.5801,-6.5589,-6.5454,-6.5321,-6.5309,-6.5161,-6.4993,0.0,0.0,0.0,0.0,0.0,0.0,0.0,0.0,0.0,0.0,0.0,0.0,0.0,0.0,0.0,0.0,0.0,0.0,0.0,0.0,0.0,0.0,0.0,-1.5502,-1.6565,-1.7734,-1.8524,-1.8943,-2.015,-2.0809,-2.0897,-1.9867,-1.9454,-1.9418,-1.7315,-1.6372,-1.6331,-1.4648,-1.3752,-1.3425,-1.2885,-1.251,0.0,0.0,0.0,0.0,0.0,0.0,0.0,0.0,-1.221,-1.221,-1.221,-1.3113,-1.4206,-1.4206,-1.5701,-1.7468,-1.809,-2.0019,-2.3102,-2.8249,-2.8178,-2.8343,-3.4305,-3.3193,-3.2666,-3.8969,-3.8819,-3.7656,-3.7975,0.0,0.0,0.0,0.0,0.0,0.0,0.0,0.0,0.0,0.0,0.0,0.0,0.0,0.0,0.0,0.0,0.0,0.0,0.0,0.0,0.0,-5.564,-5.5703,-5.5703,-5.5703,-5.5703,-5.5703,-5.6857,-5.77,-5.8227,-5.901,-5.9854,-6.0699,-6.1153,-6.2164,-6.3502,-6.396,-6.482,-6.5851,-6.5608,-6.5454,-6.5394,-6.5383,-6.5239,-6.5076,0.0,0.0,0.0,0.0,0.0,0.0,0.0,0.0,0.0,0.0,0.0,0.0,0.0,0.0,0.0,0.0,0.0,0.0,-1.0597,-1.1424,-1.2178,-1.2766,0.0,-1.5543,-1.6297,-1.7499,-1.8604,-1.9629,-2.1112,-2.1898,-2.1845,-2.0473,-1.9823,-1.9713,0.0,-1.6642,-1.6437,-1.5392,-1.4406,-1.359,-1.338,-1.291,-1.2302,0.0,0.0,0.0,0.0,0.0,0.0,0.0,-1.221,-1.221,-1.221,-1.3113,-1.4206,-1.4221,-1.5956,-1.806,-1.8824,-2.052,-2.289,-2.6446,-2.7289,-2.9062,-3.599,-3.503,-3.4447,-4.0801,-4.4005,-4.4884,-4.2273,-4.327,0.0,0.0,0.0,0.0,0.0,0.0,0.0,0.0,0.0,0.0,0.0,0.0,0.0,0.0,0.0,0.0,0.0,0.0,0.0,0.0,-5.5703,-5.5703,-5.5703,-5.5703,-5.5703,-5.5722,-5.7473,-5.8254,-5.8227,-5.898,-5.9799,-6.0604,-6.0604,-6.167,-6.3399,-6.3396,-6.435,-6.5776,-6.5561,-6.5465,-6.5394,-6.5465,-6.5425,-6.5258,0.0,0.0,0.0,0.0,0.0,0.0,0.0,0.0,0.0,0.0,0.0,0.0,0.0,0.0,0.0,0.0,0.0,0.0,-1.0523,-1.1396,-1.2191,-1.2836,-1.389,-1.5106,-1.6402,-1.7781,-1.8963,-2.0025,-2.0609,-2.1077,-2.1398,-2.0381,-2.0034,-2.0114,0.0,0.0,-1.7545,-1.7303,-1.6057,-1.4115,-1.3539,-1.2873,-1.2226,0.0,0.0,0.0,0.0,0.0,0.0,0.0,0.0,0.0,-1.221,-1.3091,-1.4433,-1.5887,-1.72,-1.8775,-2.1565,-2.3364,0.0,-2.8401,0.0,0.0,-3.5954,-3.6162,-3.7034,-4.17,-4.3306,-4.3501,-4.225,0.0,0.0,0.0,0.0,0.0,0.0,0.0,0.0,0.0,0.0,0.0,0.0,0.0,0.0,0.0,0.0,0.0,0.0,0.0,0.0,0.0,-5.5745,-5.5766,-5.5766,-5.5724,-5.5703,-5.5722,-5.7473,-5.8231,-5.8174,-5.9618,-6.0405,-6.0604,-6.0655,-6.1396,-6.2654,-6.3888,-6.5003,-6.5943,-6.5776,-6.5644,-6.5552,-6.5552,-6.5454,-6.529,0.0,0.0,0.0,0.0,0.0,0.0,0.0,0.0,-0.8817,-0.9504,-0.9463,-0.9635,0.0,0.0,0.0,-1.0681,-1.0656,-1.0621,-1.0597,-1.1268,-1.1958,-1.265,-1.3591,-1.4771,-1.6201,-1.7221,-1.8248,-1.9293,-1.9989,-2.0433,-2.0689,-2.0245,-1.9941,-1.9786,0.0,-1.8661,-1.7593,-1.7499,-1.627,-1.4358,-1.386,-1.3056,-1.2205,0.0,0.0,0.0,0.0,0.0,0.0,0.0,0.0,0.0,-1.2153,-1.3436,-1.5175,-1.6343,-1.8076,-2.0379,-2.3746,-2.5734,0.0,-3.1593,-3.3489,-3.5048,-3.7496,0.0,0.0,0.0,-4.5198,-4.5407,-4.4893,0.0,0.0,0.0,0.0,0.0,0.0,0.0,0.0,0.0,0.0,0.0,0.0,0.0,0.0,0.0,0.0,0.0,0.0,0.0,0.0,0.0,-5.5787,-5.5846,-5.5846,-5.5766,-5.5919,-5.6284,-5.7646,-5.8404,-5.8629,-6.0021,-6.0655,-6.0623,-6.108,-6.1835,-6.2811,-6.4216,-6.5253,-6.5986,-6.5851,-6.575,-6.569,-6.5736,-6.5599,-6.5413,0.0,0.0,0.0,0.0,0.0,0.0,0.0,-0.8157,-0.8875,-0.983,-1.0021,-1.0248,0.0,0.0,0.0,-1.0705,-1.0705,-1.0705,-1.0705,-1.1069,-1.1615,-1.2287,-1.3369,-1.4486,-1.5634,-1.6091,-1.6789,-1.7784,-1.9182,-1.9946,-2.006,-2.0039,-1.9667,-1.9067,0.0,-1.7837,-1.7029,-1.6697,-1.5733,-1.4382,-1.4254,-1.3397,-1.2205,-1.2195,0.0,0.0,0.0,0.0,0.0,0.0,0.0,0.0,-1.2112,-1.385,-1.5933,-1.5991,-1.8772,-2.2462,-2.5493,-2.7722,-3.0342,-3.4977,-3.5705,0.0,-4.0318,-4.1835,-4.3403,-4.7032,0.0,-4.895,0.0,0.0,0.0,0.0,0.0,0.0,0.0,0.0,0.0,0.0,0.0,0.0,0.0,0.0,0.0,0.0,0.0,0.0,0.0,0.0,0.0,-5.5825,-5.5866,-5.5905,-5.5905,-5.5826,-5.623,0.0,-5.7918,-5.8654,-5.9313,-6.0201,-6.0604,-6.0668,-6.1662,-6.2618,-6.3541,-6.4286,-6.5149,-6.5996,-6.587,-6.5801,-6.5801,-6.5958,-6.5808,-6.5542,0.0,0.0,0.0,0.0,0.0,0.0,-0.8118,-0.8564,-0.9156,-1.0096,-1.0161,-1.0248,-1.0656,-1.0753,0.0,-1.0777,-1.0729,-1.0705,-1.0705,-1.1043,-1.1375,-1.1683,-1.2869,-1.3871,-1.46,-1.5345,-1.6041,-1.6811,-1.8177,-1.9401,-2.0557,0.0,0.0,-1.9715,0.0,-1.9346,-1.7459,-1.8346,-1.6998,-1.4254,-1.4206,-1.3397,-1.2205,-1.2205,-1.2205,0.0,0.0,0.0,0.0,0.0,0.0,0.0,-1.2112,-1.2817,-1.4108,-1.6351,-1.9686,-2.3424,-2.7062,-2.9816,0.0,-3.3897,-3.5616,-3.8404,-4.4192,-4.4968,-4.5094,-4.7075,-4.7294,0.0,0.0,0.0,0.0,0.0,0.0,0.0,0.0,0.0,0.0,0.0,0.0,0.0,0.0,0.0,0.0,0.0,0.0,0.0,0.0,0.0,0.0,-5.5904,-5.5924,-5.5962,-5.5905,-5.5826,-5.6209,0.0,-5.7831,-5.8606,-5.9313,-6.0201,-6.0655,-6.0777,-6.1062,-6.2053,-6.3524,-6.3695,-6.4637,-6.5996,-6.5986,-6.59,-6.5826,-6.5943,-6.5909,-6.5767,0.0,0.0,0.0,0.0,0.0,0.0,0.0,0.0,-0.9127,-0.9912,-1.0239,-1.0472,-1.0681,-1.0753,0.0,0.0,-1.0777,-1.0777,-1.0753,-1.0903,-1.1199,-1.1639,-1.2552,-1.3222,-1.3566,-1.3976,-1.4665,-1.5602,-1.6831,-1.797,0.0,0.0,0.0,-1.8592,0.0,-1.8517,-1.7002,-1.7602,-1.6462,-1.4254,-1.4206,-1.3397,-1.2205,-1.22,-1.22,-1.22,-1.22,0.0,0.0,0.0,0.0,0.0,0.0,0.0,-1.4332,-1.6082,-1.8953,-2.2394,-2.6334,0.0,0.0,-3.59,0.0,-4.122,-4.484,-4.6295,-4.7195,-4.8342,0.0,0.0,0.0,0.0,0.0,0.0,0.0,0.0,0.0,0.0,0.0,0.0,0.0,0.0,0.0,0.0,0.0,0.0,0.0,0.0,0.0,-5.709,-5.6652,-5.5904,-5.598,-5.5979,-5.596,-5.631,-5.6867,-5.7674,-5.8408,-5.9158,-5.9901,-6.0367,-6.068,-6.08,-6.0872,-6.167,-6.2969,-6.3332,-6.4254,-6.5465,-6.5836,-6.5943,-6.589,-6.5967,-6.587,-6.572,0.0,0.0,0.0,0.0,0.0,0.0,0.0,0.0,0.0,-0.9609,-1.0211,-1.0596,-1.0656,-1.0753,-1.0777,0.0,0.0,0.0,-1.0825,-1.0825,-1.1069,-1.1629,-1.218,-1.2512,-1.2636,-1.2744,-1.3361,-1.4567,-1.575,-1.6757,0.0,0.0,0.0,-1.776,0.0,-1.7436,-1.6409,-1.6262,-1.5463,-1.4302,-1.423,-1.342,-1.2226,-1.2216,-1.2195,-1.2216,-1.2195,-1.2153,-1.2112,-1.2033,0.0,0.0,0.0,0.0,-1.4714,-1.5344,-1.7775,0.0,0.0,-2.8781,-3.3213,-3.875,-4.1591,0.0,-4.4494,-4.6565,-4.8569,0.0,0.0,0.0,0.0,0.0,0.0,0.0,0.0,0.0,0.0,0.0,0.0,0.0,0.0,0.0,0.0,0.0,0.0,0.0,0.0,0.0,-5.6891,-5.7066,-5.6865,-5.6136,-5.6036,-5.5975,-5.5977,-5.6773,-5.7582,-5.8391,-5.9219,-5.992,-6.0499,-6.0578,-6.068,-6.08,-6.0875,-6.1443,-6.2353,-6.316,-6.4004,-6.4829,-6.5681,-6.5986,-6.5977,-6.6009,-6.5846,-6.5655,0.0,0.0,0.0,0.0,0.0,0.0,0.0,0.0,0.0,0.0,-0.9846,-1.0135,-1.0494,-1.0681,-1.0777,-1.0705,-1.0777,-1.0825,-1.0873,0.0,0.0,-1.1021,-1.132,-1.164,-1.2022,-1.2487,-1.3253,-1.4342,-1.57,-1.7561,0.0,0.0,0.0,-2.0303,0.0,0.0,-1.6474,-1.6289,-1.5489,-1.4382,-1.4254,-1.3481,-1.2363,-1.2246,-1.2226,-1.2282,-1.2226,-1.22,-1.219,-1.2112,-1.2091,0.0,0.0,0.0,-1.2761,-1.4101,-1.7499,0.0,0.0,0.0,-3.6631,0.0,-4.1181,-4.2115,0.0,0.0,0.0,0.0,0.0,0.0,0.0,0.0,0.0,0.0,0.0,0.0,0.0,0.0,0.0,0.0,0.0,0.0,0.0,0.0,0.0,0.0,0.0,0.0,-5.8993,-5.8366,-5.773,-5.7043,-5.6344,-5.5959,-5.5924,-5.6715,-5.7522,-5.8341,-5.9758,-6.0463,-6.0499,-6.0578,-6.068,-6.08,-6.0869,-6.1398,-6.2271,-6.3139,-6.3958,-6.471,-6.5639,-6.5962,-6.5923,-6.5986,-6.5938,-6.5853,0.0,0.0,0.0,0.0,0.0,0.0,0.0,0.0,0.0,0.0,0.0,-1.0031,-1.0554,-1.0681,-1.0729,-1.0705,-1.0753,-1.0801,-1.0825,-1.0897,-1.1038,-1.1233,-1.1347,-1.1613,-1.1991,-1.2179,-1.2679,-1.3519,-1.5051,0.0,0.0,-2.346,-2.3315,0.0,0.0,0.0,0.0,0.0,0.0,0.0,-1.4885,-1.4696,-1.439,-1.3735,-1.3901,-1.4444,-1.4076,-1.3488,-1.2914,-1.3152,-1.2717,-1.2112,-1.2112,0.0,0.0,0.0,0.0,0.0,-2.5647,-2.9158,-3.2688,0.0,-4.0188,-4.0073,-4.4458,0.0,0.0,0.0,0.0,0.0,0.0,0.0,0.0,0.0,0.0,0.0,0.0,0.0,0.0,0.0,0.0,0.0,0.0,0.0,0.0,0.0,0.0,-5.8963,-5.8598,-5.8323,-5.767,-5.6522,-5.617,-5.5995,-5.596,-5.7197,-5.8426,-5.9657,-6.029,-6.0578,-6.0552,-6.0641,-6.0738,-6.0846,-6.0894,-6.1152,-6.1637,-6.2946,-6.3673,-6.4085,-6.5446,-6.5962,-6.5923,-6.5986,-6.563,-6.5193,0.0,0.0,0.0,0.0,0.0,0.0,0.0,0.0,0.0,0.0,0.0,-1.0076,-1.0626,0.0,0.0,0.0,-1.0753,-1.0756,-1.0699,-1.0855,-1.1008,-1.1093,-1.1142,-1.1377,-1.1785,-1.1821,-1.2228,-1.2978,0.0,0.0,-2.1537,-2.4241,-2.4476,0.0,-2.3749,-2.2359,0.0,0.0,0.0,0.0,-1.6828,-1.6643,-1.6121,-1.5522,-1.586,-1.6542,-1.5743,-1.4853,-1.4047,-1.3914,0.0,0.0,0.0,0.0,0.0,0.0,0.0,0.0,0.0,0.0,-2.8734,-3.7433,-3.79,-3.7358,0.0,0.0,0.0,0.0,0.0,0.0,0.0,0.0,0.0,0.0,0.0,0.0,0.0,0.0,0.0,0.0,0.0,0.0,0.0,0.0,0.0,0.0,0.0,-5.8773,-5.8649,-5.8385,-5.7711,-5.6599,-5.6191,-5.5995,-5.5995,-5.7583,-5.9155,-6.0685,-6.0655,-6.0635,-6.0641,-6.0723,-6.0814,-6.0957,-6.096,-6.0982,-6.1118,-6.2581,-6.3249,-6.355,-6.5084,-6.5789,-6.5909,-6.5712,-6.5337,-6.4943,0.0,0.0,0.0,0.0,0.0,0.0,0.0,0.0,0.0,0.0,0.0,-1.0234,-1.0578,-1.0777,-1.0825,-1.0705,-1.0753,-1.0694,-1.0441,-1.0733,-1.0625,-1.0025,-1.0156,0.0,-1.0941,-1.1467,-1.2205,-1.3188,0.0,0.0,-1.8963,-2.2477,-2.4286,-2.4665,-2.4784,-2.4428,-2.3597,0.0,0.0,0.0,0.0,-1.9256,-1.6475,-1.7249,-1.7652,-1.7645,-1.6338,0.0,0.0,0.0,0.0,0.0,0.0,0.0,0.0,0.0,0.0,0.0,0.0,-2.4419,0.0,-3.2836,-3.3523,0.0,0.0,0.0,0.0,0.0,0.0,0.0,0.0,0.0,0.0,0.0,0.0,0.0,0.0,0.0,0.0,0.0,0.0,0.0,0.0,0.0,0.0,0.0,0.0,-5.9416,-6.0599,-5.9152,-5.8314,-5.8356,-5.6828,-5.6014,-5.5999,-5.7523,-5.9111,-6.0685,-6.0685,-6.0738,-6.0792,-6.0858,-6.0963,-6.108,-6.108,-6.1061,-6.1079,-6.1925,-6.2709,-6.3492,-6.4467,-6.5334,-6.59,-6.5072,-6.5264,-6.5779,0.0,0.0,0.0,0.0,0.0,0.0,0.0,0.0,0.0,0.0,0.0,0.0,0.0,-1.0753,-1.0777,-1.0753,-1.0849,-1.0772,-1.0426,-1.0541,-1.0499,-1.0163,-1.0168,-1.0376,-1.0759,-1.1342,-1.1823,-1.2244,-1.3207,-1.5193,-1.819,-2.0289,-2.1869,-2.3038,-2.6788,-2.6445,-2.3073,-2.3988,0.0,0.0,0.0,0.0,0.0,0.0,0.0,0.0,0.0,0.0,0.0,0.0,0.0,0.0,0.0,0.0,0.0,0.0,0.0,0.0,0.0,0.0,0.0,-3.0466,-3.1147,-3.115,0.0,0.0,0.0,0.0,0.0,0.0,0.0,0.0,0.0,0.0,0.0,0.0,0.0,0.0,0.0,0.0,0.0,0.0,0.0,0.0,0.0,0.0,0.0,0.0,-5.7867,-5.7109,-5.6671,-5.6831,-5.6791,-5.7023,-5.7545,-5.8582,-5.9672,-6.0757,-6.071,-6.0762,-6.0858,-6.088,-6.0982,-6.1099,-6.1155,-6.1099,-6.106,-6.1867,-6.267,-6.3473,-6.4428,-6.5296,-6.5905,-6.5061,-6.4922,-6.5062,0.0,0.0,0.0,0.0,0.0,0.0,0.0,0.0,0.0,-0.9619,0.0,0.0,0.0,0.0,-1.0629,-1.0883,-1.1155,-1.0987,-1.0283,-1.0435,-1.0338,-0.9778,-0.9701,-0.9874,-1.0314,-1.072,-1.1171,-1.1672,-1.2511,-1.4004,0.0,-1.8134,-1.9531,-2.052,-2.5218,-2.5932,0.0,0.0,0.0,-2.1045,0.0,0.0,-2.2637,0.0,0.0,0.0,0.0,0.0,0.0,0.0,0.0,0.0,0.0,0.0,0.0,0.0,0.0,0.0,-1.8027,0.0,0.0,0.0,0.0,-2.7604,0.0,0.0,0.0,0.0,0.0,0.0,0.0,0.0,0.0,0.0,0.0,0.0,0.0,0.0,0.0,0.0,0.0,0.0,0.0,0.0,0.0,0.0,0.0,0.0,-5.7206,-5.6832,-5.6363,-5.5904,-5.6715,-5.7545,-5.8352,-5.9198,-6.0003,-6.08,-6.0777,-6.085,-6.0962,-6.0982,-6.1061,-6.1173,-6.121,-6.1155,-6.106,-6.1578,-6.2442,-6.3476,-6.4119,-6.5022,-6.5842,-6.471,-6.4609,-6.4985,0.0,0.0,0.0,0.0,0.0,0.0,0.0,0.0,-0.9136,-0.9056,0.0,0.0,0.0,0.0,0.0,-1.1066,-1.1586,-1.1318,-0.9998,-1.0398,-1.008,-0.8759,-0.8636,-0.8899,-0.9555,-0.9584,-1.025,-1.154,-1.1586,-1.1937,0.0,0.0,-1.7427,-1.7348,-1.9767,-2.2635,-2.5674,0.0,-2.6424,-2.7025,0.0,-2.7434,-2.6809,0.0,0.0,0.0,-2.8024,-2.7823,0.0,0.0,0.0,0.0,0.0,0.0,0.0,0.0,0.0,0.0,0.0,0.0,0.0,0.0,0.0,0.0,0.0,0.0,0.0,0.0,0.0,0.0,0.0,0.0,0.0,0.0,0.0,0.0,0.0,0.0,0.0,0.0,0.0,0.0,0.0,0.0,0.0,0.0,0.0,-5.8857,-5.9014,-5.8539,-5.756,-5.5962,-5.6714,-5.7504,-5.8291,-5.9196,-6.0041,-6.08,-6.0869,-6.0959,-6.1099,-6.1155,-6.1227,-6.1297,-6.1297,-6.1227,-6.1099,-6.102,-6.1981,-6.3444,-6.338,-6.4436,-6.5746,-6.3941,-6.4446,-6.5746,0.0,0.0,0.0,0.0,0.0,-0.9439,-0.9426,-0.9945,-1.0308,0.0,0.0,0.0,0.0,0.0,-1.1031,-1.1293,-1.1541,-1.1242,-1.0192,-1.0267,-0.9826,-0.869,-0.8558,-0.8618,-0.8799,-0.9329,-0.978,-1.0152,-1.1221,0.0,0.0,0.0,0.0,0.0,-1.603,-1.801,-2.0112,-2.4471,0.0,0.0,-3.0417,-2.9676,0.0,0.0,0.0,0.0,0.0,-3.1359,-3.1205,0.0,-2.7284,-2.3653,0.0,0.0,0.0,0.0,0.0,0.0,-1.3111,0.0,0.0,0.0,0.0,0.0,0.0,0.0,0.0,0.0,0.0,0.0,0.0,0.0,0.0,0.0,0.0,0.0,0.0,0.0,0.0,0.0,0.0,0.0,0.0,0.0,0.0,0.0,-5.4983,-5.51,-5.6766,-5.7234,-5.7231,-5.679,-5.756,-5.806,-5.831,-5.9749,-6.0615,-6.0869,-6.0891,-6.0999,-6.1173,-6.1137,-6.1189,-6.1306,-6.1261,-6.121,-6.1155,-6.1041,-6.1637,-6.2538,-6.2494,-6.3511,-6.4917,-6.3729,-6.4446,-6.5842,0.0,0.0,-0.8141,-0.8531,-0.9382,-1.0017,-1.0087,-1.0464,-1.0753,0.0,0.0,0.0,0.0,0.0,-1.1291,-1.1844,-1.1792,-1.1382,-1.0555,-1.0706,-1.0288,-0.9075,-0.8941,-0.8786,-0.8508,-0.8954,-0.9324,-0.96,0.0,0.0,0.0,0.0,0.0,0.0,-1.3662,-1.5117,-1.6976,0.0,0.0,0.0,-3.0418,0.0,0.0,-3.3876,-3.5217,0.0,0.0,0.0,-3.5624,-3.4979,-3.1175,0.0,0.0,0.0,0.0,0.0,0.0,0.0,0.0,0.0,0.0,0.0,0.0,0.0,0.0,0.0,0.0,0.0,0.0,0.0,0.0,0.0,0.0,0.0,0.0,0.0,0.0,0.0,0.0,0.0,0.0,0.0,0.0,0.0,0.0,-5.5655,-5.4719,-5.4784,-5.614,-5.7105,-5.7268,-5.6535,-5.767,-5.8306,-5.8306,-5.9999,-6.0846,-6.0911,-6.0916,-6.1041,-6.121,-6.1173,-6.1225,-6.1302,-6.1261,-6.121,-6.1155,-6.108,-6.1503,-6.2191,-6.2105,-6.2887,-6.4042,-6.3474,-6.4166,-6.5331,0.0,0.0,-0.8825,-0.9479,-1.0073,-1.0523,-1.0729,-1.0808,-1.0851,0.0,-1.1055,0.0,0.0,0.0,0.0,0.0,-1.2253,-1.1731,-1.1076,-1.1453,-1.1091,-0.9762,-0.9588,-0.9221,-0.8637,-0.8594,-0.8883,0.0,0.0,0.0,0.0,0.0,0.0,0.0,-1.2407,-1.3577,-1.56,-1.83,0.0,-2.5631,-2.9043,-3.1876,0.0,0.0,-3.7759,0.0,-3.9853,-4.0075,-3.9919,-4.0175,-3.5649,0.0,0.0,0.0,0.0,0.0,-1.5423,0.0,0.0,-1.279,-1.3536,0.0,0.0,0.0,0.0,0.0,0.0,0.0,0.0,0.0,0.0,0.0,0.0,0.0,0.0,0.0,0.0,0.0,0.0,0.0,0.0,0.0,0.0,-5.5816,-5.6126,-5.5613,-5.6139,-5.6493,-5.6477,-5.7636,-5.7538,-5.5917,-5.7453,-5.83,-5.83,-6.0041,-6.0891,-6.0911,-6.0981,-6.108,-6.121,-6.1261,-6.131,-6.1302,-6.1294,-6.1227,-6.1099,-6.108,-6.1466,-6.2037,-6.1924,-6.2397,-6.3161,-6.3188,-6.3809,-6.4609,-0.7627,-0.83,-0.8818,-0.9008,-0.9977,-1.0705,-1.0632,-1.1187,-1.1717,-1.213,-1.2587,0.0,0.0,0.0,0.0,0.0,-1.2799,-1.2417,-1.1897,-1.1761,-1.1318,-1.0446,-0.988,-0.9523,-0.9394,-0.8812,-0.8573,0.0,0.0,0.0,0.0,0.0,0.0,0.0,-1.2226,-1.3357,-1.5016,-1.6533,0.0,-2.303,-3.0153,0.0,-3.1788,-3.7897,-3.8761,-3.7158,-4.0981,-4.1481,-4.0123,0.0,-3.6411,-3.3145,0.0,0.0,0.0,-1.7947,0.0,0.0,0.0,0.0,0.0,0.0,0.0,0.0,0.0,0.0,0.0,0.0,0.0,0.0,0.0,0.0,0.0,0.0,0.0,0.0,0.0,0.0,0.0,0.0,0.0,0.0,0.0,-5.4546,-5.4697,-5.473,-5.627,-5.6895,-5.6207,-5.7527,-5.7848,-5.6865,-5.7783,-5.83,-5.83,-6.0041,-6.0933,-6.0976,-6.0981,-6.1099,-6.1281,-6.1297,-6.131,-6.1302,-6.1242,-6.1173,-6.1099,-6.104,-6.1053,-6.1142,-6.1054,-6.157,-6.2416,-6.2926,-6.3739,-6.4705,-0.8121,-0.8658,-0.9152,-0.9736,-1.0381,-1.0886,-1.1162,-1.1825,-1.2595,-1.3391,0.0,0.0,0.0,0.0,0.0,0.0,0.0,-1.382,-1.3286,-1.2907,-1.2394,-1.167,-1.1043,-1.0332,-0.9575,-0.9259,-0.8903,0.0,0.0,0.0,0.0,0.0,0.0,0.0,0.0,-1.394,-1.557,0.0,-1.927,-2.3211,-3.0212,0.0,-3.2896,-4.001,-4.1561,-4.0345,-4.312,-4.3057,-4.1402,-3.9686,-3.7422,0.0,0.0,-2.7827,-2.3877,0.0,-1.8378,-1.6177,0.0,0.0,0.0,-1.496,0.0,0.0,0.0,0.0,0.0,0.0,0.0,0.0,0.0,0.0,0.0,0.0,0.0,0.0,0.0,0.0,0.0,0.0,0.0,0.0,0.0,-5.2889,-5.3447,-5.4257,-5.5451,-5.6207,-5.63,-5.7593,-5.8159,-5.7694,-5.8541,-5.9006,-5.9046,-6.0301,-6.098,-6.106,-6.1041,-6.1117,-6.1245,-6.1245,-6.1261,-6.131,-6.1261,-6.1173,-6.1061,-6.1041,-6.0978,-6.0885,-6.1266,-6.1416,-6.1647,-6.322,-6.386,-6.4147,-0.8572,-0.8941,-0.9405,-1.0445,-1.0828,-1.1168,-1.17,-1.254,-1.355,-1.4808,0.0,0.0,0.0,0.0,0.0,0.0,0.0,0.0,0.0,-1.4945,-1.4374,-1.2957,-1.2322,-1.1367,-0.9993,-0.9904,-0.9511,-0.8728,0.0,0.0,0.0,0.0,0.0,0.0,0.0,0.0,0.0,0.0,0.0,-2.5011,0.0,-3.3379,-3.441,-4.155,-4.3986,-4.3722,-4.5193,-4.4765,-4.3286,-4.1525,0.0,-3.6047,-3.6061,-3.1551,0.0,0.0,0.0,0.0,0.0,0.0,0.0,0.0,0.0,-1.7598,0.0,0.0,0.0,0.0,0.0,0.0,0.0,0.0,0.0,0.0,0.0,0.0,0.0,0.0,0.0,0.0,0.0,0.0,0.0,-5.078,-5.2362,-5.3196,-5.4931,-5.6101,-5.642,-5.7659,-5.845,-5.8563,-5.9298,-5.9648,-5.9553,-6.05,-6.0945,-6.0847,-6.1021,-6.1155,-6.121,-6.121,-6.1245,-6.1281,-6.1281,-6.1155,-6.1001,-6.1041,-6.0959,-6.0858,-6.1512,-6.1358,-6.1089,-6.3399,-6.3847,-6.3551,-0.8512,-0.8887,-0.9227,-0.9898,-1.0945,-1.17,-1.1717,-1.3128,-1.4782,0.0,0.0,0.0,0.0,0.0,0.0,0.0,0.0,0.0,-1.6401,0.0,-1.7915,-1.3843,-1.3086,-1.2414,-1.1646,-1.0928,-1.0246,-0.9569,0.0,0.0,0.0,0.0,0.0,0.0,-1.3114,0.0,0.0,0.0,-2.4228,0.0,-3.3955,-3.4677,0.0,-4.1233,-4.3481,-4.2745,-4.5982,-4.6572,-4.5501,0.0,-4.054,-3.7897,0.0,-3.3069,-2.8613,-2.7656,0.0,0.0,0.0,0.0,0.0,0.0,-1.85,0.0,0.0,0.0,0.0,0.0,0.0,0.0,0.0,0.0,0.0,0.0,0.0,0.0,0.0,0.0,0.0,0.0,0.0,0.0,0.0,0.0,-5.1264,-5.0286,-5.6084,-5.8663,-5.6369,-5.7546,-5.8699,-5.9512,-5.9605,-5.9298,-5.8665,-6.021,-6.0655,-5.9958,-6.0787,-6.1192,-6.121,-6.1245,-6.1245,-6.121,-6.1155,-6.108,-6.0997,-6.0935,-6.0869,-6.08,-6.0896,-6.0877,-6.1012,-6.2727,-6.3347,-6.3551,-0.8618,-0.8974,-0.9426,-1.0222,-1.1179,-1.1945,-1.2184,-1.418,-1.6312,0.0,0.0,0.0,0.0,0.0,0.0,0.0,0.0,-2.4723,0.0,0.0,-2.0805,-1.809,-1.545,-1.3742,-1.3065,-1.2007,-1.1104,-1.0396,-0.9809,0.0,0.0,0.0,0.0,0.0,-1.4288,0.0,-2.0861,0.0,0.0,0.0,0.0,0.0,0.0,-4.2531,-4.4991,-4.5323,-4.6347,-4.68,-4.6414,0.0,-4.2393,0.0,0.0,0.0,0.0,0.0,0.0,0.0,0.0,0.0,0.0,0.0,0.0,0.0,-2.0518,0.0,-1.8058,0.0,0.0,0.0,0.0,0.0,0.0,0.0,0.0,0.0,0.0,0.0,0.0,0.0,0.0,0.0,0.0,0.0,0.0,0.0,0.0,-5.3105,-5.3574,-5.6582,-5.8506,-5.8933,-5.9896,-5.9803,-5.8565,-5.9726,-5.9937,-5.9246,-6.0082,-6.0472,-6.0455,-6.0995,-6.121,-6.1155,-6.1155,-6.1099,-6.0997,-6.0959,-6.0894,-6.08,-6.08,-6.1108,-6.1743,-6.3411,-6.4026,-6.4224,-0.8933,-0.9158,-0.9556,-1.0572,-1.1369,-1.226,-1.3386,-1.582,-1.8215,0.0,0.0,0.0,-2.6318,-2.5447,0.0,0.0,0.0,-2.9582,0.0,0.0,-2.4676,-2.3144,-1.8238,0.0,0.0,-1.3613,-1.2091,-1.1168,-1.0504,0.0,0.0,0.0,0.0,0.0,0.0,-1.8549,-2.2248,0.0,0.0,-3.5379,-3.6427,-3.8504,-4.1239,-4.4025,-4.6168,-4.7643,-4.7292,-4.7538,-4.7485,-4.4044,-4.3685,0.0,-4.0998,0.0,0.0,0.0,0.0,0.0,-2.9127,0.0,0.0,0.0,0.0,0.0,0.0,0.0,0.0,0.0,0.0,0.0,0.0,0.0,0.0,0.0,0.0,0.0,0.0,0.0,0.0,0.0,0.0,0.0,0.0,0.0,0.0,0.0,0.0,0.0,-5.0795,-5.5308,-5.8113,-5.8699,-5.9954,-5.9998,-5.8615,-5.9432,-5.9351,-5.8469,-5.9743,-6.0198,-5.9932,-6.0803,-6.1155,-6.1099,-6.1155,-6.1099,-6.0997,-6.1,-6.0918,-6.08,-6.08,-6.1473,-6.257,-6.3801,-6.4372,-6.4699,-0.9577,-0.9377,-0.9474,-1.0689,-1.1394,-1.2759,-1.5578,-1.8166,0.0,0.0,0.0,0.0,0.0,0.0,0.0,0.0,0.0,-3.4056,-3.1878,0.0,-3.024,0.0,0.0,-1.8119,0.0,0.0,-1.3252,-1.1876,0.0,0.0,0.0,0.0,0.0,0.0,0.0,-1.8114,-2.134,-2.7504,-3.2271,-3.6107,-4.1185,-4.4883,-4.7111,0.0,-4.6184,-4.8573,-4.9311,0.0,0.0,-4.6871,-4.4251,0.0,0.0,0.0,0.0,0.0,0.0,0.0,0.0,0.0,0.0,-2.8285,0.0,0.0,0.0,0.0,-1.9869,0.0,0.0,0.0,0.0,0.0,0.0,0.0,0.0,0.0,0.0,0.0,0.0,0.0,0.0,0.0,0.0,0.0,0.0,0.0,0.0,0.0,-4.8859,-5.3786,-5.7555,-5.9504,-5.9663,-5.936,-5.8598,-5.9467,-5.9094,-5.7577,-6.0073,-6.0777,-5.9932,-6.0803,-6.1155,-6.1099,-6.1099,-6.106,-6.0997,-6.0997,-6.0933,-6.08,-6.08,-6.182,-6.3281,-6.332,-6.3828,-6.4641,-0.9864,-0.9432,-0.9453,-1.0619,-1.1394,-1.2827,0.0,-1.7474,0.0,0.0,0.0,0.0,0.0,0.0,-3.275,0.0,0.0,-3.7038,-3.5274,-3.5112,0.0,0.0,0.0,-2.3438,0.0,0.0,0.0,0.0,0.0,0.0,0.0,0.0,0.0,0.0,0.0,-1.9706,0.0,0.0,0.0,0.0,0.0,-4.5695,-4.5958,0.0,0.0,-4.9398,-4.9955,-5.0307,0.0,-4.7783,-4.7212,-4.7247,-4.5583,-4.3515,-4.2077,-4.3753,-4.0635,0.0,0.0,0.0,-3.6847,-3.4492,0.0,0.0,0.0,0.0,0.0,0.0,0.0,0.0,0.0,0.0,0.0,0.0,0.0,0.0,0.0,0.0,0.0,0.0,0.0,0.0,0.0,0.0,0.0,0.0,0.0,0.0,0.0,-4.9543,-5.3547,-5.5382,-5.7599,-5.8452,-5.7751,-5.8037,-5.766,-5.6665,-5.8687,-5.9417,-5.908,-6.0552,-6.1155,-6.1099,-6.1099,-6.1061,-6.1001,-6.1001,-6.0938,-6.0811,-6.0234,-6.132,-6.3174,-6.268,-6.3372,-6.4468,-1.0173,-0.9835,-0.9953,-1.087,-1.1798,0.0,0.0,0.0,0.0,0.0,-2.8576,0.0,-3.593,0.0,-3.5207,0.0,-3.8206,-3.9044,-3.9984,-3.7353,0.0,-3.905,-3.1606,0.0,0.0,0.0,0.0,0.0,0.0,-1.3969,0.0,0.0,0.0,0.0,0.0,-1.9946,-2.4962,0.0,-3.5434,0.0,0.0,-4.6523,0.0,0.0,-4.8679,-4.9901,0.0,-5.0471,-5.0355,-4.9083,-4.9221,-4.96,-4.7401,-4.637,-4.6079,-4.6618,-4.3978,-4.1288,-4.2934,-4.2317,0.0,-3.8749,-3.7158,0.0,-3.1485,0.0,0.0,0.0,0.0,0.0,0.0,0.0,0.0,0.0,0.0,0.0,0.0,-1.4412,0.0,0.0,0.0,0.0,0.0,0.0,0.0,0.0,0.0,0.0,0.0,0.0,-5.0952,-5.282,-5.6403,-5.7988,-5.7306,-5.7611,-5.725,-5.6251,-5.795,-5.8715,-5.8671,-6.0089,-6.0884,-6.1099,-6.1099,-6.0887,-6.0596,-6.0886,-6.0787,-6.0391,-5.9832,-6.09,-6.2713,-6.1959,-6.2709,-6.396,-1.052,-1.0593,0.0,0.0,-1.2775,0.0,0.0,0.0,-2.5292,0.0,-3.1583,-3.2368,-3.4781,-3.4529,-3.5071,-3.7184,-3.7768,0.0,-4.5457,-3.8392,0.0,0.0,-3.5535,-3.1393,-3.6164,0.0,0.0,0.0,0.0,0.0,0.0,0.0,0.0,0.0,-1.6508,0.0,-2.2858,-2.9954,-3.4456,-3.738,-4.3393,-4.7376,-4.9573,-4.7684,0.0,-5.0275,-5.032,-5.0171,-4.9982,-5.0655,-5.0148,-4.9321,-4.9626,-4.917,-4.8573,-4.8521,-4.7485,-4.6502,-4.7239,-4.5291,-4.2703,-4.1251,0.0,0.0,0.0,0.0,-3.359,0.0,0.0,0.0,0.0,0.0,0.0,0.0,0.0,0.0,0.0,0.0,0.0,0.0,0.0,0.0,0.0,0.0,0.0,0.0,0.0,0.0,0.0,0.0,-4.9597,-5.1952,-5.5767,-5.7622,-5.7224,-5.7937,-5.7614,-5.6298,-5.7877,-5.8642,-5.8664,-5.9471,-6.0286,-6.1041,-6.1041,-6.0577,-5.9862,-6.0654,-6.0439,-5.9601,-5.9562,-6.0522,-6.1843,-6.1196,-6.1951,-6.3165,-1.101,-1.174,-1.3016,0.0,-1.6483,-1.8359,0.0,0.0,0.0,0.0,-3.4102,-3.6407,-3.9164,-4.0375,-4.0701,-3.9949,-4.1076,0.0,0.0,0.0,0.0,-4.5782,-4.1084,-3.8426,-3.8558,-3.3282,0.0,-2.6319,0.0,0.0,-1.6403,0.0,0.0,0.0,0.0,0.0,-2.4339,-3.0883,-3.7318,-4.3279,-4.4875,-4.6702,0.0,0.0,-4.9474,-5.0634,-5.009,-4.9999,-5.0171,-5.0547,-5.0462,-5.02,-4.9802,-4.9539,-4.9258,-4.8696,-4.824,-4.7977,-4.817,-4.7239,-4.6024,-4.524,-4.305,-4.0618,0.0,0.0,0.0,0.0,0.0,0.0,0.0,0.0,0.0,0.0,0.0,0.0,0.0,0.0,0.0,0.0,0.0,0.0,0.0,0.0,0.0,0.0,0.0,0.0,0.0,0.0,0.0,-5.0856,-5.0837,-5.2511,-5.6228,-5.466,-5.4614,-5.6164,-5.7234,-5.7724,-5.7691,-5.8544,-5.9397,-6.0209,-6.0209,-6.0093,-5.9939,-6.0732,-6.0558,-5.9668,-5.9031,-5.901,-5.9567,-6.118,-6.1659,-6.1439,-1.1923,0.0,0.0,-1.6099,0.0,0.0,-2.3793,0.0,0.0,-3.5136,-3.688,0.0,-4.2223,-4.3249,-4.3395,-4.2695,-4.2432,0.0,0.0,0.0,0.0,-4.7506,-4.4349,-4.1876,-4.0683,-3.7426,0.0,-2.9797,0.0,0.0,-1.8258,0.0,0.0,0.0,0.0,-1.9523,0.0,-3.1912,-3.8963,-4.5288,-4.5605,0.0,0.0,-4.874,-4.9383,-5.0427,-4.9862,-4.9767,-4.9942,-5.038,-5.0492,-5.0366,-5.015,-5.0135,-5.0136,-4.9679,-4.9311,-4.903,-4.903,-4.8324,-4.7523,-4.7305,-4.5819,-4.415,-4.3445,-4.1995,-4.0414,0.0,0.0,0.0,0.0,0.0,0.0,0.0,0.0,0.0,0.0,0.0,0.0,0.0,0.0,0.0,0.0,0.0,0.0,0.0,0.0,0.0,0.0,0.0,0.0,-4.6191,-4.8565,-5.0681,-5.2614,-5.1573,-5.2166,-5.4444,-5.4952,-5.5927,-5.7345,-5.7811,-5.8507,-5.9339,-5.9725,-5.9474,-5.8874,-6.046,-6.0133,-5.8684,-5.8896,-5.872,-5.8622,-6.082,-6.1296,-6.0846,-1.3376,0.0,0.0,0.0,0.0,0.0,0.0,-3.036,0.0,-3.875,0.0,-4.0476,-4.379,-4.4194,-4.4508,-4.5041,0.0,-4.4126,-4.896,-4.3775,-4.3448,-4.9962,-4.6209,-4.3657,-4.3072,-4.0905,0.0,0.0,0.0,0.0,0.0,0.0,0.0,0.0,0.0,0.0,0.0,-3.2938,-3.9581,0.0,-4.6122,-4.7945,-5.0081,-4.8889,-4.9015,-4.9884,-4.9767,-4.9666,-4.959,-5.0171,-5.0302,-5.0302,-5.0547,-5.0747,-5.0891,-5.0891,-5.0382,-4.9837,-4.9837,-4.899,-4.8156,-4.8348,-4.8038,-4.7705,-4.7669,-4.7147,-4.6608,-4.6356,-4.533,-4.357,0.0,0.0,0.0,0.0,0.0,0.0,0.0,0.0,0.0,0.0,0.0,0.0,0.0,0.0,0.0,0.0,0.0,0.0,0.0,0.0,0.0,-4.0808,-4.7043,0.0,-4.8705,0.0,-5.043,-5.2933,-5.2511,-5.4026,-5.7204,-5.717,-5.7617,-5.8486,-5.9241,-5.87,-5.7501,-5.9938,-5.9552,-5.7544,-5.9027,-5.9081,-5.8522,-6.0318,-6.0955,-6.0891,0.0,0.0,0.0,0.0,0.0,-2.7185,-3.4751,-3.6869,-3.7604,-3.7458,-3.9776,-4.1638,-4.204,-4.4647,-4.617,-4.5631,-4.6803,0.0,0.0,0.0,0.0,-5.0057,-4.8336,-4.7237,-4.7037,-4.4055,-4.1626,0.0,0.0,0.0,0.0,0.0,0.0,0.0,0.0,0.0,-3.1981,-3.3625,0.0,-4.669,-4.7474,-4.8305,-4.9257,-5.0997,-5.0956,-4.9993,-4.9935,-4.986,-4.9708,-5.0132,-5.0285,-5.0397,-5.0547,-5.0747,-5.0891,-5.0891,-5.0785,-5.068,-5.068,-5.0189,-4.977,-5.0036,-4.9686,-4.9343,-4.9567,-4.9414,-4.8901,-4.7669,-4.7662,-4.7071,-4.4664,0.0,0.0,0.0,0.0,0.0,0.0,0.0,0.0,0.0,0.0,0.0,0.0,0.0,0.0,0.0,0.0,0.0,0.0,0.0,0.0,0.0,-4.2178,0.0,0.0,0.0,-5.0368,-5.6325,-5.3536,-5.363,-5.6261,-5.6278,-5.6778,-5.7611,-5.7766,-5.7669,-5.7514,-5.9357,-5.9416,-5.845,-5.932,-5.9144,-5.8564,-6.0234,-6.0846,-6.0911,0.0,0.0,0.0,0.0,0.0,0.0,0.0,-3.7621,0.0,-4.0375,-4.1353,-4.246,-4.3337,-4.5935,-4.737,-4.6742,-4.8149,-4.9238,-4.946,-4.887,-4.9008,-5.0143,-4.9536,0.0,-4.63,-4.5721,-4.369,-4.0017,0.0,0.0,0.0,0.0,0.0,0.0,0.0,-2.6925,0.0,0.0,0.0,-4.6308,-4.7813,-4.9089,-5.0097,-5.0863,-5.0614,-4.986,-4.9935,-4.986,-4.9767,-5.0034,-5.0206,-5.0302,-5.0397,-5.0564,-5.0729,-5.0729,-5.0819,-5.0891,-5.0891,-5.0893,-5.0862,-5.0552,-5.0515,-5.0444,-5.018,-5.0045,-4.9657,-4.8525,-4.888,-4.8215,-4.4548,-4.0975,0.0,0.0,0.0,0.0,0.0,0.0,0.0,0.0,0.0,0.0,0.0,0.0,0.0,0.0,0.0,0.0,0.0,0.0,0.0,0.0,0.0,0.0,0.0,0.0,0.0,-5.3981,-5.2814,-5.3569,-5.6012,-5.6029,-5.6297,-5.6756,-5.7168,-5.711,-5.6795,-5.7557,-5.7907,-5.7986,-5.8742,-5.8779,-5.8604,-6.0234,-6.0891,-6.0955,0.0,-2.2361,0.0,0.0,-2.8545,0.0,-3.2908,-3.7261,-4.1087,-4.2812,-4.2521,-4.2879,-4.4801,-4.659,-4.7436,-4.6874,-4.8328,-4.9135,-4.8705,-4.9177,-4.9561,-4.9749,-5.0036,-4.8737,-4.5543,-4.6813,-4.5087,0.0,0.0,0.0,0.0,0.0,0.0,0.0,0.0,0.0,0.0,0.0,-4.3305,-4.6544,-4.8355,-4.9993,-5.1269,-5.0528,-4.9997,-4.9708,-4.986,-4.9801,-4.9708,-4.986,-5.0034,-5.0189,-5.0189,-5.0324,-5.053,-5.0585,-5.0729,-5.0819,-5.0891,-5.1298,-5.1547,-5.0905,-5.1149,-5.1375,-5.0741,-5.0597,-5.0335,-4.9539,-4.9649,-4.8694,-4.4826,-4.344,0.0,0.0,0.0,0.0,0.0,0.0,0.0,0.0,0.0,0.0,0.0,0.0,0.0,0.0,0.0,0.0,0.0,0.0,0.0,0.0,0.0,-4.3046,-4.5747,0.0,-4.8523,0.0,-5.2225,-5.3588,-5.6012,-5.6012,-5.6065,-5.6172,-5.6781,-5.6764,-5.6353,-5.6106,-5.6515,-5.7367,-5.8124,-5.8412,-5.8604,-6.0275,-6.0933,-6.0976,0.0,0.0,0.0,0.0,0.0,0.0,0.0,-3.8866,-3.7972,-4.0943,-4.1698,-4.2506,-4.4131,-4.5064,-4.5269,-4.4387,-4.7596,-4.827,-4.4958,-4.8749,-5.0148,-4.8125,-4.9581,-4.9781,-4.8335,-4.7726,-4.6377,0.0,0.0,0.0,0.0,0.0,0.0,0.0,0.0,0.0,0.0,-4.0608,-4.4573,-4.9597,-4.9804,-5.0787,-5.2028,-5.1287,-5.0445,-4.9708,-4.9708,-4.9649,-4.9547,-4.9649,-4.9959,-5.0189,-5.0189,-5.0285,-5.0453,-5.053,-5.0585,-5.0657,-5.0819,-5.1298,-5.1672,-5.1601,-5.1976,-5.2371,-5.2281,-5.217,-5.186,-5.1048,-5.0271,-4.9567,-4.9117,-4.614,-4.2652,0.0,0.0,0.0,0.0,0.0,0.0,0.0,0.0,0.0,0.0,0.0,0.0,0.0,0.0,0.0,0.0,0.0,0.0,-3.7795,0.0,-4.0015,-4.5658,-4.578,0.0,-5.5511,-5.3265,-5.3536,-5.6012,-5.6046,-5.6133,-5.6184,-5.6211,-5.6568,-5.7134,-5.6341,-5.6515,-5.7367,-5.8124,-5.8412,-5.8604,-6.0211,-6.0891,-6.0976,0.0,0.0,0.0,0.0,0.0,0.0,0.0,-3.9306,-4.0019,-4.1357,-4.1351,-4.1756,-4.3103,-4.4449,-4.5003,-4.4388,-4.7194,-4.8152,-4.6035,-4.8441,-4.9688,-4.9224,-4.9959,-4.9973,-4.9075,-4.8375,-4.7074,0.0,0.0,0.0,0.0,0.0,0.0,0.0,0.0,-3.8709,-4.1157,-4.4439,-4.743,-5.0045,-5.0493,-5.1028,-5.1476,-5.0735,-5.0059,-4.959,-4.9649,-4.953,-4.935,-4.959,-4.9767,-4.9942,-5.0034,-5.0206,-5.0397,-5.0453,-5.062,-5.0819,-5.0891,-5.1298,-5.169,-5.169,-5.2084,-5.2498,-5.2498,-5.2452,-5.217,-5.1375,-5.0561,-5.0037,-5.0386,-4.9631,-4.7838,0.0,0.0,0.0,0.0,0.0,0.0,0.0,0.0,0.0,0.0,0.0,0.0,0.0,0.0,0.0,0.0,0.0,0.0,-4.0843,0.0,-4.3763,-5.1083,-4.9618,-5.1006,-5.5323,-5.4835,-5.5094,-5.6012,-5.6029,-5.6046,-5.6082,-5.6098,-5.6259,-5.6495,-5.6147,-5.6205,-5.6633,-5.7912,-5.8412,-5.8585,-6.0211,-6.0869,-6.0976,-3.4638,0.0,-3.3737,0.0,-3.672,-3.7715,-3.7789,-3.9929,-4.1581,-4.1443,-4.1397,-4.1786,-4.2998,-4.4298,-4.4823,-4.4164,-4.6498,-4.7247,-4.5352,-4.7417,-4.8847,-4.9018,-4.9723,0.0,-4.943,-4.8695,-4.7456,-4.5682,-4.1054,0.0,0.0,-3.3059,0.0,0.0,-4.0151,-4.2188,-4.3595,-4.7269,-4.9269,-5.0045,-5.058,-5.0925,-5.1028,-5.0287,-4.9801,-4.9488,-4.9607,-4.9411,-4.9168,-4.953,-4.9649,-4.9649,-4.9935,-5.0109,-5.0302,-5.0359,-5.0582,-5.0764,-5.0891,-5.1298,-5.169,-5.169,-5.2084,-5.2498,-5.2498,-5.2498,-5.2335,-5.171,-5.1284,-5.112,-5.1567,-5.2022,-5.1248,-4.7858,0.0,0.0,0.0,0.0,0.0,0.0,-3.8553,-3.7433,-3.9862,0.0,0.0,0.0,0.0,0.0,0.0,0.0,0.0,0.0,0.0,0.0,0.0,-5.0442,-5.1498,-5.4905,-5.5742,-5.6098,-5.6012,-5.6029,-5.6029,-5.5993,-5.6082,-5.6046,-5.6012,-5.6012,-5.6012,-5.6149,-5.7777,-5.8412,-5.8585,-6.0211,-6.0846,-6.0933,-3.8932,-3.9917,-4.077,-4.1797,-4.216,-4.194,-4.0751,-4.1146,-4.1342,-4.0582,-4.1695,-4.3047,-4.4316,-4.4519,-4.4147,-4.3269,-4.5303,-4.5044,-4.1306,-4.5509,-4.7648,0.0,0.0,-4.9679,-4.9732,-4.8644,-4.7575,-4.6596,0.0,0.0,-3.7369,-3.7335,-3.9008,-4.2123,-4.5147,-4.6527,-4.6648,-4.8183,-4.9269,-5.0011,-5.0011,-5.0459,-5.1028,-5.0287,-4.9801,-4.9488,-4.9488,-4.9307,-4.9063,-4.9367,-4.9488,-4.9547,-4.9877,-4.9993,-5.0051,-5.0302,-5.0397,-5.0471,-5.0819,-5.1298,-5.169,-5.169,-5.2084,-5.2498,-5.2498,-5.2498,-5.2452,-5.2293,-5.2713,-5.3153,-5.3327,-5.2744,-5.1321,-4.8712,0.0,0.0,0.0,0.0,0.0,0.0,-3.7071,-3.5535,-3.9081,0.0,0.0,0.0,0.0,0.0,0.0,0.0,0.0,-3.7775,-3.5508,0.0,-4.4562,-4.6252,-4.9699,-5.4905,-5.5639,-5.6012,-5.6012,-5.6082,-5.6046,-5.5993,-5.6082,-5.6046,-5.6012,-5.6012,-5.6012,-5.6149,-5.7777,-5.8412,-5.8585,-6.0211,-6.08,-6.08,-3.6394,-3.8467,-4.0171,-3.9802,-4.0722,-4.1549,-4.1814,-4.2138,-4.2423,-4.2556,-4.2601,-4.2941,-4.3706,-4.4259,-4.4538,0.0,-4.444,-4.4182,0.0,-4.4624,-4.5556,-4.6774,-4.7154,-4.7064,-4.6586,-4.7072,-4.6656,-4.5319,0.0,0.0,0.0,-4.2112,-4.3475,-4.5977,-4.6924,-4.752,-4.7809,-4.8877,-4.9325,-4.9522,-5.0155,-5.0266,-4.9992,-4.987,-4.9666,-4.9488,-4.935,-4.9229,-4.9168,-4.9229,-4.929,-4.935,-4.9607,-4.9959,-5.0302,-5.0359,-5.0582,-5.0764,-5.0891,-5.1298,-5.169,-5.169,-5.2084,-5.2498,-5.2498,-5.2915,-5.3266,-5.3153,-5.3621,-5.4111,-5.4076,-5.4122,-5.3326,-5.0812,-5.1114,0.0,0.0,0.0,0.0,-4.4284,-4.1026,-3.9845,0.0,-3.8785,0.0,0.0,0.0,0.0,0.0,0.0,0.0,0.0,-4.448,0.0,-5.2298,-5.1109,-5.226,-5.5792,-5.5982,-5.6046,-5.6012,-5.6029,-5.6029,-5.6012,-5.6029,-5.6029,-5.6012,-5.6012,-5.6012,-5.6149,-5.7777,-5.8412,-5.8604,-6.0165,-6.0777,-6.0777,-3.8137,-3.9817,-4.1281,-4.1032,-4.1697,-4.2169,-4.1977,-4.237,-4.2646,-4.249,-4.252,-4.2818,-4.3453,-4.3881,0.0,-4.5015,-4.4457,-4.4423,-4.5354,-4.4663,-4.5163,-4.7317,-4.6986,-4.688,-4.7087,0.0,0.0,-4.6239,-4.6375,-4.6286,-4.5992,-4.6161,-4.6845,-4.7945,-4.7758,-4.7899,-4.826,-4.9044,-4.935,-4.9324,-4.9922,-4.9898,-4.9488,-4.959,-4.959,-4.9488,-4.935,-4.929,-4.9229,-4.929,-4.9229,-4.9229,-4.9428,-4.9825,-5.0228,-5.0285,-5.0526,-5.0764,-5.0891,-5.1298,-5.169,-5.169,-5.2084,-5.2498,-5.2498,-5.3114,-5.3736,-5.3893,-5.453,-5.5162,-5.5501,-5.545,-5.4971,-5.376,-5.3976,-5.3731,-5.2103,0.0,0.0,0.0,0.0,0.0,0.0,-4.2845,0.0,0.0,0.0,0.0,0.0,0.0,0.0,-4.6031,-4.7203,0.0,-5.3507,-5.2599,-5.3462,-5.6114,-5.6082,-5.6029,-5.6012,-5.6012,-5.6012,-5.6012,-5.6012,-5.6012,-5.6012,-5.6012,-5.6012,-5.6149,-5.7796,-5.8412,-5.8585,-6.0165,-6.0729,-6.0704,-4.2755,-4.312,0.0,0.0,-4.4324,0.0,-4.1695,-4.2181,-4.228,-4.0829,-4.173,-4.2756,-4.3333,-4.3393,-4.3706,-4.4316,0.0,0.0,0.0,-4.5267,-4.6011,-4.789,-4.7726,-4.8329,-5.0011,-4.9158,-4.8803,-4.8907,-4.9648,-4.9631,-4.8867,-4.934,-4.9095,-4.8336,-4.8039,-4.8013,-4.8201,-4.888,-4.929,-4.9428,-4.9488,-4.9488,-4.9488,-4.9488,-4.9488,-4.9488,-4.9488,-4.935,-4.9229,-4.9411,-4.9367,-4.9229,-4.9428,-4.9708,-4.9942,-5.0132,-5.0285,-5.0471,-5.0819,-5.1298,-5.169,-5.169,-5.2084,-5.2516,-5.257,-5.3204,-5.3953,-5.4548,-5.5342,-5.6201,-5.7211,-5.6708,-5.6327,-5.7069,-5.5625,-5.4504,-5.478,0.0,-4.9618,0.0,0.0,0.0,0.0,-4.6401,-4.5893,0.0,0.0,0.0,0.0,0.0,-4.0268,-4.3515,-4.5299,-4.739,-4.983,-5.1526,-5.3586,-5.6012,-5.6012,-5.6012,-5.6012,-5.5993,-5.5993,-5.6012,-5.5993,-5.5993,-5.6012,-5.6012,-5.6012,-5.6169,-5.7853,-5.8452,-5.8585,-6.0211,-6.0729,-6.0578,0.0,0.0,-4.2696,-4.1612,-4.2937,-4.3831,-4.2856,-4.3135,-4.3174,-4.2328,-4.1978,-4.19,-4.2013,-4.2506,-4.288,-4.3064,-4.2593,-4.2953,-4.4601,-4.3707,-4.4264,-4.6805,-4.6393,-4.6237,-4.66,-4.7476,-4.8545,-4.9735,-4.9907,-4.9774,-4.9333,-4.9715,-4.958,-4.9018,-4.9197,-4.9078,-4.8809,-4.8978,-4.9018,-4.8956,-4.9063,-4.9124,-4.9124,-4.9229,-4.9246,-4.9124,-4.9229,-4.9229,-4.9229,-4.9411,-4.9488,-4.9428,-4.9488,-4.959,-4.9825,-5.0132,-5.0397,-5.0602,-5.0819,-5.1298,-5.169,-5.169,-5.2084,-5.2661,-5.3277,-5.4037,-5.4834,-5.5509,-5.6205,-5.6819,-5.7152,-5.7143,-5.7115,-5.7339,-5.6912,-5.5766,-5.3404,-5.1934,-5.0015,0.0,-4.7229,-4.7766,-4.8296,-4.9464,-4.9476,0.0,0.0,0.0,0.0,-4.8049,-4.8318,-4.974,-5.1491,-5.2724,-5.3397,-5.4458,-5.5343,-5.6012,-5.6012,-5.6012,-5.6012,-5.6046,-5.6046,-5.5993,-5.6046,-5.6046,-5.6012,-5.6012,-5.6012,-5.6169,-5.7853,-5.8452,-5.8585,-6.0211,-6.0729,-6.0578,-4.0834,-4.2241,-4.3319,-4.2441,-4.353,-4.432,-4.3691,-4.3811,-4.3677,-4.2821,-4.2347,-4.2094,-4.2094,-4.2409,-4.2783,-4.3053,-4.2615,-4.2932,-4.4395,-4.4101,-4.4835,-4.699,-4.7082,-4.7202,-4.751,-4.8338,-4.9166,-5.0011,-5.0297,-5.0145,-4.9607,-4.9907,-4.9691,-4.9107,-4.9168,-4.9046,-4.8894,-4.8894,-4.8894,-4.8894,-4.894,-4.9001,-4.9001,-4.9063,-4.9063,-4.9001,-4.9246,-4.929,-4.9229,-4.9471,-4.9547,-4.9488,-4.9488,-4.959,-4.9767,-5.0132,-5.0341,-5.0564,-5.0819,-5.1298,-5.174,-5.1987,-5.2564,-5.3168,-5.3603,-5.4581,-5.5522,-5.5921,-5.6627,-5.7239,-5.7338,-5.7437,-5.7486,-5.7601,-5.6415,-5.4936,-5.3311,-5.1742,-5.0436,-4.9551,-5.0184,-5.1034,-5.1745,-5.3167,-5.3404,-5.1789,0.0,0.0,-5.2162,-5.1259,-5.1433,-5.3049,-5.4357,-5.4898,-5.4574,-5.5461,-5.5923,-5.6012,-5.6012,-5.6012,-5.6012,-5.6082,-5.6046,-5.5993,-5.6082,-5.6046,-5.6012,-5.6012,-5.6012,-5.6186,-5.7871,-5.8491,-5.8585,-6.0211,-6.0729,-6.0578,-4.4205,-4.4281,-4.4358,-4.4572,-4.4799,-4.4716,-4.4164,-4.4272,-4.4047,-4.3011,-4.2837,-4.2837,-4.2837,-4.2837,-4.3074,-4.3674,-4.3605,-4.386,-4.4653,-4.5301,-4.634,-4.7782,-4.8493,-4.92,-4.9993,-5.0011,-5.0011,-5.0011,-5.0454,-5.036,-4.9607,-4.9875,-4.9656,-4.894,-4.8736,-4.869,-4.8832,-4.8786,-4.8832,-4.894,-4.8877,-4.8877,-4.894,-4.8877,-4.8877,-4.9001,-4.9307,-4.935,-4.9229,-4.959,-4.9666,-4.9547,-4.9547,-4.9666,-4.9825,-5.0132,-5.0359,-5.0526,-5.0819,-5.1298,-5.184,-5.2358,-5.3096,-5.3729,-5.3856,-5.4979,-5.6029,-5.6156,-5.6817,-5.7388,-5.7553,-5.7601,-5.7521,-5.7326,-5.5233,-5.3547,-5.3386,0.0,-5.1372,-5.3386,-5.3381,-5.4044,-5.6072,-5.6406,-5.653,-5.6563,-5.4131,-5.3568,0.0,-5.2991,-5.2452,-5.4607,-5.5338,-5.5397,-5.4724,-5.5518,-5.5923,-5.6012,-5.6012,-5.6012,-5.5993,-5.6082,-5.6062,-5.5993,-5.6082,-5.6082,-5.6012,-5.6012,-5.6012,-5.6167,-5.7907,-5.8491,-5.8564,-6.0211,-6.0704,-6.0552,-4.4281,-4.4281,-4.4358,-4.4572,-4.4799,-4.4716,-4.4164,-4.4272,-4.422,-4.3589,-4.3564,-4.3564,-4.3564,-4.3564,-4.3611,-4.3706,-4.3706,-4.4202,-4.5445,-4.5713,-4.6658,-4.8557,-4.8769,-4.92,-4.9993,-5.0011,-5.0011,-5.0011,-4.9904,-4.971,-4.929,-4.947,-4.9287,-4.8832,-4.8984,-4.9063,-4.894,-4.869,-4.8547,-4.8547,-4.8244,-4.8308,-4.8547,-4.842,-4.842,-4.861,-4.9107,-4.9168,-4.9124,-4.9742,-4.9935,-4.9935,-4.9935,-5.0034,-5.0114,-5.0302,-5.0436,-5.0602,-5.0819,-5.1298,-5.184,-5.2358,-5.3096,-5.3874,-5.4562,-5.5377,-5.6174,-5.6862,-5.7116,-5.7289,-5.7406,-5.7534,-5.6985,-5.522,-5.4695,-5.3757,-5.1575,0.0,-5.3946,-5.4164,-5.4876,-5.6035,-5.7772,-5.6804,-5.6338,-5.6886,-5.647,-5.6049,-5.5722,-5.5203,-5.5107,-5.5491,-5.5626,-5.5688,-5.5673,-5.5827,-5.5923,-5.6012,-5.6065,-5.6046,-5.5993,-5.6126,-5.6126,-5.6012,-5.6133,-5.6098,-5.6012,-5.6012,-5.6012,-5.6186,-5.7853,-5.8432,-5.8522,-6.0188,-6.068,-6.0499,-4.4127,-4.4281,-4.4511,-4.4572,-4.4648,-4.469,-4.4514,-4.4705,-4.4617,-4.4126,-4.4189,-4.4259,-4.4259,-4.4259,-4.4417,-4.4812,-4.4843,-4.5357,-4.6536,-4.6447,-4.7005,-4.8483,-4.9028,-4.9423,-4.9725,-4.9742,-4.9742,-4.9742,-4.9547,-4.935,-4.9229,-4.9246,-4.9124,-4.8894,-4.9063,-4.8923,-4.8736,-4.8547,-4.8436,-4.8244,-4.8066,-4.8049,-4.8098,-4.8163,-4.8163,-4.8163,-4.8861,-4.9063,-4.9063,-4.9666,-4.9935,-4.9993,-5.0092,-5.0132,-5.0246,-5.0453,-5.0712,-5.1052,-5.1281,-5.1589,-5.1987,-5.2387,-5.344,-5.4454,-5.4816,-5.5812,-5.6736,-5.7116,-5.7289,-5.7388,-5.7388,-5.7553,-5.7361,-5.6283,-5.5288,-5.4292,-5.3275,-5.4472,-5.5484,-5.559,-5.7308,-5.8563,-5.8719,-5.8623,-5.8279,-5.7498,-5.7597,-5.7319,-5.6453,-5.5953,-5.5703,-5.5703,-5.5703,-5.5745,-5.5846,-5.5885,-5.5923,-5.6012,-5.6082,-5.6082,-5.6065,-5.6156,-5.6141,-5.6012,-5.6098,-5.6065,-5.5941,-5.5904,-5.5904,-5.6059,-5.7697,-5.831,-5.8437,-6.0095,-6.0604,-6.0499,-4.3832,-4.4205,-4.4435,-4.4435,-4.4511,-4.4648,-4.4874,-4.5039,-4.5017,-4.4673,-4.4827,-4.4898,-4.497,-4.497,-4.5128,-4.5466,-4.564,-4.6143,-4.7025,-4.6947,-4.7358,-4.8405,-4.9205,-4.953,-4.9411,-4.9488,-4.9488,-4.9488,-4.929,-4.9229,-4.9168,-4.9063,-4.894,-4.8877,-4.8877,-4.869,-4.8356,-4.8275,-4.8098,-4.7803,-4.7721,-4.7638,-4.7571,-4.7836,-4.7836,-4.7836,-4.869,-4.9001,-4.9063,-4.9607,-4.986,-5.0011,-5.0092,-5.0189,-5.0246,-5.0492,-5.0928,-5.1436,-5.164,-5.1889,-5.2186,-5.2687,-5.3856,-5.4943,-5.5124,-5.621,-5.7188,-5.7188,-5.7406,-5.7534,-5.7388,-5.7601,-5.7591,-5.6959,0.0,-5.4611,-5.5081,-5.5673,-5.6378,-5.7385,-5.9229,-6.0181,-5.9549,-6.006,-5.9695,-5.8055,-5.8146,-5.7838,-5.6761,-5.6049,-5.5703,-5.5703,-5.5703,-5.5724,-5.5787,-5.5846,-5.6001,-5.6286,-5.6145,-5.6162,-5.6319,-5.6222,-5.6094,-5.5977,-5.6029,-5.5996,-5.5866,-5.5846,-5.5921,-5.6228,-5.7649,-5.8296,-5.8635,-6.0054,-6.0525,-6.0472,-4.3329,-4.3738,-4.405,-4.405,-4.4358,-4.4648,-4.4874,-4.4874,-4.5024,-4.5363,-4.5437,-4.551,-4.5728,-4.5728,-4.5419,-4.4692,-4.5138,-4.5707,-4.6173,-4.6762,-4.7638,-4.8917,-4.9135,-4.9229,-4.9229,-4.9411,-4.9488,-4.9488,-4.929,-4.9229,-4.9168,-4.9063,-4.8815,-4.8547,-4.8547,-4.8356,-4.8001,-4.7621,-4.7421,-4.7251,-4.6876,-4.6807,-4.6945,-4.7167,-4.7437,-4.7836,-4.869,-4.9001,-4.9124,-4.9759,-5.0011,-5.0011,-4.9993,-5.0092,-5.0246,-5.0341,-5.0999,-5.169,-5.169,-5.1889,-5.233,-5.3374,-5.4255,-5.5088,-5.5758,-5.6573,-5.7188,-5.7188,-5.7289,-5.7388,-5.7388,-5.7601,-5.7134,-5.4988,0.0,0.0,-5.5172,-5.5397,-5.6563,-5.9502,-5.9472,-5.9613,-6.058,-5.9792,-5.8962,-5.8312,-5.8277,-5.7569,-5.5895,-5.5722,-5.5703,-5.5703,-5.5703,-5.5724,-5.5787,-5.5787,-5.6251,-5.7101,-5.6309,-5.6309,-5.7004,-5.6325,-5.5996,-5.5905,-5.5903,-5.5866,-5.5807,-5.5885,-5.6287,-5.7011,-5.7857,-5.8635,-5.9319,-6.0181,-6.0472,-6.0417,-4.301,-4.325,-4.366,-4.3988,-4.4143,-4.4358,-4.4648,-4.4799,-4.4949,-4.5114,-4.5204,-4.5368,-4.5589,-4.5515,-4.5159,-4.4542,-4.4977,-4.5258,-4.5277,-4.6249,-4.7455,-4.894,-4.8861,-4.8861,-4.9063,-4.9185,-4.9185,-4.9185,-4.9124,-4.9063,-4.9063,-4.8798,-4.861,-4.8483,-4.8308,-4.7968,-4.7638,-4.7471,-4.7286,-4.6961,-4.6738,-4.6598,-4.6545,-4.703,-4.7167,-4.7354,-4.8339,-4.8736,-4.8906,-4.9367,-4.9666,-4.9842,-4.9901,-5.0074,-5.0246,-5.0436,-5.1088,-5.169,-5.169,-5.2005,-5.2586,-5.3494,-5.4309,-5.5088,-5.583,-5.6609,-5.7188,-5.7188,-5.7388,-5.7504,-5.7406,-5.7601,-5.7481,-5.6418,0.0,-5.651,-5.7358,-5.7473,-5.8175,-6.016,-6.0081,-6.0104,-6.0738,-6.0421,-5.9648,-5.8396,-5.83,-5.755,-5.578,-5.5703,-5.5703,-5.5703,-5.5703,-5.5724,-5.5745,-5.6325,-5.679,-5.7139,-5.6831,-5.6869,-5.714,-5.6364,-5.5959,-5.5905,-5.5904,-5.5808,-5.5682,-5.5703,-5.6137,-5.6908,-5.7772,-5.8547,-5.9312,-5.9864,-6.0049,-6.0019,-4.2555,-4.2864,-4.325,-4.3738,-4.3895,-4.4143,-4.4511,-4.4723,-4.4799,-4.4874,-4.5039,-4.5204,-4.5368,-4.5294,-4.4861,-4.41,-4.4689,-4.4872,-4.4331,-4.5843,-4.7321,-4.8673,-4.861,-4.8627,-4.8956,-4.9001,-4.9001,-4.9001,-4.8877,-4.8877,-4.9001,-4.8564,-4.8356,-4.8308,-4.7984,-4.7571,-4.7202,-4.7202,-4.7066,-4.6807,-4.6668,-4.6458,-4.6278,-4.6961,-4.7115,-4.7014,-4.8146,-4.8593,-4.8765,-4.9168,-4.9471,-4.9649,-4.9767,-4.9942,-5.0246,-5.0436,-5.1035,-5.169,-5.169,-5.2102,-5.2679,-5.3494,-5.411,-5.478,-5.5758,-5.6428,-5.6899,-5.7184,-5.7437,-5.7601,-5.7534,-5.7697,-5.7792,-5.7504,-5.7601,-5.7831,-5.8363,-5.8553,-5.8934,-5.96,-5.9701,-5.9873,-6.0213,-6.0008,-5.9422,-5.8396,-5.805,-5.7242,-5.578,-5.5703,-5.5703,-5.5703,-5.5972,-5.6107,-5.6107,-5.6746,-5.7326,-5.785,-5.737,-5.7274,-5.7506,-5.6406,-5.5885,-5.5826,-5.5846,-5.5745,-5.5596,-5.5596,-5.6199,-5.7169,-5.7762,-5.8635,-5.9595,-5.976,-5.9791,-5.9758,-4.2092,-4.2392,-4.285,-4.325,-4.366,-4.4143,-4.4496,-4.4572,-4.4648,-4.4874,-4.4874,-4.4964,-4.522,-4.522,-4.46,-4.3015,-4.4115,-4.4507,-4.3458,-4.5761,-4.7404,-4.8163,-4.842,-4.861,-4.8786,-4.8956,-4.9001,-4.9001,-4.8673,-4.8673,-4.9001,-4.8325,-4.8001,-4.8001,-4.7571,-4.7202,-4.6876,-4.6876,-4.6807,-4.6582,-4.6582,-4.6404,-4.6168,-4.6909,-4.7115,-4.7082,-4.8258,-4.8702,-4.8765,-4.929,-4.9488,-4.9488,-4.9488,-4.9825,-5.0189,-5.0189,-5.0892,-5.169,-5.169,-5.2102,-5.2697,-5.3494,-5.3693,-5.4092,-5.5649,-5.5993,-5.6278,-5.7224,-5.7504,-5.7649,-5.7792,-5.7904,-5.7904,-5.7649,-5.7697,-5.7745,-5.7649,-5.8227,-5.8436,-5.777,-5.8185,-5.8658,-5.9052,-5.8314,-5.7941,-5.8258,-5.7473,-5.6607,-5.5742,-5.5703,-5.5703,-5.5703,-5.6549,-5.6992,-5.7011,-5.7011,-5.7838,-5.9473,-5.78,-5.7453,-5.8242,-5.6492,-5.5703,-5.5703,-5.5703,-5.5662,-5.5596,-5.5596,-5.6563,-5.7992,-5.7992,-5.8972,-6.0361,-5.9937,-5.9791,-5.9706,-4.2092,-4.2175,-4.2407,-4.2769,-4.325,-4.366,-4.4127,-4.4435,-4.4648,-4.4648,-4.4723,-4.4739,-4.4964,-4.4889,-4.4474,-4.3681,-4.4245,-4.4911,-4.5396,-4.6239,-4.7153,-4.8163,-4.842,-4.861,-4.8786,-4.869,-4.8673,-4.8673,-4.8308,-4.8179,-4.8325,-4.7836,-4.7555,-4.7555,-4.7218,-4.7014,-4.6876,-4.6876,-4.6892,-4.6807,-4.6668,-4.6474,-4.6278,-4.6977,-4.7115,-4.7014,-4.8146,-4.853,-4.8593,-4.9001,-4.9246,-4.929,-4.9488,-4.9825,-5.0189,-5.0189,-5.0784,-5.1436,-5.164,-5.1938,-5.2444,-5.3447,-5.3693,-5.4092,-5.5649,-5.5993,-5.6278,-5.7224,-5.7504,-5.7649,-5.7792,-5.7904,-5.795,-5.7745,-5.7792,-5.7914,-5.8264,-5.7808,-5.7621,-5.8119,-5.768,-5.7554,-5.8127,-5.7951,-5.7692,-5.7393,-5.6569,-5.5972,-5.5703,-5.5703,-5.5994,-5.6652,-5.6879,-5.7591,-5.8809,-5.8784,-5.8723,-5.8646,-5.8146,-5.7723,-5.7338,-5.6222,-5.5703,-5.5703,-5.5703,-5.5489,-5.5205,-5.5485,-5.634,-5.7538,-5.7848,-5.8825,-5.9937,-5.9537,-5.9196,-5.893,-4.2092,-4.2092,-4.2242,-4.2607,-4.301,-4.3503,-4.391,-4.4358,-4.4572,-4.4572,-4.4419,-4.4511,-4.4723,-4.4174,-4.3609,-4.3426,-4.3909,-4.471,-4.5881,-4.6604,-4.7221,-4.7836,-4.8211,-4.842,-4.8564,-4.8547,-4.842,-4.8308,-4.7902,-4.7853,-4.8001,-4.7437,-4.727,-4.7404,-4.7082,-4.6876,-4.6876,-4.6876,-4.6876,-4.6876,-4.6738,-4.6528,-4.6404,-4.7046,-4.7167,-4.7014,-4.8016,-4.842,-4.8547,-4.8815,-4.9001,-4.9185,-4.9428,-4.9767,-5.0114,-5.0246,-5.0838,-5.1487,-5.164,-5.1987,-5.2419,-5.3049,-5.3222,-5.3548,-5.4798,-5.5341,-5.5825,-5.6819,-5.7316,-5.7649,-5.7839,-5.795,-5.795,-5.7792,-5.7839,-5.8006,-5.8326,-5.7556,-5.7122,-5.7453,-5.6649,-5.6303,-5.6888,-5.6749,-5.6568,-5.6489,-5.5992,-5.5859,-5.6227,-5.6246,-5.6671,-5.754,-5.7884,-5.8517,-5.9537,-5.9534,-5.9261,-5.8781,-5.8454,-5.7838,-5.6953,-5.6088,-5.5703,-5.5684,-5.5535,-5.5306,-5.5053,-5.5256,-5.6044,-5.7156,-5.7596,-5.8505,-5.9502,-5.9122,-5.8812,-5.8586,-4.2092,-4.2092,-4.2257,-4.2541,-4.301,-4.3409,-4.391,-4.4281,-4.4572,-4.4572,-4.4281,-4.4127,-4.4511,-4.3289,-4.2439,-4.2594,-4.3263,-4.4204,-4.5384,-4.6811,-4.7489,-4.7306,-4.7852,-4.8163,-4.8163,-4.8292,-4.8227,-4.7935,-4.7555,-4.7555,-4.7869,-4.7235,-4.7082,-4.7337,-4.7014,-4.6876,-4.6876,-4.6876,-4.6876,-4.6876,-4.6876,-4.6668,-4.6404,-4.7199,-4.7251,-4.7082,-4.7886,-4.8356,-4.8547,-4.8769,-4.8894,-4.9124,-4.9428,-4.9708,-4.9982,-5.0285,-5.0999,-5.169,-5.169,-5.2084,-5.2452,-5.2498,-5.2498,-5.2733,-5.3603,-5.4381,-5.5239,-5.6277,-5.709,-5.7697,-5.795,-5.7997,-5.795,-5.7857,-5.7877,-5.7923,-5.8024,-5.7376,-5.67,-5.6195,-5.5387,-5.51,-5.5589,-5.5252,-5.5233,-5.5778,-5.5818,-5.6205,-5.7154,-5.7212,-5.7578,-5.8387,-5.9177,-5.9595,-5.9608,-5.9531,-5.9454,-5.9377,-5.8569,-5.7723,-5.6857,-5.6049,-5.5684,-5.564,-5.5282,-5.5061,-5.5007,-5.4971,-5.5655,-5.6786,-5.7175,-5.8065,-5.9084,-5.875,-5.8586,-5.8479,-4.2092,-4.2092,-4.2092,-4.2242,-4.2784,-4.3329,-4.3409,-4.4112,-4.4572,-4.4572,-4.4281,-4.4065,-4.4127,-4.3072,-4.2374,-4.2469,-4.3426,-4.4551,-4.5794,-4.6828,-4.7471,-4.7605,-4.7902,-4.7919,-4.7605,-4.7621,-4.7621,-4.7555,-4.715,-4.7014,-4.7167,-4.6945,-4.6945,-4.7014,-4.6945,-4.6876,-4.6876,-4.6876,-4.6876,-4.6892,-4.6738,-4.6738,-4.6823,-4.7115,-4.7302,-4.7404,-4.8146,-4.8483,-4.8547,-4.8877,-4.9124,-4.9428,-4.9488,-4.9884,-5.0285,-5.0359,-5.0838,-5.1436,-5.164,-5.1938,-5.2246,-5.2452,-5.2498,-5.2878,-5.4309,-5.478,-5.5335,-5.7006,-5.7473,-5.7697,-5.795,-5.7997,-5.7997,-5.795,-5.7528,-5.7479,-5.8213,-5.6626,-5.5603,-5.6206,-5.4983,-5.4558,-5.5788,-5.6267,-5.6595,-5.6787,-5.6766,-5.7112,-5.7983,-5.8036,-5.844,-5.9293,-5.946,-5.9884,-6.058,-5.9861,-5.9184,-5.855,-5.7684,-5.6819,-5.5972,-5.578,-5.5512,-5.5212,-5.525,-5.4857,-5.424,-5.4503,-5.53,-5.6426,-5.6753,-5.7622,-5.871,-5.8628,-5.8412,-5.8097,-4.2092,-4.2092,-4.2092,-4.2092,-4.2637,-4.309,-4.325,-4.3895,-4.4281,-4.4281,-4.3972,-4.366,-4.366,-4.251,-4.2108,-4.2834,-4.365,-4.4947,-4.6799,-4.7522,-4.7951,-4.8098,-4.7836,-4.7638,-4.7404,-4.7202,-4.715,-4.715,-4.7014,-4.6876,-4.6876,-4.6876,-4.6876,-4.6876,-4.6876,-4.6876,-4.6876,-4.6876,-4.6876,-4.6876,-4.6876,-4.6876,-4.6945,-4.7302,-4.7504,-4.7621,-4.8146,-4.8483,-4.869,-4.894,-4.9246,-4.9547,-4.9649,-4.9999,-5.0415,-5.0582,-5.1017,-5.1538,-5.164,-5.1987,-5.234,-5.2452,-5.2498,-5.2715,-5.3566,-5.4375,-5.5232,-5.6241,-5.712,-5.7745,-5.795,-5.7997,-5.7997,-5.7997,-5.7712,-5.7674,-5.8249,-5.6602,-5.5581,-5.6147,-5.4777,-5.4388,-5.5917,-5.6355,-5.6889,-5.7657,-5.7143,-5.7428,-5.8892,-5.8431,-5.875,-6.0179,-6.0195,-6.0384,-6.0846,-5.9573,-5.8635,-5.8059,-5.7351,-5.653,-5.5703,-5.5573,-5.5394,-5.5198,-5.4867,-5.4471,-5.405,-5.424,-5.4987,-5.607,-5.6406,-5.7316,-5.8388,-5.8344,-5.8186,-5.7997,-4.2092,-4.2092,-4.2092,-4.2092,-4.2392,-4.2769,-4.317,-4.3581,-4.391,-4.391,-4.3488,-4.317,-4.317,-4.2099,-4.1907,-4.3389,-4.4123,-4.5437,-4.7671,-4.8194,-4.8356,-4.8356,-4.7671,-4.7337,-4.7337,-4.7014,-4.6828,-4.6645,-4.6828,-4.6828,-4.6645,-4.6828,-4.6876,-4.6876,-4.6876,-4.6876,-4.6876,-4.6876,-4.6876,-4.6876,-4.703,-4.7098,-4.7014,-4.7504,-4.7704,-4.7836,-4.8163,-4.85,-4.8832,-4.9001,-4.9307,-4.959,-4.9884,-5.0228,-5.0526,-5.0836,-5.1298,-5.169,-5.169,-5.2102,-5.2498,-5.2498,-5.2589,-5.2715,-5.2715,-5.3896,-5.5062,-5.533,-5.6674,-5.7792,-5.7997,-5.7997,-5.7997,-5.7997,-5.7886,-5.7886,-5.7976,-5.6707,-5.5757,-5.5899,-5.4873,-5.4662,-5.5958,-5.6121,-5.6809,-5.8447,-5.7297,-5.7498,-5.9719,-5.8736,-5.8961,-6.0811,-6.0869,-6.0846,-6.08,-5.9081,-5.8103,-5.787,-5.7086,-5.631,-5.5531,-5.5389,-5.5217,-5.5064,-5.4387,-5.4102,-5.405,-5.405,-5.4743,-5.5871,-5.619,-5.707,-5.8197,-5.8088,-5.8042,-5.7997,-4.2092,-4.2092,-4.2092,-4.2092,-4.2392,-4.2688,-4.2769,-4.309,-4.3409,-4.3409,-4.301,-4.2769,-4.2769,-4.2372,-4.2483,-4.3389,-4.4776,-4.6123,-4.7406,-4.7836,-4.7919,-4.7538,-4.715,-4.6945,-4.6945,-4.6945,-4.6447,-4.5507,-4.6447,-4.6431,-4.5523,-4.6463,-4.6876,-4.6876,-4.6876,-4.6876,-4.6876,-4.6876,-4.6807,-4.6668,-4.6876,-4.703,-4.7183,-4.7354,-4.7754,-4.8163,-4.8356,-4.8673,-4.9001,-4.9307,-4.959,-4.9924,-5.0228,-5.0582,-5.0836,-5.0891,-5.1298,-5.169,-5.169,-5.2102,-5.2498,-5.2498,-5.3023,-5.3548,-5.3548,-5.4237,-5.5166,-5.6041,-5.6963,-5.7697,-5.795,-5.7997,-5.7997,-5.7997,-5.7518,-5.7148,-5.7242,-5.5942,-5.5047,-5.5148,-5.5303,-5.5602,-5.6063,-5.6188,-5.7069,-5.9038,-5.7371,-5.7461,-6.0227,-5.9472,-5.9498,-6.0762,-6.0823,-6.0823,-6.08,-5.8834,-5.7985,-5.8216,-5.6395,-5.5332,-5.4924,-5.5191,-5.4914,-5.4255,-5.4277,-5.4106,-5.3832,-5.3774,-5.4679,-5.6039,-5.5913,-5.6823,-5.8197,-5.8305,-5.8197,-5.7997,-4.2092,-4.2092,-4.2092,-4.2092,-4.2242,-4.2474,-4.2703,-4.285,-4.293,-4.293,-4.2769,-4.2607,-4.2392,-4.2499,-4.3257,-4.4897,-4.5511,-4.6437,-4.7901,-4.782,-4.7555,-4.7404,-4.7082,-4.6876,-4.6876,-4.6876,-4.6399,-4.5293,-4.6399,-4.6383,-4.5309,-4.6415,-4.6876,-4.6876,-4.6876,-4.6876,-4.6876,-4.6807,-4.6652,-4.6652,-4.6945,-4.7115,-4.7251,-4.7571,-4.8033,-4.842,-4.8673,-4.8877,-4.9001,-4.9185,-4.953,-4.9924,-5.004,-5.0471,-5.0945,-5.1088,-5.1402,-5.174,-5.1889,-5.2198,-5.2498,-5.2498,-5.3096,-5.3693,-5.3693,-5.4683,-5.5741,-5.6259,-5.7083,-5.7792,-5.795,-5.7997,-5.7997,-5.7997,-5.7749,-5.7453,-5.7131,-5.6594,-5.594,-5.5209,-5.4913,-5.53,-5.673,-5.6823,-5.7511,-5.9163,-5.7644,-5.7547,-5.9664,-5.8719,-5.8945,-6.0808,-6.0823,-6.08,-6.08,-5.8809,-5.7772,-5.7726,-5.5892,-5.5037,-5.5083,-5.5056,-5.4727,-5.4209,-5.4071,-5.3981,-5.3907,-5.3793,-5.47,-5.6166,-5.6039,-5.6866,-5.8088,-5.8242,-5.8106,-5.7904]}]]